     2              OBSERVATION DATA    GPS                 RINEX VERSION / TYPE
srx v1.3 (5/19/93) STARR 93/10/27 17:27:00                  PGM / RUN BY / DATE
                                                            COMMENT
sig: 9 8 7 6 5 4 1 0                                        COMMENT
sig: 9 8 7 6 5 4 1 0                                        COMMENT
sig: 9 8 7 6 5 4 1 0                                        COMMENT
Original Marker Name: 3183                                  COMMENT
Campaign Name: Baja (Dixon) 1993                            COMMENT
4-Character Station Name: 3183                              COMMENT
6-Character Antenna Code: DMRCHT                            COMMENT
Vertical Measurement Point: BCR                             COMMENT
Vertical Offset to Rinex Ref. Point: 0.0348                 COMMENT
Radial Measurement Point: ECF                               COMMENT
Radial Offset to Rinex Ref. Point: 0.1897                   COMMENT
Antenna Height from Field Measurement: 0.6420 m             COMMENT
Additional Antenna Identification Info.:                    COMMENT
Turborogue and Ashtech Choke Ring                           COMMENT
Original XYZ: -2493309.0382 -4655182.3466 3565500.9443      COMMENT
New XYZ position is based on association with SCEC monument COMMENT
E1C2W3H3+0011. Position of that monument is believed to be  COMMENT
valid to within 1 m horizontally; vertical accuracy         COMMENT
should be no worse than 3-times this value.                 COMMENT
                                                            COMMENT
Revised Rinex header created by UCSD GPS archive for        COMMENT
GSAC on 09-Nov-2004 (2004:314) 21:59:07 GMT                 COMMENT
For assistance contact dagnew@ucsd.edu                      COMMENT
or anderson@python.ucsd.edu                                 COMMENT
                                                            COMMENT
3183S                                                       MARKER NAME
THE OBSERVER WAS?___JET PROPULSION LABORATORY               OBSERVER / AGENCY
142 TURBOROGUE SNR-8000 100.1                               REC # / TYPE / VERS
142 DORNE-MARGOL. TYPE T                                    ANT # / TYPE
 -2326942.0000 -4903449.0000  3339029.0000                  APPROX POSITION XYZ
        0.5785        0.0000        0.0000                  ANTENNA: DELTA H/E/N
     1     1     0                                          WAVELENGTH FACT L1/2
     5    L1    L2    P1    P2    C1                        # / TYPES OF OBSERV
   120                                                      INTERVAL
  1993     4    17     0     0    0.000000                  TIME OF FIRST OBS
  1993     4    17    23    58    0.000000                  TIME OF LAST OBS
    23                                                      # OF SATELLITES
          01  1504  1504  1504  1504     0                  PRN / # OF OBS
          02  1566  1566  1531  1566    35                  PRN / # OF OBS
          03  1483  1483  1483  1483     0                  PRN / # OF OBS
          11  1640  1640  1640  1640     0                  PRN / # OF OBS
          12  1655  1655  1655  1655     0                  PRN / # OF OBS
          13  1467  1467  1467  1467     0                  PRN / # OF OBS
          14  1244  1244  1244  1244     0                  PRN / # OF OBS
          15  1448  1448  1448  1448     0                  PRN / # OF OBS
          16  1392  1392  1392  1392     0                  PRN / # OF OBS
          17  1643  1643  1643  1643     0                  PRN / # OF OBS
          18  1353  1353  1353  1353     0                  PRN / # OF OBS
          19  1638  1638  1638  1638     0                  PRN / # OF OBS
          20  1449  1449  1443  1449     6                  PRN / # OF OBS
          21  1615  1615  1615  1615     0                  PRN / # OF OBS
          22  1718  1718  1718  1718     0                  PRN / # OF OBS
          23  1481  1481  1481  1481     0                  PRN / # OF OBS
          24  1433  1433  1398  1433    35                  PRN / # OF OBS
          25  1176  1176  1176  1176     0                  PRN / # OF OBS
          26  1769  1769  1756  1769    13                  PRN / # OF OBS
          27  1522  1522  1522  1522     0                  PRN / # OF OBS
          28  1855  1855  1855  1855     0                  PRN / # OF OBS
          29  1484  1484  1484  1484     0                  PRN / # OF OBS
                                                            END OF HEADER
 93 04 17 00 00 00.0000000  0  5 26 13 02 12 24
 -16070471.58008 -12522450.54108  21394943.93508  21394948.71908         0.00001
 -37903009.09409 -29534770.64708  17471710.73909  17471712.60208         0.00001
  -9425404.86308  -7344473.28508  19325414.87608  19325417.03908         0.00001
 -15182800.06708 -11830745.75208  20333265.88508  20333269.21108         0.00001
 -20670202.02908 -16106616.58308  19525443.19308  19525446.16908         0.00001
 93 04 17 00 02 00.0000000  0  5 26 13 02 12 24
 -15958163.39908 -12434938.18108  21416316.00508  21416320.84908         0.00001
 -37969035.13209 -29586219.51308  17459146.44309  17459148.25008         0.00001
  -9374721.74308  -7304980.13108  19335059.67808  19335061.94308         0.00001
 -15701612.85508 -12235015.17408  20234538.81708  20234542.13008         0.00001
 -21202638.43108 -16521501.83008  19424123.70208  19424126.58008         0.00001
 93 04 17 00 04 00.0000000  0  5 26 13 02 12 24
 -15844579.95708 -12346432.11708  21437930.47408  21437935.42708         0.00001
 -38027818.19109 -29632024.50608  17447960.41109  17447962.23108         0.00001
  -9319271.71808  -7261772.52008  19345611.62008  19345613.98008         0.00001
 -16216937.88008 -12636566.88808  20136475.57208  20136478.81408         0.00001
 -21730242.63208 -16932621.74308  19323723.79408  19323726.59108         0.00001
 93 04 17 00 06 00.0000000  0  5 26 13 02 12 24
 -15729545.15908 -12256795.16608  21459821.17208  21459826.28708         0.00001
 -38079467.75709 -29672270.93508  17438131.81709  17438133.66808         0.00001
  -9259288.55808  -7215032.60908  19357026.17208  19357028.60308         0.00001
 -16728575.85408 -13035245.59308  20039113.93608  20039117.11408         0.00001
 -22252676.30908 -17339712.67808  19224307.80308  19224310.51808         0.00001
 93 04 17 00 08 00.0000000  0  5 26 13 02 12 24
 -15613467.63108 -12166345.73308  21481910.59008  21481915.80108         0.00001
 -38124393.72909 -29707278.18908  17429582.68709  17429584.53808         0.00001
  -9195225.74508  -7165113.75508  19369217.10308  19369219.53908         0.00001
 -17236619.55808 -13431123.57508  19942436.23708  19942439.45208         0.00001
 -22770273.00808 -17743034.53708  19125812.26608  19125814.88008         0.00001
 93 04 17 00 10 00.0000000  0  5 26 13 02 12 24
 -15496604.85308 -12075284.42307  21504149.38708  21504154.48607         0.00001
 -38162617.04509 -29737062.58908  17422309.05909  17422310.89208         0.00001
  -9126475.32208  -7111542.21108  19382300.07808  19382302.55608         0.00001
 -17740771.86208 -13823969.31108  19846499.08508  19846502.25408         0.00001
 -23282874.05408 -18142463.67208  19028267.29508  19028269.90508         0.00001
 93 04 17 00 12 00.0000000  0  5 26 13 02 12 24
 -15379113.58208 -11983733.34307  21526507.62408  21526512.99207         0.00001
 -38194259.33509 -29761718.92808  17416287.72209  17416289.57908         0.00001
  -9053381.20608  -7054585.98008  19396209.59108  19396212.08008         0.00001
 -18240835.93708 -14213629.44708  19751339.91208  19751342.97208         0.00001
 -23789965.50108 -18537599.63808  18931770.83508  18931773.37808         0.00001
 93 04 17 00 14 00.0000000  0  5 26 13 02 12 24
 -15260979.66208 -11891681.51107  21548988.04908  21548993.55107         0.00001
 -38219381.16609 -29781294.40308  17411507.17909  17411509.09708         0.00001
  -8975851.41508  -6994173.37108  19410963.20908  19410965.73808         0.00001
 -18736548.69708 -14599898.95808  19657008.80608  19657011.81008         0.00001
 -24291385.52408 -18928316.32308  18836353.63008  18836356.16608         0.00001
 93 04 17 00 16 00.0000000  0  5 26 13 24 02 12
 -15142823.64508 -11799612.45907  21571472.76908  21571478.53907         0.00001
 -38238450.48709 -29796153.63708  17407878.45409  17407880.32908         0.00001
 -24787532.68808 -19314924.30508  18741939.85008  18741942.27308         0.00001
  -8893698.39908  -6930158.25508  19426596.50908  19426599.12408         0.00001
 -19228051.89708 -14982888.28508  19563478.75708  19563481.69208         0.00001
 93 04 17 00 18 00.0000000  0  5 26 13 24 02 12
 -15024517.22108 -11707426.22207  21593986.15808  21593992.13507         0.00001
 -38251547.56809 -29806359.17608  17405386.20209  17405388.03408         0.00001
 -25277988.53208 -19697097.50208  18648609.05808  18648611.37208         0.00001
  -8807097.73208  -6862677.44408  19443076.20708  19443078.92908         0.00001
 -19715097.95508 -15362404.51008  19470796.83508  19470799.68608         0.00001
 93 04 17 00 20 00.0000000  0  4 13 24 02 12
 -38258816.38109 -29812023.21708  17404003.05809  17404004.88708         0.00001
 -25762125.39308 -20074346.81208  18556480.75208  18556483.03008         0.00001
  -8716228.31908  -6791870.36108  19460368.32508  19460371.14508         0.00001
 -20197497.70408 -15738300.25008  19378999.01108  19379001.89508         0.00001
 93 04 17 00 22 00.0000000  0  4 13 24 02 12
 -38260045.32509 -29812980.86608  17403769.20709  17403771.02308         0.00001
 -26240223.94608 -20446890.93908  18465501.50008  18465503.72508         0.00001
  -8620774.53008  -6717491.04608  19478532.74108  19478535.52308         0.00001
 -20674712.72908 -16110155.96508  19288187.86808  19288190.72808         0.00001
 93 04 17 00 24 00.0000000  0  5 26 13 24 02 12
        -0.27017        -0.90317  21661349.12417  21661355.62017         0.00011
 -38255615.72909 -29809529.25808  17404612.11609  17404613.96008         0.00001
 -26712494.61708 -20814893.86508  18375631.25508  18375633.42108         0.00001
  -8520697.84108  -6639509.47608  19497576.84608  19497579.72508         0.00001
 -21146792.49108 -16478010.17408  19198353.95208  19198356.79908         0.00001
 93 04 17 00 26 00.0000000  0  4 13 24 02 12
 -38245639.35809 -29801755.47408  17406510.56309  17406512.45308         0.00001
 -27178062.24608 -21177673.65108  18287036.51408  18287038.69608         0.00001
  -8416123.60708  -6558023.32408  19517476.97208  19517479.90008         0.00001
 -21613515.16508 -16841690.00308  19109539.46508  19109542.27608         0.00001
 93 04 17 00 28 00.0000000  0  5 26 13 24 02 12
        -0.82717        -0.32317  21705791.06617  21705797.85917         0.00011
 -38230380.39209 -29789865.37708  17409414.24809  17409416.14008         0.00001
 -27636914.50108 -21535220.68308  18199719.65508  18199721.81008         0.00001
  -8306899.15408  -6472913.63408  19538261.97308  19538264.92508         0.00001
 -22074812.67408 -17201142.42608  19021757.36508  19021760.06908         0.00001
 93 04 17 00 30 00.0000000  0  5 26 13 24 02 12
    115255.58307     89809.01807  21727724.18807  21727731.19007         0.00001
 -38210200.86909 -29774141.08708  17413254.28709  17413256.19608         0.00001
 -28089384.84208 -21887794.79308  18113617.28508  18113619.37208         0.00001
  -8193473.52908  -6384530.32108  19559846.36708  19559849.37808         0.00001
 -22530713.87108 -17556389.95108  18935002.17908  18935004.73608         0.00001
 93 04 17 00 32 00.0000000  0  5 26 24 12 02 13
    229446.66307    178788.27007  21749454.52107  21749461.83507         0.00001
 -28535510.93908 -22235425.32908  18028722.19908  18028724.21308         0.00001
 -22980912.57508 -17907194.00108  18849332.11508  18849334.65408         0.00001
  -8075771.86708  -6292815.02808  19582244.43508  19582247.49608         0.00001
 -38185125.13409 -29754601.58808  17418026.08409  17418027.98708         0.00001
 93 04 17 00 34 00.0000000  0  5 26 24 12 02 13
    342033.43707    266517.40107  21770879.70207  21770887.16507         0.00001
 -28974678.69608 -22577633.79308  17945151.19808  17945153.20908         0.00001
 -23425274.20108 -18253449.70108  18764772.81208  18764775.37408         0.00001
  -7953521.84808  -6197555.56008  19605508.02408  19605511.11608         0.00001
 -38155351.68509 -29731401.54708  17423691.84109  17423693.72708         0.00001
 93 04 17 00 36 00.0000000  0  4 12 24 02 13
 -23863551.38008 -18594964.28708  18681371.33108  18681373.93308         0.00001
 -29407002.35308 -22914509.19908  17862882.55508  17862884.50708         0.00001
  -7827188.70908  -6099114.44908  19629548.47908  19629551.82608         0.00001
 -38120962.17909 -29704604.58408  17430235.97309  17430237.89008         0.00001
 93 04 17 00 38 00.0000000  0  4 12 24 02 13
 -24295664.80608 -18931675.96008  18599142.79308  18599145.40908         0.00001
 -29832058.50308 -23245721.61008  17781996.97408  17781998.88308         0.00001
  -7696505.31908  -5997283.54808  19654416.99808  19654420.41208         0.00001
 -38082206.33308 -29674405.27508  17437610.95108  17437612.91908         0.00001
 93 04 17 00 40 00.0000000  0  4 12 24 13 02
 -24721309.93808 -19263347.40108  18518145.14308  18518147.70208         0.00001
 -30249911.87508 -23571321.46908  17702481.99608  17702483.86608         0.00001
 -38039107.49008 -29640821.80308  17445812.42208  17445814.38408         0.00001
  -7561586.24608  -5892152.12108  19680091.47108  19680095.00108         0.00001
 93 04 17 00 42 00.0000000  0  4 12 24 13 02
 -25140261.37308 -19589802.96008  18438421.26908  18438423.82408         0.00001
 -30660630.99608 -23891362.17608  17624324.55808  17624326.49508         0.00001
 -37991761.68608 -29603928.99808  17454822.09508  17454823.99908         0.00001
  -7422269.58508  -5783593.97408  19706602.83908  19706606.33808         0.00001
 93 04 17 00 44 00.0000000  0  4 12 24 13 02
 -25552211.03008 -19910802.56708  18360029.77108  18360032.28908         0.00001
 -31063689.79408 -24205433.80808  17547624.89508  17547626.76008         0.00001
 -37940183.65709 -29563738.35608  17464637.18609  17464639.01708         0.00001
  -7278305.98008  -5671414.84108  19733998.45108  19734002.15008         0.00001
 93 04 17 00 46 00.0000000  0  4 12 24 13 02
 -25957066.92108 -20226274.55808  18282988.14008  18282990.66108         0.00001
 -31458945.81408 -24513425.35108  17472410.05008  17472411.88508         0.00001
 -37884601.82908 -29520427.87208  17475214.07608  17475215.93808         0.00001
  -7129968.76008  -5555827.74808  19762226.36508  19762230.14608         0.00001
 93 04 17 00 48 00.0000000  0  4 12 24 13 02
 -26354402.42408 -20535886.53008  18207377.60408  18207380.13308         0.00001
 -31845983.94208 -24815013.34808  17398759.03608  17398760.77208         0.00001
 -37824903.31908 -29473909.58608  17486574.28208  17486576.20408         0.00001
  -6976805.94208  -5436480.46108  19791372.55608  19791376.34208         0.00001
 93 04 17 00 50 00.0000000  0  4 12 24 13 02
 -26744112.44408 -20839556.57808  18133218.16608  18133220.67608         0.00001
 -32224919.46708 -25110287.63008  17326649.92708  17326651.61108         0.00001
 -37761296.25508 -29424345.67108  17498678.32408  17498680.28708         0.00001
  -6819146.37108  -5313629.19908  19821374.35108  19821378.20808         0.00001
 93 04 17 00 52 00.0000000  0  4 12 24 13 02
 -27126031.71208 -21137155.91008  18060541.34008  18060543.76908         0.00001
 -32595777.44008 -25399267.71308  17256077.89108  17256079.58208         0.00001
 -37693922.65908 -29371846.80508  17511499.11308  17511501.08708         0.00001
  -6656810.07208  -5187133.73508  19852266.22808  19852270.16708         0.00001
 93 04 17 00 54 00.0000000  0  4 12 24 13 02
 -27499982.11208 -21428545.74408  17989380.89508  17989383.27808         0.00001
 -32958605.35008 -25681990.61508  17187033.90608  17187035.57308         0.00001
 -37622906.96108 -29316509.95108  17525012.98608  17525015.00108         0.00001
  -6490003.04108  -5057154.57708  19884008.84008  19884012.84208         0.00001
 93 04 17 00 56 00.0000000  0  4 12 24 13 02
 -27865909.51608 -21713683.91008  17919747.16208  17919749.52308         0.00001
 -33313026.66908 -25958162.93508  17119589.70708  17119591.27708         0.00001
 -37548494.81208 -29258526.53308  17539173.15608  17539175.21008         0.00001
  -6318962.06008  -4923876.25908  19916557.13008  19916561.22408         0.00001
 93 04 17 00 58 00.0000000  0  4 12 24 13 02
 -28223586.08508 -21992392.86408  17851683.51608  17851685.92608         0.00001
 -33659048.64408 -26227790.31808  17053743.80408  17053745.36908         0.00001
 -37470751.52208 -29197947.42408  17553967.28308  17553969.32808         0.00001
  -6143399.17008  -4787074.35208  19949965.92608  19949969.97708         0.00001
 93 04 17 01 00 00.0000000  0  4 12 24 13 02
 -28572740.28408 -22264460.99308  17785241.59908  17785244.02208         0.00001
 -33996262.62608 -26490554.32508  16989573.91708  16989575.50908         0.00001
 -37389692.21308 -29134784.40108  17569392.39408  17569394.46408         0.00001
  -5963457.17208  -4646860.11808  19984207.87908  19984212.13708         0.00001
 93 04 17 01 02 00.0000000  0  4 24 12 13 02
 -34324775.72508 -26746538.42708  16927059.88508  16927061.42508         0.00001
 -28913244.70008 -22529789.02208  17720445.70508  17720448.06508         0.00001
 -37305473.54908 -29069159.55508  17585418.70008  17585420.80808         0.00001
  -5778815.00608  -4502983.43508  20019344.47808  20019348.71108         0.00001
 93 04 17 01 04 00.0000000  0  5 20 24 12 13 02
        -0.06917        -0.46417  21395513.66617  21395518.05217         0.00011
 -34644500.20408 -26995674.25508  16866218.23908  16866219.74408         0.00001
 -29244827.03508 -22788164.78708  17657347.61308  17657349.93308         0.00001
 -37218100.38408 -29001076.64408  17602045.27508  17602047.43508         0.00001
  -5589918.79208  -4355791.92308  20055290.48508  20055294.80908         0.00001
 93 04 17 01 06 00.0000000  0  4 24 12 13 02
 -34955480.05308 -27237996.09908  16807040.68108  16807042.11708         0.00001
 -29567482.77508 -23039584.78508  17595948.20308  17595950.49608         0.00001
 -37127838.15308 -28930742.49108  17619221.68108  17619223.75908         0.00001
  -5396730.33008  -4205255.80608  20092053.22208  20092057.79108         0.00001
 93 04 17 01 08 00.0000000  0  5 20 24 12 13 02
        -0.20017         0.05617  21193447.72717  21193451.74017         0.00011
 -35257477.71308 -27473318.84208  16749572.32808  16749573.77308         0.00001
 -29880998.79708 -23283882.93408  17536288.08808  17536290.37708         0.00001
 -37034737.64908 -28858196.67608  17636938.15608  17636940.25008         0.00001
  -5198954.02708  -4051144.77608  20129688.98408  20129693.79808         0.00001
 93 04 17 01 10 00.0000000  0  5 20 24 12 13 02
   -531611.68307   -414242.51707  21092285.25307  21092289.24807         0.00001
 -35550444.77208 -27701604.75608  16693822.48408  16693823.88708         0.00001
 -30185324.89008 -23521020.07708  17478376.70708  17478378.98008         0.00001
 -36939004.56608 -28783599.50408  17655155.60908  17655157.70508         0.00001
  -4996468.16608  -3893363.98108  20168221.16408  20168225.90508         0.00001
 93 04 17 01 12 00.0000000  0  4 24 12 13 02
 -35834388.62408 -27922859.60108  16639789.68308  16639791.06808         0.00001
 -30480345.61508 -23750906.27208  17422236.03208  17422238.31508         0.00001
 -36840776.46708 -28707058.18408  17673847.80708  17673849.90908         0.00001
  -4790186.30707  -3732625.24208  20207475.45807  20207480.39308         0.00001
 93 04 17 01 14 00.0000000  0  6 16 24 12 13 02 20
        -0.48517         0.44217  21317683.51517  21317690.89117         0.00011
 -36109651.36108 -28137349.94808  16587408.88408  16587410.24608         0.00001
 -30765963.76908 -23973465.79508  17367884.63008  17367886.92108         0.00001
 -36740196.49508 -28628684.25308  17692987.58008  17692989.78008         0.00001
  -4579914.60908  -3568777.50608  20247489.14108  20247494.10008         0.00001
        -0.06317        -0.04517  20889749.08117  20889753.05617         0.00011
 93 04 17 01 16 00.0000000  0  6 16 24 12 13 02 20
   -483307.27407   -376601.39607  21225712.61907  21225719.88207         0.00001
 -36376116.83908 -28344985.29108  16536702.12008  16536703.43208         0.00001
 -31042063.65208 -24188608.49208  17315344.48208  17315346.76108         0.00001
 -36637383.31308 -28548570.16608  17712552.35808  17712554.64008         0.00001
  -4365442.23908  -3401656.42208  20288301.99508  20288307.03608         0.00001
   -532581.27407   -414998.01907  20788402.01807  20788405.82607         0.00001
 93 04 17 01 18 00.0000000  0  6 16 24 12 13 02 20
   -969087.03707   -755130.40507  21133271.17207  21133278.44607         0.00001
 -36633274.77008 -28545368.00008  16487766.46508  16487767.79408         0.00001
 -31308540.74808 -24396252.93008  17264635.51808  17264637.78708         0.00001
 -36532457.75908 -28466810.06308  17732519.08308  17732521.33908         0.00001
  -4147010.99508  -3231450.48907  20329868.29008  20329873.31507         0.00001
  -1065332.79507   -830128.69107  20687022.42807  20687026.28607         0.00001
 93 04 17 01 20 00.0000000  0  6 16 24 12 13 02 20
  -1457434.94207  -1135660.45907  21040341.07007  21040348.16907         0.00001
 -36881568.35008 -28738843.42908  16440517.70408  16440519.02008         0.00001
 -31565247.14208 -24596283.84808  17215785.89908  17215788.15608         0.00001
 -36425488.75908 -28383457.64708  17752874.63808  17752876.88908         0.00001
  -3924592.48908  -3058137.58807  20372193.42108  20372198.39407         0.00001
  -1598122.81207  -1245289.26307  20585635.67707  20585639.20107         0.00001
 93 04 17 01 22 00.0000000  0  6 24 12 13 02 20 16
 -37120684.64908 -28925167.73208  16395015.27808  16395016.59808         0.00001
 -31812008.00908 -24788565.00808  17168828.82508  17168831.10708         0.00001
 -36316514.25208 -28298542.47808  17773611.85008  17773614.08508         0.00001
  -3698268.37808  -2881781.32707  20415261.66608  20415266.72207         0.00001
  -2130783.96808  -1660349.52807  20484273.41008  20484276.74107         0.00001
  -1947546.76507  -1517564.91207  20947075.42007  20947082.06807         0.00001
 93 04 17 01 24 00.0000000  0  6 24 12 13 02 20 16
 -37350426.50208 -29104187.28208  16351296.80708  16351298.13508         0.00001
 -32048814.56508 -24973089.56208  17123766.02008  17123768.28408         0.00001
 -36205725.65108 -28212213.71508  17794694.24708  17794696.47208         0.00001
  -3468083.87908  -2702416.88507  20459064.15808  20459069.31107         0.00001
  -2663306.98808  -2075302.27007  20382937.37808  20382940.71407         0.00001
  -2439562.33608  -1900952.92206  20853447.44908  20853453.60606         0.00001
 93 04 17 01 26 00.0000000  0  6 24 12 13 02 20 16
 -37571059.02708 -29276108.65708  16309311.78308  16309313.09408         0.00001
 -32275686.87108 -25149873.15108  17080593.63608  17080595.87808         0.00001
 -36093333.43408 -28124635.38508  17816081.81208  17816083.99008         0.00001
  -3234130.33107  -2520115.48707  20503584.23207  20503589.36007         0.00001
  -3195703.01608  -2490156.09507  20281625.61908  20281628.76207         0.00001
  -2933720.23408  -2286010.45206  20759411.82708  20759417.68606         0.00001
 93 04 17 01 28 00.0000000  0  6 24 12 13 02 20 16
 -37782942.78708 -29441212.81808  16268991.57908  16268992.89908         0.00001
 -32492457.46908 -25318785.30308  17039343.58808  17039345.85408         0.00001
 -35979355.99708 -28035821.84008  17837771.02908  17837773.23308         0.00001
  -2996438.67307  -2334901.20607  20548815.39507  20548820.63607         0.00001
  -3727788.20108  -2904767.69107  20180372.94708  20180376.05707         0.00001
  -3429410.15808  -2672261.73107  20665084.63208  20665090.82307         0.00001
 93 04 17 01 30 00.0000000  0  6 24 12 13 02 20 16
 -37985724.74708 -29599224.67808  16230403.42708  16230404.70108         0.00001
 -32699086.03208 -25479794.58508  17000023.49708  17000025.69508         0.00001
 -35863925.48908 -27945876.05208  17859736.76408  17859738.97708         0.00001
  -2755146.69707  -2146881.41507  20594731.70907  20594736.90007         0.00001
  -4259493.17708  -3319082.94708  20079192.60408  20079195.73008         0.00001
  -3926626.68308  -3059702.43008  20570466.84008  20570472.96908         0.00001
 93 04 17 01 32 00.0000000  0  5 24 12 13 20 02
 -38179219.24608 -29749999.55908  16193582.62908  16193583.87508         0.00001
 -32895477.06508 -25632826.57108  16962651.48008  16962653.73708         0.00001
 -35747111.19508 -27854851.99008  17881965.79008  17881967.93608         0.00001
  -4790684.17708  -3732997.61308  19978109.96608  19978112.94708         0.00001
  -2510661.35907  -1956373.23207  20641255.65307  20641260.83407         0.00001
 93 04 17 01 34 00.0000000  0  5 24 12 13 20 02
 -38363907.65608 -29893912.55608  16158437.53508  16158438.76908         0.00001
 -33081482.44408 -25777765.82408  16927255.81308  16927258.07808         0.00001
 -35628917.33008 -27762752.92108  17904457.30808  17904459.55308         0.00001
  -5321169.70208  -4146362.59008  19877161.68508  19877164.51708         0.00001
  -2262717.61307  -1763170.12407  20688437.67407  20688442.66607         0.00001
 93 04 17 01 36 00.0000000  0  5 24 12 13 02 20
 -38539404.22208 -30030663.06808  16125041.62808  16125042.81508         0.00001
 -33257076.11708 -25914592.03808  16893841.43708  16893843.67908         0.00001
 -35509466.85508 -27669674.66508  17927188.02408  17927190.32108         0.00001
  -2010912.90407  -1566958.40507  20736354.32407  20736359.17607         0.00001
  -5850867.31908  -4559113.70408  19776363.41308  19776366.11008         0.00001
 93 04 17 01 38 00.0000000  0  6 24 12 13 02 20 16
 -38705757.74608 -30160289.12608  16093385.52808  16093386.71908         0.00001
 -33422304.16208 -26043341.13808  16862399.61308  16862401.84208         0.00001
 -35388938.54608 -27575756.53808  17950123.91208  17950126.14508         0.00001
  -1755976.78807  -1368306.54607  20784866.83007  20784871.67907         0.00001
  -6379758.65208  -4971236.62608  19675718.57108  19675721.37508         0.00001
        -0.53717        -0.35317  20189815.31317  20189820.86517         0.00011
 93 04 17 01 40 00.0000000  0  6 24 12 13 20 02 16
 -38863652.95208 -30283324.28608  16063339.00908  16063340.19408         0.00001
 -33577171.62408 -26164017.07708  16832929.28108  16832931.51608         0.00001
 -35267463.13708 -27481100.42808  17973239.94508  17973242.23308         0.00001
  -6907772.99208  -5382676.19108  19575240.63908  19575243.49008         0.00001
  -1497970.20307  -1167262.13507  20833963.41607  20833968.34807         0.00001
   -502067.19708   -391220.19208  20094275.09308  20094280.13308         0.00001
 93 04 17 01 42 00.0000000  0  6 24 12 13 20 16 02
 -39012643.77608 -30399420.96408  16034986.93108  16034988.08708         0.00001
 -33721768.67108 -26276690.11708  16805413.36308  16805415.62408         0.00001
 -35145243.20508 -27385864.16908  17996497.70908  17996499.93508         0.00001
  -7434917.68608  -5793438.05808  19474928.20308  19474930.99808         0.00001
  -1005000.35808   -783115.46407  19998569.56908  19998574.18307         0.00001
  -1237198.76607   -964063.22707  20883586.28107  20883590.91007         0.00001
 93 04 17 01 44 00.0000000  0  6 24 12 13 20 16 02
 -39152609.90808 -30508485.41608  16008352.20708  16008353.35808         0.00001
 -33856087.98508 -26381354.54508  16779853.27508  16779855.52708         0.00001
 -35022379.45308 -27290126.21408  18019877.91608  18019880.10908         0.00001
  -7961089.32508  -6203441.62008  19374800.85808  19374803.61208         0.00001
  -1508636.93108  -1175558.97207  19902729.98608  19902734.27607         0.00001
   -973234.97007   -758376.80207  20933816.68507  20933820.95307         0.00001
 93 04 17 01 46 00.0000000  0  6 02 24 12 13 20 16
   -706478.35107   -550513.84507  20984578.31507  20984582.71407         0.00001
 -39284150.55608 -30610984.56408  15983320.81008  15983321.97908         0.00001
 -33979982.89008 -26477896.05708  16756276.86608  16756279.10608         0.00001
 -34898817.48208 -27193844.19508  18043390.99808  18043393.24908         0.00001
  -8486039.81608  -6612493.66408  19274905.83308  19274908.49608         0.00001
  -2012339.89308  -1568054.04708  19806878.09708  19806882.55608         0.00001
 93 04 17 01 48 00.0000000  0  5 24 12 13 20 16
 -39407224.70008 -30706886.45308  15959900.55708  15959901.73708         0.00001
 -34093469.77208 -26566327.40408  16734681.01908  16734683.29308         0.00001
 -34774657.68408 -27097096.34708  18067017.80208  18067020.16408         0.00001
  -9009671.64508  -7020518.23508  19175261.86108  19175264.44108         0.00001
  -2515794.80408  -1960355.87107  19711073.14108  19711077.32307         0.00001
 93 04 17 01 50 00.0000000  0  5 24 12 13 20 16
 -39521769.29208 -30796141.93508  15938103.41408  15938104.56308         0.00001
 -34196650.53108 -26646727.99508  16715046.39808  16715048.71408         0.00001
 -34650074.90708 -27000018.91208  18090725.12608  18090727.51708         0.00001
  -9531962.72808  -7427498.07608  19075872.99808  19075875.54808         0.00001
  -3019467.20108  -2352827.29108  19615227.18208  19615231.24208         0.00001
 93 04 17 01 52 00.0000000  0  5 24 12 13 20 16
 -39627442.76408 -30878484.84608  15917994.37808  15917995.51508         0.00001
 -34289485.40108 -26719066.86508  16697380.51808  16697382.83308         0.00001
 -34525094.05608 -26902631.27808  18114508.25908  18114510.63908         0.00001
 -10052738.88708  -7833297.38008  18976772.24208  18976774.78508         0.00001
  -3523053.46208  -2745231.59808  19519397.39608  19519401.44608         0.00001
 93 04 17 01 54 00.0000000  0  5 24 12 13 20 16
 -39724914.15708 -30954436.53008  15899446.13208  15899447.24808         0.00001
 -34371927.90208 -26783307.79208  16681692.25608  16681694.59108         0.00001
 -34399719.94108 -26804937.20208  18138366.11208  18138368.56208         0.00001
 -10571812.48908  -8237769.99208  18877995.58508  18877998.11408         0.00001
  -4026069.91308  -3137191.91608  19423676.24008  19423679.89908         0.00001
 93 04 17 01 56 00.0000000  0  5 24 12 20 16 13
 -39813946.93008 -31023812.66208  15882503.74108  15882504.78708         0.00001
 -34444051.04608 -26839507.66108  16667967.69608  16667970.04208         0.00001
 -11089102.53308  -8640852.83508  18779558.39508  18779560.72908         0.00001
  -4528668.32308  -3528826.51508  19328034.30108  19328038.10908         0.00001
 -34274067.63608 -26707026.34008  18162276.98508  18162279.36208         0.00001
 93 04 17 01 58 00.0000000  0  5 24 12 20 16 13
 -39894619.94408 -31086674.68608  15867152.09808  15867153.16108         0.00001
 -34505695.31008 -26887542.16308  16656237.19608  16656239.52708         0.00001
 -11604288.48808  -9042296.17508  18681521.57308  18681523.83908         0.00001
  -5030113.02908  -3919562.06808  19232612.17608  19232615.81808         0.00001
 -34148011.53808 -26608800.82608  18186264.72908  18186267.05508         0.00001
 93 04 17 02 00 00.0000000  0  5 24 12 20 16 13
 -39967191.10508 -31143223.58508  15853342.15108  15853343.24908         0.00001
 -34557045.17008 -26927555.04508  16646465.67208  16646467.96808         0.00001
 -12117381.47408  -9442108.69108  18583883.14808  18583885.27508         0.00001
  -5530706.47608  -4309634.36808  19137351.95708  19137355.58408         0.00001
 -34021757.15808 -26510420.81808  18210290.13008  18210292.50508         0.00001
 93 04 17 02 02 00.0000000  0  5 24 12 20 16 13
 -40031315.94108 -31193190.93608  15841139.56808  15841140.68808         0.00001
 -34598055.17708 -26959510.89508  16638661.69608  16638664.03808         0.00001
 -12628154.89808  -9840113.85308  18486686.16808  18486688.25608         0.00001
  -6029897.78208  -4698614.05608  19042358.68308  19042362.08808         0.00001
 -33895268.15308 -26411858.01708  18234360.23608  18234362.57108         0.00001
 93 04 17 02 04 00.0000000  0  5 24 12 20 16 13
 -40087375.37408 -31236873.55908  15830471.76108  15830472.87708         0.00001
 -34628691.37208 -26983383.25808  16632831.84308  16632834.13008         0.00001
 -13136383.95008 -10236136.44308  18389973.36608  18389975.44508         0.00001
  -6527313.67208  -5086210.35108  18947703.19208  18947706.53208         0.00001
 -33768512.28308 -26313087.27008  18258481.12308  18258483.43608         0.00001
 93 04 17 02 06 00.0000000  0  5 24 12 20 16 13
 -40135579.88308 -31274435.47008  15821298.72008  15821299.85708         0.00001
 -34649048.10508 -26999245.66408  16628958.10008  16628960.37808         0.00001
 -13641962.59808 -10630093.76508  18293764.80908  18293766.94608         0.00001
  -7023099.86708  -5472536.81808  18853357.96908  18853361.19408         0.00001
 -33641574.80308 -26214174.99908  18282636.58608  18282638.93208         0.00001
 93 04 17 02 08 00.0000000  0  5 24 12 20 16 13
 -40175686.46108 -31305687.31308  15813666.68208  15813667.78508         0.00001
 -34659388.62908 -27007303.25108  16626990.41808  16626992.71008         0.00001
 -14144943.74608 -11022026.97608  18198050.57608  18198052.59908         0.00001
  -7517280.11308  -5857611.89208  18759318.30608  18759321.32608         0.00001
 -33514699.14508 -26115310.87708  18306780.26508  18306782.57308         0.00001
 93 04 17 02 10 00.0000000  0  5 24 12 20 16 13
 -40208078.30208 -31330927.67408  15807502.70708  15807503.76708         0.00001
 -34659664.97908 -27007518.63308  16626937.88508  16626940.11208         0.00001
 -14645062.35808 -11411729.56708  18102880.98808  18102883.06208         0.00001
  -8009522.87208  -6241177.24608  18665647.25008  18665650.09008         0.00001
 -33387808.23308 -26016434.83608  18330926.78108  18330929.14708         0.00001
 93 04 17 02 12 00.0000000  0  5 24 12 20 16 13
 -40232861.45208 -31350239.17408  15802786.63308  15802787.65808         0.00001
 -34649899.30608 -26999909.05108  16628796.21008  16628798.48208         0.00001
 -15142112.90108 -11799041.42908  18008295.17608  18008297.21308         0.00001
  -8499495.89108  -6622973.97908  18572408.04808  18572410.90408         0.00001
 -33260886.35508 -25917534.64908  18355079.23008  18355081.57808         0.00001
 93 04 17 02 14 00.0000000  0  5 24 12 20 16 13
 -40249941.00908 -31363547.86808  15799536.46708  15799537.48608         0.00001
 -34630275.83608 -26984618.05708  16632530.45008  16632532.75408         0.00001
 -15636043.28108 -12183922.02408  17914303.17908  17914305.15908         0.00001
  -8986826.09408  -7002711.37008  18479671.87308  18479674.63608         0.00001
 -33134067.14308 -25818714.48308  18379212.11808  18379214.45308         0.00001
 93 04 17 02 16 00.0000000  0  5 24 12 20 16 13
 -40259511.39108 -31371005.24808  15797715.16908  15797716.22508         0.00001
 -34600823.58208 -26961668.26608  16638135.06008  16638137.35008         0.00001
 -16126638.73508 -12566204.01008  17820945.88008  17820947.79008         0.00001
  -9471553.10608  -7380420.30508  18387431.04108  18387433.77608         0.00001
 -33007319.30608 -25719949.96808  18403331.46308  18403333.73308         0.00001
 93 04 17 02 18 00.0000000  0  5 24 12 20 16 13
 -40261689.30308 -31372702.26608  15797300.68608  15797301.71808         0.00001
 -34561642.50808 -26931137.58008  16645591.03808  16645593.26708         0.00001
 -16613747.45608 -12945769.08508  17728252.06308  17728253.90508         0.00001
  -9953553.74108  -7756004.81508  18295709.11508  18295711.72708         0.00001
 -32880677.19808 -25621267.84107  18427430.66708  18427432.95007         0.00001
 93 04 17 02 20 00.0000000  0  5 24 12 20 16 13
 -40256714.01908 -31368825.37308  15798247.42608  15798248.41608         0.00001
 -34512892.17908 -26893150.33508  16654867.90208  16654870.17108         0.00001
 -17097266.95508 -13322537.35008  17636241.09008  17636243.05208         0.00001
 -10432673.77108  -8129344.72408  18204535.32308  18204537.87108         0.00001
 -32754222.47408 -25522731.68507  18451494.14008  18451496.35607         0.00001
 93 04 17 02 22 00.0000000  0  5 24 12 20 16 13
 -40245198.26309 -31359852.01608  15800438.79109  15800439.77608         0.00001
 -34454838.66808 -26847913.86608  16665915.12008  16665917.40808         0.00001
 -17577196.41008 -13696508.17208  17544913.46808  17544915.32308         0.00001
 -10908895.55108  -8500426.26408  18113913.13008  18113915.53408         0.00001
 -32628134.48108 -25424481.27907  18475487.77508  18475490.18407         0.00001
 93 04 17 02 24 00.0000000  0  5 24 12 20 16 13
 -40226820.58009 -31345531.70508  15803935.95409  15803936.92208         0.00001
 -34387655.63608 -26795563.48708  16678699.63608  16678701.94308         0.00001
 -18053432.49408 -14067601.05708  17454288.64308  17454290.49108         0.00001
 -11381878.41708  -8868983.98908  18023907.25008  18023909.47008         0.00001
 -32502491.78008 -25326577.86307  18499396.73708  18499399.17907         0.00001
 93 04 17 02 26 00.0000000  0  5 24 20 16 12 13
 -40201475.88809 -31325782.55108  15808758.84509  15808759.80608         0.00001
 -18525790.24508 -14435671.87308  17364401.80308  17364403.61908         0.00001
 -11851693.84808  -9235073.60008  17934504.10308  17934506.19808         0.00001
 -34311441.25508 -26736175.68608  16693202.78308  16693205.07408         0.00001
 -32377286.90708 -25229015.62207  18523222.53108  18523224.89907         0.00001
 93 04 17 02 28 00.0000000  0  5 24 20 16 12 13
 -40169797.48609 -31301098.04108  15814787.01409  15814787.95608         0.00001
 -18994192.12508 -14800660.19408  17275267.76908  17275269.51308         0.00001
 -12317666.38008  -9598168.73908  17845832.17808  17845834.22008         0.00001
 -34226406.78808 -26669915.08308  16709384.36008  16709386.60608         0.00001
 -32252618.13108 -25131871.10007  18546946.28208  18546948.59907         0.00001
 93 04 17 02 30 00.0000000  0  5 24 20 16 12 13
 -40131628.13809 -31271355.66708  15822050.32909  15822051.25608         0.00001
 -19458492.39908 -15162452.43708  17186914.28408  17186915.95508         0.00001
 -12779882.38008  -9958336.72908  17757875.18108  17757877.19408         0.00001
 -34132704.76308 -26596900.53508  16727215.26308  16727217.50508         0.00001
 -32128518.76808 -25035170.27607  18570561.60608  18570563.90007         0.00001
 93 04 17 02 32 00.0000000  0  5 24 20 16 12 13
 -40087477.61809 -31236952.64308  15830451.93509  15830452.80908         0.00001
 -19918417.70408 -15520835.61208  17099393.28908  17099394.85108         0.00001
 -13238167.51008 -10315441.70908  17670666.12008  17670668.01508         0.00001
 -34030363.85108 -26517154.39508  16746690.11308  16746692.33108         0.00001
 -32004886.74208 -24938833.62307  18594087.99808  18594090.24707         0.00001
 93 04 17 02 34 00.0000000  0  5 24 20 16 12 13
 -40037143.54509 -31197731.24208  15840030.13809  15840031.04208         0.00001
 -20373877.19808 -15875738.94608  17012722.11708  17012723.62108         0.00001
 -13692633.98808 -10669571.13208  17584183.73008  17584185.69808         0.00001
 -33919601.09608 -26430845.76908  16767767.58408  16767769.81608         0.00001
 -31881803.04908 -24842924.26107  18617510.12308  18617512.28207         0.00001
 93 04 17 02 36 00.0000000  0  6 24 20 16 12 13 03
 -39980768.13708 -31153802.28408  15850757.94408  15850758.87908         0.00001
 -20824552.64308 -16226914.47708  16926961.33308  16926962.76908         0.00001
 -14142551.01808 -11020155.52508  17498567.14508  17498569.04408         0.00001
 -33800414.75608 -26337973.29908  16790447.98608  16790450.24108         0.00001
 -31759120.07908 -24747327.13307  18640855.84108  18640858.04907         0.00001
        -0.26317        -0.87817  20481875.45217  20481881.06517         0.00011
 93 04 17 02 38 00.0000000  0  6 24 20 16 12 13 03
 -39918311.76908 -31105134.90808  15862642.85908  15862643.82508         0.00001
 -21270064.79308 -16574066.67108  16842183.02808  16842184.48408         0.00001
 -14587574.49208 -11366926.76408  17413881.77608  17413883.61008         0.00001
 -33672745.83308 -26238491.02808  16814742.56308  16814744.80308         0.00001
 -31636627.84508 -24651878.61007  18664165.17608  18664167.53907         0.00001
   -379966.62407   -296077.83307  20409569.82807  20409575.20507         0.00001
 93 04 17 02 40 00.0000000  0  6 24 20 16 12 13 03
 -39849896.28208 -31051824.08508  15875661.86108  15875662.81808         0.00001
 -21710381.68808 -16917170.61608  16758393.40408  16758394.80308         0.00001
 -15027725.18308 -11709901.03008  17330123.69008  17330125.40708         0.00001
 -33536886.82408 -26132626.88308  16840595.62308  16840597.93108         0.00001
 -31514457.56008 -24556680.92807  18687413.33708  18687415.68407         0.00001
   -758169.06707   -590780.44807  20337599.57607  20337605.10707         0.00001
 93 04 17 02 42 00.0000000  0  6 24 20 16 12 13 03
 -39775811.16108 -30994095.38608  15889759.82708  15889760.76408         0.00001
 -22145450.27008 -17256184.94608  16675602.47908  16675603.86908         0.00001
 -15463013.16608 -12049086.17208  17247290.89808  17247292.61008         0.00001
 -33393114.82508 -26020596.78508  16867954.62908  16867956.86508         0.00001
 -31392721.51508 -24461821.60407  18710578.91008  18710581.20307         0.00001
  -1134758.57307   -884226.18707  20265936.64707  20265941.82007         0.00001
 93 04 17 02 44 00.0000000  0  6 20 16 12 24 13 03
 -22575076.07708 -17590958.13008  16593847.28708  16593848.66008         0.00001
 -15892946.02708 -12384098.51108  17165477.13308  17165478.77808         0.00001
 -33241570.15508 -25902510.06008  16896792.64508  16896794.88408         0.00001
 -39696140.78008 -30932014.54508  15904920.61608  15904921.51608         0.00001
 -31271385.88308 -24367274.29407  18733668.36108  18733670.43507         0.00001
  -1509745.42507  -1176423.02407  20194578.52007  20194583.58807         0.00001
 93 04 17 02 46 00.0000000  0  6 20 16 12 24 13 03
 -22998604.75108 -17920980.29908  16513252.36808  16513253.62708         0.00001
 -16316737.95008 -12714325.73208  17084832.00608  17084833.65008         0.00001
 -33081935.41708 -25778119.37708  16927170.06508  16927172.35208         0.00001
 -39610400.24208 -30865203.71308  15921236.44608  15921237.32808         0.00001
 -31149955.91508 -24272653.49907  18756775.65908  18756777.85407         0.00001
  -1882680.04707  -1467020.72607  20123610.83007  20123615.67007         0.00001
 93 04 17 02 48 00.0000000  0  6 20 16 12 24 13 03
 -23415778.13108 -18246050.29408  16433866.77308  16433868.00008         0.00001
 -16734518.34508 -13039868.66908  17005330.89308  17005332.45408         0.00001
 -32914296.41208 -25647491.60808  16959070.75208  16959072.98808         0.00001
 -39519135.69508 -30794088.45708  15938603.43808  15938604.31208         0.00001
 -31028329.08408 -24177879.29507  18779920.49008  18779922.53007         0.00001
  -2253512.50207  -1755980.42707  20053043.18307  20053047.90007         0.00001
 93 04 17 02 50 00.0000000  0  6 20 16 12 24 13 03
 -23826745.65808 -18566284.56908  16355662.09108  16355663.34208         0.00001
 -17146444.03208 -13360849.49408  16926943.88208  16926945.41108         0.00001
 -32739148.02108 -25511012.34508  16992400.46808  16992402.67008         0.00001
 -39422500.12808 -30718787.98608  15956992.60808  15956993.45508         0.00001
 -30906809.92108 -24083188.98107  18803044.79508  18803046.85007         0.00001
  -2622598.64307  -2043579.38507  19982808.00007  19982812.63107         0.00001
 93 04 17 02 52 00.0000000  0  6 20 16 12 24 03 13
 -24231567.14008 -18881729.73808  16278627.03608  16278628.21308         0.00001
 -17552446.76008 -13677215.02308  16849683.90308  16849685.31508         0.00001
 -32556896.71908 -25368998.34208  17027081.73708  17027083.94308         0.00001
 -39320445.91308 -30639265.17908  15976412.79708  15976413.66408         0.00001
  -2990203.77607  -2330024.39907  19912854.65907  19912859.11507         0.00001
 -30785608.47508 -23988746.23907  18826108.62408  18826110.75907         0.00001
 93 04 17 02 54 00.0000000  0  6 20 16 12 24 03 13
 -24629882.52508 -19192105.23108  16202830.04608  16202831.15208         0.00001
 -17951876.21508 -13988458.54008  16773674.87608  16773676.20308         0.00001
 -32367533.74608 -25221442.78008  17063116.32908  17063118.54508         0.00001
 -39213263.77808 -30555746.57508  15996808.81408  15996809.67008         0.00001
  -3356174.48407  -2615195.98107  19843212.40907  19843216.80907         0.00001
 -30664513.46908 -23894386.43907  18849152.26108  18849154.38307         0.00001
 93 04 17 02 56 00.0000000  0  6 20 16 12 03 24 13
 -25021255.73508 -19497071.21708  16128354.11808  16128355.16508         0.00001
 -18344507.18108 -14294404.54608  16698959.58408  16698960.80808         0.00001
 -32170974.86308 -25068280.03008  17100520.21208  17100522.45608         0.00001
  -3720280.00607  -2898914.21107  19773925.24707  19773929.51007         0.00001
 -39101205.69108 -30468428.51808  16018132.71208  16018133.55908         0.00001
 -30543231.70908 -23799881.13407  18872231.34408  18872233.46607         0.00001
 93 04 17 02 58 00.0000000  0  6 20 16 12 03 24 13
 -25405304.02008 -19796329.44508  16055272.03108  16055273.02308         0.00001
 -18730019.68908 -14594803.69908  16625598.78108  16625600.04208         0.00001
 -31967192.19408 -24909488.36008  17139298.81008  17139300.97608         0.00001
  -4082342.28507  -3181040.26607  19705026.87207  19705031.00407         0.00001
 -38983538.29608 -30376739.58108  16040524.00308  16040524.84008         0.00001
 -30421522.32408 -23705042.58907  18895391.84708  18895393.90707         0.00001
 93 04 17 03 00 00.0000000  0  6 20 16 12 03 24 13
 -25781919.61008 -20089795.96408  15983604.31608  15983605.30308         0.00001
 -19108144.54208 -14889446.25308  16553643.88108  16553645.03508         0.00001
 -31756434.74708 -24745261.78708  17179404.64708  17179406.82908         0.00001
  -4442458.71307  -3461650.08307  19636498.62107  19636502.71707         0.00001
 -38860569.63708 -30280919.80008  16063924.11308  16063924.94508         0.00001
 -30299417.55008 -23609895.96407  18918627.41808  18918629.58907         0.00001
 93 04 17 03 02 00.0000000  0  6 20 16 12 03 24 13
 -26150650.67808 -20377118.71608  15913437.02308  15913437.98308         0.00001
 -19478184.09108 -15177788.57908  16483227.55908  16483228.66208         0.00001
 -31538607.16408 -24575526.05008  17220855.79208  17220858.08908         0.00001
  -4800380.73207  -3740550.06707  19568388.12007  19568392.10007         0.00001
 -38732979.12608 -30181498.57808  16088203.77108  16088204.57608         0.00001
 -30176599.86208 -23514193.81607  18941998.86708  18942000.90507         0.00001
 93 04 17 03 04 00.0000000  0  6 20 16 12 24 03 13
 -26510968.16308 -20657885.45508  15844870.75208  15844871.74108         0.00001
 -19839870.73808 -15459622.14508  16414400.67108  16414401.77608         0.00001
 -31313537.49908 -24400147.13808  17263685.13608  17263687.44608         0.00001
 -38599520.57008 -30077504.84708  16113600.06208  16113600.85008         0.00001
  -5155779.62007  -4017484.06207  19500757.73807  19500761.73407         0.00001
 -30052673.15708 -23417627.49707  18965581.28208  18965583.42107         0.00001
 93 04 17 03 06 00.0000000  0  6 20 16 12 24 03 13
 -26862591.27708 -20931877.36508  15777959.01008  15777959.92308         0.00001
 -20193336.02508 -15735049.47208  16347138.36108  16347139.43408         0.00001
 -31081301.88008 -24219184.36308  17307878.19908  17307880.44208         0.00001
 -38460273.17208 -29969000.32908  16140097.89008  16140098.68608         0.00001
  -5508573.83607  -4292388.40607  19433623.09207  19433626.95607         0.00001
 -29927482.06108 -23320075.94107  18989404.28608  18989406.38607         0.00001
 93 04 17 03 08 00.0000000  0  6 20 16 12 24 03 13
 -27205486.00208 -21199067.93908  15712708.23108  15712709.06908         0.00001
 -20538139.37608 -16003727.23808  16281524.38708  16281525.35008         0.00001
 -30842224.76308 -24032890.55108  17353373.11608  17353375.30608         0.00001
 -38316033.34608 -29856605.60508  16167545.75108  16167546.55308         0.00001
  -5858928.01707  -4565391.37207  19366952.59707  19366956.43407         0.00001
 -29801117.39808 -23221609.89007  19013450.50708  19013452.62007         0.00001
 93 04 17 03 10 00.0000000  0  6 20 16 12 24 03 13
 -27539700.91408 -21459495.00808  15649109.13908  15649109.96608         0.00001
 -20873918.56408 -16265373.19008  16217627.63508  16217628.52708         0.00001
 -30596710.21408 -23841580.55008  17400092.88308  17400095.20908         0.00001
 -38166797.48608 -29740317.87608  16195944.38408  16195945.14208         0.00001
  -6207084.52507  -4836681.83808  19300700.47507  19300704.15508         0.00001
 -29673748.28508 -23122361.12907  19037688.06008  19037690.11707         0.00001
 93 04 17 03 12 00.0000000  0  6 20 16 12 24 03 13
 -27865010.81208 -21712983.09408  15587204.61608  15587205.35608         0.00001
 -21200877.47608 -16520146.20508  16155409.25108  16155410.12408         0.00001
 -30344888.87308 -23645356.17108  17448012.89308  17448015.28708         0.00001
 -38012661.65808 -29620212.00408  16225275.46808  16225276.17308         0.00001
  -6553010.70607  -5106234.31508  19234872.51807  19234876.12908         0.00001
 -29545264.43308 -23022243.75207  19062137.69508  19062139.59307         0.00001
 93 04 17 03 14 00.0000000  0  7 20 16 12 24 03 17 13
 -28181205.49108 -21959368.41508  15527034.64008  15527035.34408         0.00001
 -21518887.44208 -16767946.02308  16094893.83008  16094894.73908         0.00001
 -30086904.92708 -23444329.77508  17497105.67208  17497108.08608         0.00001
 -37853584.04308 -29496255.38808  16255546.90008  16255547.55508         0.00001
  -6896685.94707  -5374032.72908  19169472.89707  19169476.55008         0.00001
        -0.58917        -0.04817  19780573.43217  19780578.35417         0.00011
 -29415567.07408 -22921180.77107  19086818.18808  19086820.24707         0.00001
 93 04 17 03 16 00.0000000  0  7 20 16 12 24 03 17 13
 -28488053.99708 -22198471.00308  15468643.17208  15468643.89208         0.00001
 -21827636.48408 -17008529.54408  16036140.70408  16036141.53608         0.00001
 -29822878.96408 -23238595.30108  17547348.20108  17547350.61308         0.00001
 -37690010.98708 -29368795.81908  16286673.73508  16286674.36208         0.00001
  -7238064.54808  -5640041.57608  19104510.45208  19104513.98808         0.00001
   -492633.67907   -383868.86507  19686827.43507  19686832.19007         0.00001
 -29284534.01008 -22819076.97307  19111752.83908  19111754.90307         0.00001
 93 04 17 03 18 00.0000000  0  7 20 16 12 24 03 17 13
 -28785287.52408 -22430081.41108  15412081.41008  15412082.07508         0.00001
 -22126569.77808 -17241464.43508  15979255.54608  15979256.34408         0.00001
 -29552893.52908 -23028217.08508  17598724.77108  17598727.17808         0.00001
 -37521377.42708 -29237392.99808  16318763.58908  16318764.25408         0.00001
  -7577061.83708  -5904194.93908  19040001.20208  19040004.47408         0.00001
   -981245.61107   -764604.25707  19593846.85107  19593851.35207         0.00001
 -29151996.66908 -22715800.98607  19136973.84008  19136975.61807         0.00001
 93 04 17 03 20 00.0000000  0  7 20 16 12 24 03 17 13
 -29072880.04408 -22654179.35708  15357354.30608  15357354.92008         0.00001
 -22415953.34508 -17466957.99208  15924187.59208  15924188.34108         0.00001
 -29277269.84308 -22813445.41408  17651174.25308  17651176.59508         0.00001
 -37348111.77908 -29102380.76308  16351734.86708  16351735.58608         0.00001
  -7913830.21308  -6166611.51108  18975915.96908  18975919.31808         0.00001
  -1465589.06307  -1142013.56407  19501678.48607  19501682.61607         0.00001
 -29018029.16107 -22611410.62807  19162466.86007  19162468.60807         0.00001
 93 04 17 03 22 00.0000000  0  7 20 16 24 12 03 17 13
 -29350612.53408 -22870594.17308  15304503.47908  15304504.07208         0.00001
 -22695202.69708 -17684554.76308  15871048.11508  15871048.76508         0.00001
 -37170712.05408 -28964147.17408  16385492.86308  16385493.53808         0.00001
 -28996134.11008 -22594378.64708  17704672.69508  17704674.94308         0.00001
  -8248325.77908  -6427257.03608  18912263.32508  18912266.53508         0.00001
  -1945875.04208  -1516261.27107  19410282.23508  19410286.05507         0.00001
 -28882507.38107 -22505809.13707  19188255.64707  19188257.61307         0.00001
 93 04 17 03 24 00.0000000  0  7 20 16 24 12 03 17 13
 -29618469.81708 -23079314.03008  15253531.85708  15253532.37708         0.00001
 -22964833.02008 -17894656.20008  15819739.03608  15819739.67508         0.00001
 -36988720.76908 -28822335.74508  16420124.68308  16420125.27908         0.00001
 -28709812.83508 -22371271.19308  17759157.76908  17759160.17308         0.00001
  -8580703.03608  -6686251.96908  18849013.77608  18849016.87608         0.00001
  -2422168.51308  -1887398.12907  19319645.93008  19319649.41507         0.00001
 -28745500.76307 -22399050.63307  19214326.95507  19214329.08107         0.00001
 93 04 17 03 26 00.0000000  0  7 20 16 24 12 03 17 13
 -29876345.51608 -23280256.04008  15204459.66008  15204460.16108         0.00001
 -23224659.22408 -18097118.06808  15770295.66008  15770296.23508         0.00001
 -36802524.88008 -28677248.00308  16455556.59708  16455557.16708         0.00001
 -28418536.83108 -22144302.91708  17814585.73708  17814588.17308         0.00001
  -8911022.22708  -6943643.26908  18786155.98708  18786158.93408         0.00001
  -2894334.71207  -2255319.12207  19229795.13107  19229798.51607         0.00001
 -28606987.86607 -22291118.40207  19240684.93107  19240687.03207         0.00001
 93 04 17 03 28 00.0000000  0  7 20 16 24 12 03 17 13
 -30123865.65908 -23473128.78408  15157358.03308  15157358.57808         0.00001
 -23474319.84608 -18291658.70508  15722786.72908  15722787.27708         0.00001
 -36612397.40308 -28529096.69508  16491736.60408  16491737.19308         0.00001
 -28122267.02708 -21913443.38808  17870964.06908  17870966.48608         0.00001
  -9239069.88308  -7199264.55308  18723730.40608  18723733.17808         0.00001
  -3361997.97407  -2619731.50107  19140801.17507  19140804.76807         0.00001
 -28466672.97107 -22181782.01707  19267385.98607  19267387.77007         0.00001
 93 04 17 03 30 00.0000000  0  7 20 16 24 12 03 17 13
 -30360757.49008 -23657719.73308  15112278.93008  15112279.44808         0.00001
 -23713235.19708 -18477826.40508  15677322.52408  15677323.10008         0.00001
 -36417892.71208 -28377534.56808  16528749.56408  16528750.18308         0.00001
 -27821061.72208 -21678738.00208  17928281.61608  17928283.94408         0.00001
  -9564730.36708  -7453025.69508  18661759.01608  18661761.75708         0.00001
  -3824918.38607  -2980448.21508  19052709.95207  19052713.47608         0.00001
 -28324358.15907 -22070887.28207  19294467.52907  19294469.39207         0.00001
 93 04 17 03 32 00.0000000  0  7 20 16 24 03 17 12 13
 -30587042.76108 -23834045.83508  15069218.22108  15069218.67808         0.00001
 -23941280.20208 -18655523.70608  15633926.95508  15633927.48008         0.00001
 -36219381.93308 -28222850.81908  16566524.81308  16566525.47608         0.00001
  -9888174.21308  -7705059.58808  18600209.51608  18600212.22508         0.00001
  -4283070.53908  -3337449.47708  18965526.29208  18965529.47808         0.00001
 -27515265.89008 -21440455.59108  17986472.68608  17986474.99308         0.00001
 -28180130.64008 -21958502.10807  19321913.16708  19321914.82907         0.00001
 93 04 17 03 34 00.0000000  0  7 20 16 24 03 17 12 13
 -30802746.67908 -24002126.73108  15028171.05808  15028171.51008         0.00001
 -24158708.96408 -18824948.60908  15592551.53508  15592552.06008         0.00001
 -36016902.87208 -28065074.91408  16605055.25308  16605055.94308         0.00001
 -10209570.57308  -7955497.99308  18539049.52608  18539052.22708         0.00001
  -4736587.19008  -3690838.71608  18879224.71508  18879227.76908         0.00001
 -27205225.10008 -21198865.43608  18045471.47908  18045473.79008         0.00001
 -28034076.38108 -21844693.47907  19349706.21908  19349707.93007         0.00001
 93 04 17 03 36 00.0000000  0  7 16 24 03 17 20 12 13
 -24365945.68008 -18986431.66008  15553115.63108  15553116.10908         0.00001
 -35810558.77708 -27904287.29608  16644321.26308  16644321.87108         0.00001
 -10528919.41208  -8204340.91408  18478279.17608  18478281.75608         0.00001
  -5185514.35508  -4040651.69208  18793796.46008  18793799.38908         0.00001
 -31007731.12008 -24161854.79708  14989163.76008  14989164.21008         0.00001
 -26891114.76908 -20954104.21808  18105244.67908  18105247.12508         0.00001
 -27886111.64007 -21729396.19307  19377862.87907  19377864.54307         0.00001
 93 04 17 03 38 00.0000000  0  7 16 24 03 20 17 12 13
 -24562454.52008 -19139555.33408  15515721.14208  15515721.62508         0.00001
 -35600572.76408 -27740661.82108  16684280.31408  16684280.87708         0.00001
 -10846358.35108  -8451695.63008  18417872.35008  18417874.80708         0.00001
 -31201998.97308 -24313232.28408  14952195.79208  14952196.19308         0.00001
  -5629853.24608  -4386889.28408  18709241.14408  18709243.92008         0.00001
 -26573249.12108 -20706416.79508  18165732.48208  18165735.05608         0.00001
 -27736293.55907 -21612654.75906  19406372.28007  19406373.93406         0.00001
 93 04 17 03 40 00.0000000  0  8 16 24 03 20 17 12 25 13
 -24748337.27508 -19284398.94808  15480348.72608  15480349.20608         0.00001
 -35387510.71508 -27574639.43708  16724824.63708  16724825.19208         0.00001
 -11162035.73108  -8697677.76808  18357800.73808  18357803.09808         0.00001
 -31385572.96008 -24456276.88708  14917262.75308  14917263.14608         0.00001
  -6069812.63708  -4729714.20408  18625519.31408  18625521.93508         0.00001
 -26251954.80508 -20456057.69108  18226872.90108  18226875.38008         0.00001
        -0.08717        -0.46417  19452337.10817  19452338.98517         0.00011
 -27584691.01807 -21494522.82406  19435221.09407  19435222.84406         0.00001
 93 04 17 03 42 00.0000000  0  8 16 24 03 20 17 12 25 13
 -24923408.24008 -19420817.79908  15447033.67008  15447034.09808         0.00001
 -35171353.50808 -27406205.24408  16765957.98008  16765958.48508         0.00001
 -11476028.27708  -8942347.08308  18298049.73208  18298052.21608         0.00001
 -31558412.41208 -24590956.92208  14884372.42408  14884372.81808         0.00001
  -6505052.06808  -5068861.22508  18542695.46508  18542697.97408         0.00001
 -25927486.83408 -20203225.60108  18288617.16308  18288619.65308         0.00001
   -174360.32407   -135865.63607  19419157.59207  19419159.56707         0.00001
 -27431295.57507 -21374993.81306  19464411.37707  19464412.83506         0.00001
 93 04 17 03 44 00.0000000  0  8 16 24 03 20 17 12 25 13
 -25087913.19108 -19549003.39208  15415729.38708  15415729.83708         0.00001
 -34951786.32008 -27235113.92408  16807740.23608  16807740.78108         0.00001
 -11788436.41008  -9185781.76708  18238600.22608  18238602.74908         0.00001
 -31720505.72208 -24717263.33908  14853527.06308  14853527.44708         0.00001
  -6935454.24508  -5404239.00508  18460792.17408  18460794.65908         0.00001
 -25600123.90308 -19948137.70908  18350912.40008  18350914.81908         0.00001
   -339165.19607   -264285.02807  19387796.49007  19387798.30007         0.00001
 -27276130.52007 -21254085.84906  19493938.20107  19493939.32406         0.00001
 93 04 17 03 46 00.0000000  0  8 16 24 03 20 17 12 25 13
 -25241721.92208 -19668854.27208  15386460.62208  15386460.91008         0.00001
 -34729577.10108 -27061963.88208  16850025.20108  16850025.81508         0.00001
 -12099406.58508  -9428095.92308  18179424.33708  18179426.80008         0.00001
 -31871894.33808 -24835228.44108  14824718.71108  14824719.07408         0.00001
  -7361361.62208  -5736114.39308  18379744.29708  18379746.64308         0.00001
 -25270191.66908 -19691047.76508  18413696.56208  18413698.95308         0.00001
   -494541.17307   -385357.26507  19358229.35007  19358231.24207         0.00001
 -27119264.70007 -21131852.65006  19523788.66207  19523790.20506         0.00001
 93 04 17 03 48 00.0000000  0  7 16 24 03 20 17 12 25
 -25384698.48908 -19780264.52208  15359253.01708  15359253.30108         0.00001
 -34504911.05708 -26886899.42808  16892777.71208  16892778.35908         0.00001
 -12408910.36008  -9669267.40608  18120527.57808  18120529.88508         0.00001
 -32012450.73608 -24944752.86108  14797971.67108  14797972.04108         0.00001
  -7782814.17108  -6064518.53408  18299544.29508  18299546.49708         0.00001
 -24937841.79608 -19432073.97508  18476940.74708  18476943.19308         0.00001
   -640812.09707   -499334.75708  19330394.94307  19330397.47808         0.00001
 93 04 17 03 50 00.0000000  0  7 16 24 03 20 17 12 25
 -25517189.66208 -19883504.35008  15334040.70308  15334041.05408         0.00001
 -34277532.13408 -26709721.03708  16936046.44508  16936047.12008         0.00001
 -12717051.58208  -9909377.15708  18061890.05608  18061892.28108         0.00001
 -32142190.75308 -25045848.93608  14773282.96908  14773283.30208         0.00001
  -8199517.02508  -6389221.64408  18220248.05608  18220250.17308         0.00001
 -24603357.74308 -19171437.19608  18540591.01408  18540593.56808         0.00001
   -777854.40007   -606121.08707  19304316.88707  19304318.92907         0.00001
 93 04 17 03 52 00.0000000  0  7 16 24 03 17 20 12 25
 -25639421.17308 -19978749.63308  15310780.80408  15310781.14408         0.00001
 -34047748.22008 -26530668.63908  16979772.86808  16979773.50608         0.00001
 -13024114.14908 -10148646.42308  18003457.77408  18003459.94408         0.00001
  -8612140.53008  -6710746.05208  18141728.07508  18141730.11508         0.00001
 -32261314.44208 -25138672.56208  14750614.45508  14750614.79508         0.00001
 -24267204.12208 -18909499.49708  18604558.98108  18604561.66208         0.00001
   -905702.90107   -705743.35107  19279988.04407  19279989.67407         0.00001
 93 04 17 03 54 00.0000000  0  7 16 24 03 17 20 12 25
 -25750945.47508 -20065651.64008  15289558.41908  15289558.72008         0.00001
 -33815914.01908 -26350018.61708  17023889.50508  17023890.13908         0.00001
 -13330157.65508 -10387121.63808  17945219.50808  17945221.56208         0.00001
  -9020292.12508  -7028785.87808  18064059.20808  18064061.07508         0.00001
 -32369808.17508 -25223213.11008  14729968.75308  14729969.04308         0.00001
 -23929621.95608 -18646448.67408  18668798.89708  18668801.66508         0.00001
  -1024661.17407   -798438.16307  19257351.13807  19257352.93307         0.00001
 93 04 17 03 56 00.0000000  0  7 16 24 03 17 20 12 25
 -25851997.74608 -20144393.61208  15270328.75108  15270329.06708         0.00001
 -33582229.71208 -26167926.95108  17068358.14608  17068358.71308         0.00001
 -13635228.75808 -10624839.14708  17887166.21808  17887168.21808         0.00001
  -9423705.98608  -7343133.97208  17987291.76608  17987293.56508         0.00001
 -32467653.14908 -25299455.92208  14711349.47508  14711349.74808         0.00001
 -23590838.80408 -18382462.05908  18733267.38008  18733270.11608         0.00001
  -1134653.93007   -884146.91307  19236421.64707  19236422.55207         0.00001
 93 04 17 03 58 00.0000000  0  7 16 03 17 12 20 24 25
 -25942541.19708 -20214946.89808  15253098.81808  15253099.14008         0.00001
 -13939417.41408 -10861869.04508  17829280.82008  17829282.76008         0.00001
  -9822944.86008  -7654228.82808  17911318.70108  17911320.46008         0.00001
 -23251126.04308 -18117751.07708  18797912.74508  18797915.50508         0.00001
 -32554881.53508 -25367426.06608  14694750.45008  14694750.72708         0.00001
 -33346680.95908 -25984382.47208  17113181.52908  17113182.08908         0.00001
  -1236056.75807   -963162.21107  19217124.17507  19217125.83607         0.00001
 93 04 17 04 00 00.0000000  0  7 16 03 17 20 12 24 25
 -26022831.50808 -20277510.72708  15237820.04308  15237820.36108         0.00001
 -14242859.21908 -11098316.97008  17771537.69008  17771539.55408         0.00001
 -10217966.72208  -7962037.70208  17836148.28608  17836149.97808         0.00001
 -32631580.87408 -25427191.76708  14680155.00408  14680155.33408         0.00001
 -22910801.94508 -17852563.74107  18862674.42208  18862677.19507         0.00001
 -33109420.59608 -25799504.26908  17158330.73008  17158331.25408         0.00001
  -1328662.72707  -1035322.79507  19199501.50607  19199503.48207         0.00001
 93 04 17 04 02 00.0000000  0  7 16 03 17 20 12 24 25
 -26092611.54608 -20331884.73708  15224541.33908  15224541.60708         0.00001
 -14545574.39108 -11334198.68908  17713932.73008  17713934.48308         0.00001
 -10608680.21908  -8266489.41808  17761797.87208  17761799.32008         0.00001
 -32697729.58908 -25478736.20608  14667567.33108  14667567.63908         0.00001
 -22570068.44208 -17587057.38207  18927514.10408  18927517.00407         0.00001
 -32870636.83608 -25613439.00408  17203769.83308  17203770.36208         0.00001
  -1412476.85707  -1100632.57907  19183552.72007  19183554.33007         0.00001
 93 04 17 04 04 00.0000000  0  7 16 03 17 20 12 24 25
 -26152250.23708 -20378356.40408  15213192.42208  15213192.68908         0.00001
 -14847689.63208 -11569612.95908  17656441.85708  17656443.63508         0.00001
 -10995065.87908  -8567568.82208  17688270.87408  17688272.22908         0.00001
 -32753423.83808 -25522134.31908  14656969.07808  14656969.32108         0.00001
 -22229234.91208 -17321473.10207  18992372.78108  18992375.78207         0.00001
 -32630591.77508 -25426390.92208  17249448.89808  17249449.42708         0.00001
  -1487876.14207  -1159385.31907  19169204.46007  19169206.67907         0.00001
 93 04 17 04 06 00.0000000  0  6 16 03 17 12 24 20
 -26201620.22008 -20416826.47208  15203797.56708  15203797.85908         0.00001
 -15149294.27608 -11804629.37308  17599048.22008  17599050.05608         0.00001
 -11377299.59408  -8865412.98508  17615534.04008  17615535.23808         0.00001
 -21888573.95308 -17056023.30007  19057198.61508  19057201.67307         0.00001
 -32389297.33208 -25238369.29508  17295365.69408  17295366.20108         0.00001
 -32798730.33808 -25557438.07908  14648347.52208  14648347.75208         0.00001
 93 04 17 04 08 00.0000000  0  6 16 03 17 20 12 24
 -26241185.88508 -20447656.81908  15196268.38908  15196268.69808         0.00001
 -15450514.81908 -12039346.49408  17541727.70008  17541729.54308         0.00001
 -11755396.92708  -9160034.02908  17543584.26308  17543585.47008         0.00001
 -32833761.87708 -25584735.37908  14641681.22708  14641681.50408         0.00001
 -21548395.29608 -16790949.34607  19121932.77708  19121935.83607         0.00001
 -32146824.29208 -25049429.27808  17341506.78108  17341507.29708         0.00001
 93 04 17 04 10 00.0000000  0  7 16 03 17 20 12 24 25
 -26270941.63908 -20470843.09208  15190606.03908  15190606.33108         0.00001
 -15751514.72008 -12273891.69208  17484449.21008  17484450.96808         0.00001
 -12129541.09408  -9451574.70508  17472386.78508  17472387.97908         0.00001
 -32858676.20308 -25604149.13608  14636940.21408  14636940.46008         0.00001
 -21209045.53607 -16526521.31507  19186509.10807  19186512.30007         0.00001
 -31903694.65708 -24859977.63508  17387772.82108  17387773.31608         0.00001
        -0.49617        -0.42817  19135527.51517  19135529.25617         0.00011
 93 04 17 04 12 00.0000000  0  7 16 03 20 17 12 24 25
 -26290929.28808 -20486417.85408  15186802.52108  15186802.80608         0.00001
 -16052422.03808 -12508364.75908  17427188.32708  17427189.99208         0.00001
 -32873607.45808 -25615783.88608  14634098.89508  14634099.10508         0.00001
 -12499682.64808  -9739996.48608  17401950.94608  17401952.14208         0.00001
 -20870837.37907 -16262982.80707  19250868.18407  19250871.51907         0.00001
 -31659980.41508 -24670070.46108  17434150.13508  17434150.64208         0.00001
    -43341.70807    -33772.90307  19127279.88507  19127282.10907         0.00001
 93 04 17 04 14 00.0000000  0  8 16 03 20 17 12 24 25 26
 -26301245.01708 -20494456.05208  15184839.45808  15184839.74508         0.00001
 -16353179.04108 -12742720.70308  17369956.08808  17369957.74708         0.00001
 -32878511.78808 -25619605.45108  14633165.62108  14633165.84908         0.00001
 -12866139.97708 -10025547.46808  17332216.36908  17332217.51508         0.00001
 -20533897.12407 -16000432.28007  19314986.11107  19314989.38107         0.00001
 -31415946.75308 -24479914.38908  17480588.22908  17480588.69308         0.00001
    -78919.33907    -61495.80907  19120510.01707  19120512.06407         0.00001
        -0.78917        -0.59117  19209964.70017  19209966.03117         0.00011
 93 04 17 04 16 00.0000000  0  8 16 03 20 17 12 24 25 26
 -26301824.09208 -20494907.24608  15184729.26408  15184729.51008         0.00001
 -16653903.79708 -12977051.53508  17312729.91508  17312731.50008         0.00001
 -32873530.11308 -25615723.63408  14634113.60208  14634113.84908         0.00001
 -13228608.76408 -10307990.50508  17263240.78808  17263241.87908         0.00001
 -20198527.48507 -15739105.62307  19378805.06107  19378808.54107         0.00001
 -31171227.59808 -24289224.16308  17527156.76508  17527157.19508         0.00001
   -106880.34707    -83283.64207  19115188.98107  19115191.37507         0.00001
   -348477.12807   -271540.09507  19143651.20907  19143652.68007         0.00001
 93 04 17 04 18 00.0000000  0  8 16 03 20 17 12 24 25 26
 -26293100.94608 -20488109.95708  15186389.19108  15186389.44908         0.00001
 -16954739.48508 -13211468.80508  17255482.66308  17255484.24308         0.00001
 -32858837.13108 -25604274.56708  14636909.64708  14636909.83908         0.00001
 -13587055.07308 -10587299.17108  17195030.56808  17195031.60808         0.00001
 -19865055.88807 -15479258.06607  19442262.96907  19442266.55107         0.00001
 -30926269.12808 -24098347.45808  17573770.77108  17573771.31208         0.00001
   -127982.03507    -99726.59307  19111173.43807  19111175.77507         0.00001
   -698812.46807   -544527.99208  19076984.21307  19076985.31308         0.00001
 93 04 17 04 20 00.0000000  0  8 16 03 20 17 12 24 25 26
 -26274977.00908 -20473987.38508  15189838.06808  15189838.31108         0.00001
 -17255694.48008 -13445979.03808  17198212.75508  17198214.32208         0.00001
 -32834484.61308 -25585298.60208  14641543.77908  14641544.02208         0.00001
 -13941889.93908 -10863793.72408  17127507.50608  17127508.63408         0.00001
 -19533677.09707 -15221041.28407  19505322.56907  19505326.35807         0.00001
 -30681189.01508 -23907375.97308  17620407.95408  17620408.58108         0.00001
   -141755.54607   -110459.29907  19108552.54307  19108554.91707         0.00001
  -1050928.35307   -818903.45908  19009978.38607  19009979.29908         0.00001
 93 04 17 04 22 00.0000000  0  8 16 03 20 17 12 24 25 26
 -26247530.47608 -20452600.46108  15195060.92108  15195061.16108         0.00001
 -17556866.61508 -13680658.47608  17140901.52608  17140903.03308         0.00001
 -32800620.39008 -25558910.91208  14647987.97908  14647988.19708         0.00001
 -14293139.42308 -11137494.46308  17060666.96008  17060667.92408         0.00001
 -19204672.65507 -14964674.85307  19567930.49107  19567934.34807         0.00001
 -30436197.83108 -23716473.78208  17667028.34008  17667028.84308         0.00001
   -148068.68507   -115378.71507  19107351.26807  19107353.67907         0.00001
  -1404661.47407  -1094539.15807  18942664.92007  18942665.62407         0.00001
 93 04 17 04 24 00.0000000  0  6 16 03 17 24 20 26
 -26211220.68408 -20424307.09508  15201970.39008  15201970.65108         0.00001
 -17858340.93008 -13915573.40008  17083532.78708  17083534.25708         0.00001
 -14640890.46608 -11408469.13208  16994491.99108  16994492.95708         0.00001
 -30191571.96408 -23525856.23808  17713579.14808  17713579.60408         0.00001
 -32757390.07308 -25525224.96608  14656214.40608  14656214.65208         0.00001
  -1760157.01307  -1371548.38507  18875016.21607  18875016.71807         0.00001
 93 04 17 04 26 00.0000000  0  7 16 03 17 12 24 20 26
 -26165651.21808 -20388798.40908  15210642.03608  15210642.21908         0.00001
 -18159823.25708 -14150494.57308  17026162.53508  17026163.94208         0.00001
 -14984596.14208 -11676291.57108  16929086.69008  16929087.77708         0.00001
        -0.94517        -0.99017  19691656.89617  19691661.16617         0.00011
 -29946608.02808 -23334975.26408  17760194.22708  17760194.67708         0.00001
 -32704569.10608 -25484065.79508  14666265.90708  14666266.14508         0.00001
  -2116968.32207  -1649582.90507  18807117.00907  18807117.77007         0.00001
 93 04 17 04 28 00.0000000  0  7 16 03 17 24 12 20 26
 -26110739.56308 -20346010.09008  15221091.36008  15221091.53608         0.00001
 -18461255.47008 -14385376.69508  16968801.83108  16968803.05808         0.00001
 -15324382.04508 -11941059.65808  16864427.52408  16864428.48308         0.00001
 -29701596.83408 -23144057.47108  17806818.35008  17806818.84208         0.00001
    321155.74907    250250.30307  19752771.44207  19752775.75107         0.00001
 -32642179.81308 -25435450.77908  14678138.23308  14678138.48108         0.00001
  -2474508.00107  -1928184.93807  18739079.21307  18739079.65407         0.00001
 93 04 17 04 30 00.0000000  0  7 16 03 17 24 12 20 26
 -26047133.87708 -20296447.20608  15233195.07208  15233195.36808         0.00001
 -18762641.90108 -14620223.15508  16911449.76008  16911450.95308         0.00001
 -15660315.80708 -12202826.09108  16800501.40708  16800502.20308         0.00001
 -29456829.78408 -22953329.91808  17853395.97708  17853396.49908         0.00001
    639456.51607    498276.06507  19813342.72307  19813347.23507         0.00001
 -32570315.49708 -25379452.63408  14691813.52308  14691813.83808         0.00001
  -2833151.62307  -2207647.38607  18670831.36307  18670832.16107         0.00001
 93 04 17 04 32 00.0000000  0  6 16 03 17 24 26 20
 -25974420.02208 -20239787.05608  15247032.08508  15247032.32408         0.00001
 -19063987.01508 -14855037.40708  16854105.55008  16854106.80808         0.00001
 -15992309.82308 -12461522.59208  16737324.89308  16737325.74108         0.00001
 -29212118.25108 -22762645.62508  17899962.94508  17899963.50808         0.00001
  -3192487.32908  -2487649.03607  18602451.95908  18602452.52907         0.00001
 -32489076.59808 -25316149.62608  14707272.81408  14707273.11908         0.00001
 93 04 17 04 34 00.0000000  0  6 16 03 17 24 26 20
 -25892618.70208 -20176045.76108  15262598.31808  15262598.55408         0.00001
 -19365293.79708 -15089821.77708  16796768.73708  16796769.95908         0.00001
 -16320414.72908 -12717188.62008  16674888.53108  16674889.38208         0.00001
 -28967601.23008 -22572112.89608  17946492.96308  17946493.59008         0.00001
  -3552148.46008  -2767904.24208  18534010.62008  18534011.03408         0.00001
 -32398573.48008 -25245627.75008  14724494.99608  14724495.31108         0.00001
 93 04 17 04 36 00.0000000  0  6 16 03 17 24 26 20
 -25802278.33008 -20105650.65908  15279789.51508  15279789.74208         0.00001
 -19666674.73408 -15324663.93208  16739417.69908  16739418.96708         0.00001
 -16644854.00608 -12969998.31208  16613149.75008  16613150.52408         0.00001
 -28723391.43908 -22381819.57608  17992964.66308  17992965.15308         0.00001
  -3912257.72508  -3048508.69208  18465484.01308  18465484.28908         0.00001
 -32299034.92308 -25168065.28308  14743436.60808  14743436.84708         0.00001
 93 04 17 04 38 00.0000000  0  6 16 03 17 24 26 20
 -25703355.32008 -20028567.78408  15298613.93008  15298614.20008         0.00001
 -19968084.46508 -15559528.52708  16682061.22608  16682062.44308         0.00001
 -16965364.44308 -13219746.58008  16552158.49508  16552159.25508         0.00001
 -28479290.33808 -22191610.94608  18039415.52108  18039415.95908         0.00001
  -4272549.18908  -3329255.04108  18396922.53808  18396922.81408         0.00001
 -32190541.69008 -25083525.13408  14764082.23608  14764082.50008         0.00001
 93 04 17 04 40 00.0000000  0  7 16 03 17 23 24 26 20
 -25596110.33308 -19945000.24708  15319021.99108  15319022.23908         0.00001
 -20269618.72408 -15794490.17708  16624681.14608  16624682.26408         0.00001
 -17282372.53308 -13466765.75208  16491833.77708  16491834.52008         0.00001
        -0.13917        -0.10017  18980686.11117  18980688.97417         0.00011
 -28235997.60508 -22002032.20608  18085712.60608  18085713.00308         0.00001
  -4633514.17008  -3610526.25408  18328233.07108  18328233.28108         0.00001
 -32073322.73208 -24992185.72608  14786388.30008  14786388.58108         0.00001
 93 04 17 04 42 00.0000000  0  7 16 03 17 23 24 26 20
 -25480524.97508 -19854933.72208  15341017.11208  15341017.35908         0.00001
 -20571291.43608 -16029559.72208  16567274.68608  16567275.74608         0.00001
 -17595653.52708 -13710880.70308  16432218.33508  16432219.07308         0.00001
   -493716.55707   -384713.18507  18886734.27007  18886736.81107         0.00001
 -27993335.46808 -21812944.83808  18131889.83308  18131890.10408         0.00001
  -4994406.84108  -3891741.19208  18259557.42908  18259557.66408         0.00001
 -31947534.77908 -24894169.17608  14810325.00708  14810325.26008         0.00001
 93 04 17 04 44 00.0000000  0  7 16 03 17 23 24 26 20
 -25356943.51808 -19758636.47808  15364533.83408  15364534.10808         0.00001
 -20873004.14108 -16264660.43008  16509860.55508  16509861.63108         0.00001
 -17905477.93308 -13952302.21108  16373260.57508  16373261.30308         0.00001
   -986681.97507   -768841.07407  18792925.28107  18792927.61607         0.00001
 -27751221.35808 -21624284.49608  18177962.58008  18177962.93808         0.00001
  -5355251.98308  -4172919.09908  18190890.62908  18190890.96708         0.00001
 -31813231.00608 -24789516.92308  14835882.17008  14835882.41108         0.00001
 93 04 17 04 46 00.0000000  0  7 16 03 17 23 24 26 20
 -25225338.07708 -19656086.78108  15389577.49808  15389577.77408         0.00001
 -21174644.88508 -16499705.06008  16452460.14008  16452461.19708         0.00001
 -18211619.80408 -14190854.21308  16315003.64508  16315004.36608         0.00001
  -1479251.51607  -1152660.56107  18699191.67207  18699193.73307         0.00001
 -27509938.09208 -21436271.54608  18223877.37608  18223877.67708         0.00001
  -5715845.54308  -4453900.91708  18122271.91108  18122272.15208         0.00001
 -31670460.71308 -24678267.39008  14863050.44708  14863050.75108         0.00001
 93 04 17 04 48 00.0000000  0  7 16 03 17 23 24 26 20
 -25085706.79208 -19547283.18008  15416148.48108  15416148.74408         0.00001
 -21476054.38608 -16734569.51308  16395103.75208  16395104.81508         0.00001
 -18513818.85508 -14426333.90608  16257497.02308  16257497.66708         0.00001
  -1970923.20507  -1535780.53207  18605629.14307  18605630.91607         0.00001
 -27268863.64108 -21248421.31308  18269752.31508  18269752.73208         0.00001
  -6075537.91208  -4734180.54808  18053824.65208  18053824.91608         0.00001
 -31519232.73508 -24560427.44808  14891828.21408  14891828.54308         0.00001
 93 04 17 04 50 00.0000000  0  7 03 16 17 23 24 26 20
 -21777165.60808 -16969201.55408  16337804.09808  16337805.14808         0.00001
 -24938173.40408 -19432322.09808  15444223.14008  15444223.37708         0.00001
 -18812393.31808 -14658989.24908  16200680.15708  16200680.66108         0.00001
  -2461229.39408  -1917836.61207  18512326.35508  18512328.07507         0.00001
 -27028146.88708 -21060849.82608  18315559.07708  18315559.61008         0.00001
  -6434414.57108  -5013824.59508  17985532.48508  17985532.84408         0.00001
 -31359657.37008 -24436083.04608  14922194.39808  14922194.79408         0.00001
 93 04 17 04 52 00.0000000  0  7 03 16 17 23 24 26 20
 -22077956.77108 -17203584.20108  16280565.43908  16280566.39108         0.00001
 -24782632.71708 -19311121.56208  15473821.58708  15473821.82108         0.00001
 -19107010.44508 -14888560.94908  16144616.30308  16144616.82808         0.00001
  -2950320.05008  -2298945.67908  18419255.25608  18419256.68608         0.00001
 -26788003.48108 -20873725.10508  18361256.91508  18361257.41408         0.00001
  -6792126.91108  -5292561.39208  17917462.26508  17917462.29108         0.00001
 -31191897.85708 -24305361.39608  14954118.03408  14954118.43808         0.00001
 93 04 17 04 54 00.0000000  0  7 03 20 16 17 23 24 26
 -22378308.68908 -17437624.58508  16223410.29408  16223411.23608         0.00001
 -31016026.71208 -24168318.99908  14987585.27708  14987585.61908         0.00001
 -24619371.83608 -19183905.28808  15504889.09208  15504889.33608         0.00001
 -19397707.81808 -15115078.30008  16089298.34708  16089298.87408         0.00001
  -3437873.20908  -2678856.85508  18326476.62608  18326478.13208         0.00001
 -26548244.46708 -20686899.91308  18406881.42908  18406882.02008         0.00001
  -7148762.73908  -5570459.28308  17849596.51108  17849596.50108         0.00001
 93 04 17 04 56 00.0000000  0  7 03 20 16 17 23 24 26
 -22678105.77408 -17671232.62908  16166360.73308  16166361.64508         0.00001
 -30832130.85008 -24025023.57908  15022579.52808  15022579.88008         0.00001
 -24448504.11208 -19050761.60708  15537404.20508  15537404.38808         0.00001
 -19684667.62408 -15338683.25108  16034691.66508  16034692.18508         0.00001
  -3923607.84108  -3057351.05008  18234044.25108  18234045.62408         0.00001
 -26309097.66608 -20500551.77008  18452389.53108  18452390.17408         0.00001
  -7504004.65408  -5847271.14108  17781996.13508  17781996.26508         0.00001
 93 04 17 04 58 00.0000000  0  7 03 20 16 17 23 24 26
 -22977383.21908 -17904435.75008  16109410.10108  16109410.99608         0.00001
 -30640454.34408 -23875665.31908  15059054.41708  15059054.75008         0.00001
 -24270452.85208 -18912020.36908  15571286.17708  15571286.36208         0.00001
 -19967968.22208 -15559436.87408  15980781.29408  15980781.73108         0.00001
  -4407899.63508  -3434721.00408  18141886.29108  18141887.70108         0.00001
 -26070681.81508 -20314773.23908  18497758.54908  18497759.23808         0.00001
  -7857206.36208  -6122493.23108  17714784.04808  17714784.05208         0.00001
 93 04 17 05 00 00.0000000  0  7 03 20 16 17 23 24 26
 -23275998.96108 -18137123.26708  16052585.33908  16052586.24808         0.00001
 -30441071.04908 -23720301.76608  15096995.84208  15096996.20708         0.00001
 -24085028.44908 -18767533.83308  15606571.34508  15606571.51808         0.00001
 -20247278.00708 -15777080.77808  15927630.29708  15927630.73908         0.00001
  -4890017.76808  -3810397.37008  18050142.22608  18050143.61308         0.00001
 -25832620.44008 -20129270.90707  18543060.22108  18543060.83307         0.00001
  -8208664.11008  -6396356.33508  17647903.88408  17647903.72008         0.00001
 93 04 17 05 02 00.0000000  0  7 03 20 16 17 23 24 26
 -23573780.04008 -18369160.40408  15995919.40608  15995920.32008         0.00001
 -30234032.23108 -23558972.87108  15136394.00108  15136394.43708         0.00001
 -23891943.89808 -18617078.35808  15643314.08608  15643314.32108         0.00001
 -20522609.79808 -15991624.94608  15875236.32508  15875236.79008         0.00001
  -5370042.65608  -4184442.73608  17958796.55008  17958797.88908         0.00001
 -25594839.04308 -19943986.73807  18588308.51408  18588308.98607         0.00001
  -8558051.76308  -6668606.37308  17581417.61708  17581417.53908         0.00001
 93 04 17 05 04 00.0000000  0  7 03 20 16 17 23 24 26
 -23870488.71708 -18600361.90808  15939457.57308  15939458.44008         0.00001
 -30019328.99708 -23391671.69508  15177250.70808  15177251.14108         0.00001
 -23691756.79608 -18461088.43008  15681408.39308  15681408.70308         0.00001
 -20793914.05908 -16203030.77508  15823608.79808  15823609.19408         0.00001
  -5847799.31708  -4556720.72608  17867882.41308  17867883.87808         0.00001
 -25357222.77808 -19758831.23307  18633525.38508  18633525.90707         0.00001
  -8904739.01808  -6938752.22608  17515445.16908  17515445.01408         0.00001
 93 04 17 05 06 00.0000000  0  7 03 20 16 17 23 24 26
 -24165966.07108 -18830603.94008  15883230.12908  15883230.89708         0.00001
 -29797043.56008 -23218462.33408  15219550.32708  15219550.71308         0.00001
 -23484475.75308 -18299570.75108  15720852.67008  15720852.94108         0.00001
 -21061039.13608 -16411180.10008  15772776.48908  15772776.91808         0.00001
  -6322882.44408  -4926915.30808  17777477.14108  17777478.33908         0.00001
 -25119864.45608 -19573876.71207  18678693.28608  18678693.82007         0.00001
  -9248458.93508  -7206585.82208  17450037.18208  17450037.28008         0.00001
 93 04 17 05 08 00.0000000  0  7 03 20 16 17 23 24 26
 -24460283.50208 -19059942.13108  15827223.37708  15827224.10008         0.00001
 -29567489.67908 -23039589.24308  15263233.00408  15263233.43208         0.00001
 -23270179.55108 -18132586.71408  15761631.86608  15761632.15508         0.00001
 -21324174.60708 -16616220.64408  15722703.38308  15722703.78908         0.00001
  -6794855.01708  -5294685.97808  17687663.53008  17687664.72608         0.00001
 -24883070.18908 -19389361.70807  18723753.88108  18723754.28807         0.00001
  -9589368.19008  -7472229.30708  17385164.22608  17385164.28008         0.00001
 93 04 17 05 10 00.0000000  0  7 03 20 16 17 23 24 26
 -24753516.22508 -19288435.09308  15771422.95108  15771423.70308         0.00001
 -29330993.76808 -22855306.76508  15308236.75108  15308237.11608         0.00001
 -23049021.17808 -17960255.52908  15803716.96008  15803717.17008         0.00001
 -21583669.53608 -16818424.40708  15673323.07408  15673323.47108         0.00001
  -7264220.14908  -5660424.78508  17598346.15708  17598347.16908         0.00001
 -24646619.28708 -19205114.29307  18768749.00308  18768749.54107         0.00001
  -9927523.15208  -7735726.58208  17320815.54008  17320815.45208         0.00001
 93 04 17 05 12 00.0000000  0  7 03 20 16 17 23 24 26
 -25045703.93408 -19516113.75908  15715821.36508  15715822.17108         0.00001
 -29087854.25408 -22665847.47108  15354504.73808  15354505.09308         0.00001
 -22821397.12908 -17782886.15108  15847032.38008  15847032.58608         0.00001
 -21839399.52508 -17017694.47308  15624659.21208  15624659.61008         0.00001
  -7731033.84508  -6024175.38608  17509514.18908  17509515.17108         0.00001
 -24410746.20107 -19021317.13107  18813634.01607  18813634.67907         0.00001
 -10262764.64608  -7996953.63408  17257021.11208  17257021.06608         0.00001
 93 04 17 05 14 00.0000000  0  8 03 20 16 17 23 24 22 26
 -25336704.61408 -19742867.48908  15660445.75508  15660446.45508         0.00001
 -28838191.82008 -22471305.36508  15402014.00408  15402014.31908         0.00001
 -22587755.32908 -17600827.61808  15891492.92108  15891493.16908         0.00001
 -22091458.81608 -17214104.25208  15576693.95208  15576694.29208         0.00001
  -8194905.94308  -6385633.80008  17421241.99108  17421242.89808         0.00001
 -24175469.79707 -18837984.92307  18858405.62307  18858406.37707         0.00001
        -0.91117        -0.37717  19118858.84017  19118859.99817         0.00011
 -10594500.73708  -8255449.20708  17193893.84208  17193893.63308         0.00001
 93 04 17 05 16 00.0000000  0  8 03 20 16 17 23 24 22 26
 -25626154.87308 -19968413.10008  15605365.18008  15605365.81908         0.00001
 -28581911.47608 -22271606.46008  15450782.52908  15450782.88708         0.00001
 -22348086.78008 -17414072.91908  15937100.38308  15937100.64608         0.00001
 -22339686.20908 -17407528.13908  15529457.80208  15529458.13108         0.00001
  -8655311.97208  -6744391.37008  17333629.38908  17333630.26708         0.00001
 -23940328.21307 -18654757.76407  18903151.65407  18903152.33407         0.00001
   -401823.59007   -313108.73807  19042394.28607  19042395.26507         0.00001
 -10922630.19308  -8511134.41508  17131452.79808  17131452.57108         0.00001
 93 04 17 05 18 00.0000000  0  8 03 20 16 17 23 24 22 26
 -25913880.85108 -20192615.12508  15550612.66508  15550613.39808         0.00001
 -28319117.07108 -22066831.66908  15500790.65008  15500791.12908         0.00001
 -22101864.06308 -17222211.07808  15983955.05208  15983955.30908         0.00001
 -22583629.63608 -17597613.87808  15483036.88308  15483037.20408         0.00001
  -9112465.91508  -7100614.84208  17246635.54308  17246636.46908         0.00001
 -23705558.51007 -18471820.35507  18947826.91807  18947827.47807         0.00001
   -798703.51508   -622365.59207  18966870.48808  18966871.20607         0.00001
 -11246993.48008  -8763884.95508  17069728.41808  17069728.09208         0.00001
 93 04 17 05 20 00.0000000  0  8 03 20 16 17 23 24 22 26
 -26199776.06908 -20415390.59308  15496208.63008  15496209.33608         0.00001
 -28049982.20008 -21857116.25108  15552005.31708  15552005.83908         0.00001
 -21849263.38408 -17025379.39808  16032023.37208  16032023.61208         0.00001
 -22823803.02208 -17784761.91008  15437333.39008  15437333.73008         0.00001
  -9565871.47608  -7453917.51908  17160355.03108  17160355.93108         0.00001
 -23470983.54107 -18289034.68707  18992464.95507  18992465.56707         0.00001
  -1190481.30808   -927646.76807  18892317.36708  18892318.26707         0.00001
 -11566889.96108  -9013154.87108  17008854.17908  17008853.91008         0.00001
 93 04 17 05 22 00.0000000  0  8 03 20 16 17 23 24 22 26
 -26483747.56908 -20636667.04708  15442170.63108  15442171.33708         0.00001
 -27774699.44108 -21642610.27408  15604389.91508  15604390.50308         0.00001
 -21590823.07908 -16823997.35608  16081202.90808  16081203.13408         0.00001
 -23059983.54208 -17968798.63008  15392389.68308  15392390.01708         0.00001
 -10015585.72008  -7804343.89008  17074777.12608  17074777.89908         0.00001
 -23236698.30007 -18106474.79407  19037047.88907  19037048.62507         0.00001
  -1577014.47308  -1228841.20007  18818762.42308  18818763.06807         0.00001
 -11882542.25308  -9259117.62908  16948787.44208  16948787.26408         0.00001
 93 04 17 05 24 00.0000000  0  8 03 20 16 17 23 24 22 26
 -26765836.73908 -20856476.74208  15388490.81908  15388491.53208         0.00001
 -27493603.03208 -21423574.14708  15657880.83808  15657881.41708         0.00001
 -21326663.22008 -16618158.51908  16131470.81408  16131471.13708         0.00001
 -23292082.84808 -18149655.18008  15348222.58308  15348222.88708         0.00001
 -10461665.85008  -8151938.55908  16989890.68008  16989891.32308         0.00001
 -23002621.17207 -17924077.08107  19081591.44807  19081592.13007         0.00001
  -1958300.95408  -1525947.37107  18746205.83408  18746206.52907         0.00001
 -12193819.22608  -9501671.01808  16889553.32708  16889553.17408         0.00001
 93 04 17 05 26 00.0000000  0  8 03 20 16 17 23 24 22 26
 -27045968.95108 -21074761.54108  15335183.38708  15335184.09108         0.00001
 -27206914.19508 -21200180.31208  15712435.94708  15712436.55208         0.00001
 -21057215.64808 -16408199.40008  16182744.96008  16182745.31508         0.00001
 -23520677.75408 -18327781.02508  15304722.38408  15304722.62908         0.00001
 -10903694.59908  -8496376.38208  16905775.36608  16905775.97308         0.00001
 -22768964.03507 -17742006.61907  19126055.05307  19126055.69707         0.00001
  -2334224.45408  -1818874.57407  18674669.71208  18674670.57207         0.00001
 -12500435.65408  -9740592.84208  16831206.01208  16831205.82608         0.00001
 93 04 17 05 28 00.0000000  0  8 03 20 16 17 23 24 22 26
 -27324238.58408 -21291594.98108  15282230.45008  15282231.02708         0.00001
 -26915028.65108 -20972737.08708  15767979.94708  15767980.59608         0.00001
 -20782712.13108 -16194300.58708  16234981.25108  16234981.59508         0.00001
 -23745911.75608 -18503287.99008  15261861.68508  15261861.97808         0.00001
 -11341977.73608  -8837895.65208  16822372.85008  16822373.38308         0.00001
 -22535810.27307 -17560328.39407  19170422.73007  19170423.42007         0.00001
  -2704843.95208  -2107668.79007  18604142.88408  18604143.79407         0.00001
 -12802696.99008  -9976121.08308  16773687.66408  16773687.48508         0.00001
 93 04 17 05 30 00.0000000  0  7 03 20 16 17 23 22 26
 -27600641.65108 -21506973.96208  15229632.65808  15229633.25208         0.00001
 -26618245.76708 -20741477.74608  15824455.92608  15824456.47608         0.00001
 -20503443.91208 -15976689.02708  16288124.28108  16288124.66808         0.00001
 -23967878.84308 -18676249.32008  15219622.71708  15219623.02308         0.00001
 -11776677.69808  -9176622.89908  16739652.10508  16739652.78408         0.00001
  -3070124.10008  -2392302.50707  18534632.42308  18534633.13207         0.00001
 -13100159.46308 -10207909.94108  16717082.42508  16717082.09608         0.00001
 93 04 17 05 32 00.0000000  0  7 03 20 16 17 23 22 26
 -27875046.56608 -21720795.94108  15177415.08708  15177415.71508         0.00001
 -26316744.55608 -20506541.78908  15881829.73208  15881830.28508         0.00001
 -20219464.33908 -15755406.28808  16342163.83908  16342164.30008         0.00001
 -24186210.09508 -18846377.53008  15178075.62308  15178075.90308         0.00001
 -12207201.94108  -9512096.33808  16657726.07608  16657726.72808         0.00001
  -3429907.21408  -2672652.83507  18466167.89108  18466168.59507         0.00001
 -13392810.58308 -10435949.67908  16661392.66308  16661392.37108         0.00001
 93 04 17 05 34 00.0000000  0  7 03 20 16 17 23 22 26
 -28147249.82308 -21932902.34508  15125616.53708  15125617.07508         0.00001
 -26010635.81408 -20268015.54608  15940080.32008  15940080.93708         0.00001
 -19930751.36908 -15530435.19008  16397104.13308  16397104.49708         0.00001
 -24400885.22408 -19013656.80908  15137224.27808  15137224.52908         0.00001
 -12633745.92308  -9844468.25508  16576557.40908  16576558.04708         0.00001
  -3783968.02208  -2948544.23407  18398792.24508  18398792.92807         0.00001
 -13680634.28708 -10660227.80608  16606621.50508  16606621.17508         0.00001
 93 04 17 05 36 00.0000000  0  7 03 20 16 17 23 22 26
 -28417229.52508 -22143276.10608  15074241.05508  15074241.65108         0.00001
 -25700213.81008 -20026128.33208  15999151.70208  15999152.36708         0.00001
 -19637684.93508 -15302071.78208  16452872.91908  16452873.19608         0.00001
 -24612464.77808 -19178523.94108  15096962.07508  15096962.35208         0.00001
 -13056085.96708 -10173564.36408  16496188.78308  16496189.26708         0.00001
  -4132268.06008  -3219946.73108  18332512.94008  18332513.52308         0.00001
 -13963072.72608 -10880309.62408  16552875.20508  16552874.96008         0.00001
 93 04 17 05 38 00.0000000  0  7 03 20 16 17 23 22 26
 -28684972.79408 -22351907.19908  15023291.18608  15023291.77808         0.00001
 -25385787.35008 -19781120.77308  16058985.16308  16058985.80108         0.00001
 -19340713.43108 -15070665.45808  16509384.75608  16509385.08108         0.00001
 -24820838.44108 -19340892.97408  15057309.80008  15057310.04208         0.00001
 -13474284.06308 -10499433.00808  16416608.28008  16416608.77708         0.00001
  -4474783.80208  -3486841.99808  18267334.15508  18267334.88008         0.00001
 -14240356.60208 -11096374.91408  16500109.77908  16500109.54608         0.00001
 93 04 17 05 40 00.0000000  0  7 17 20 16 23 22 26 03
 -25025955.03108 -19500724.02508  15018277.34608  15018277.57508         0.00001
 -25067396.65308 -19533024.20408  16119572.93008  16119573.57808         0.00001
 -19039753.95108 -14836151.62608  16566655.44808  16566655.78408         0.00001
 -13888043.58808 -10821843.01108  16337872.41208  16337873.01908         0.00001
  -4811224.40408  -3749003.42208  18203311.46108  18203312.27508         0.00001
 -14512234.06208 -11308227.40308  16448373.13608  16448372.84608         0.00001
 -28950196.19408 -22558574.75608  14972820.84308  14972821.38808         0.00001
 93 04 17 05 42 00.0000000  0  7 20 16 23 22 26 03 17
 -24745369.75408 -19282094.22408  16180852.62108  16180853.33608         0.00001
 -18734779.57908 -14598509.29908  16624690.20308  16624690.55308         0.00001
 -14297165.68808 -11140639.40508  16260019.06908  16260019.67308         0.00001
  -5141590.23308  -4006431.28908  18140444.94908  18140445.64408         0.00001
 -14778487.16708 -11515697.29508  16397706.67608  16397706.37008         0.00001
 -29212899.75308 -22763278.79808  14922829.99208  14922830.54508         0.00001
 -25228158.41908 -19658285.04308  14979799.23908  14979799.48508         0.00001
 93 04 17 05 44 00.0000000  0  7 20 16 23 22 26 03 17
 -24419894.87408 -19028477.52008  16242788.53408  16242789.21108         0.00001
 -18426523.58608 -14358309.85908  16683349.41808  16683349.73108         0.00001
 -14702042.59208 -11456127.83808  16182973.53008  16182974.14808         0.00001
  -5465743.19008  -4259017.96508  18078760.69208  18078761.33408         0.00001
 -15038813.88608 -11718549.20908  16348168.27308  16348167.86108         0.00001
 -29472943.15008 -22965909.99308  14873345.37408  14873345.93608         0.00001
 -25426987.57808 -19813216.78508  14941963.26308  14941963.46508         0.00001
 93 04 17 05 46 00.0000000  0  7 20 16 23 22 26 03 17
 -24090863.43208 -18772089.46708  16305401.22508  16305401.81308         0.00001
 -18114366.02708 -14115070.22708  16742751.01708  16742751.31008         0.00001
 -15102271.32608 -11767994.31008  16106812.57008  16106813.02408         0.00001
  -5783251.28408  -4506426.84308  18018340.97508  18018341.46208         0.00001
 -15292808.74908 -11916467.22308  16299834.53208  16299834.11708         0.00001
 -29729883.79808 -23166123.46408  14824451.14208  14824451.67808         0.00001
 -25622376.17708 -19965467.57608  14904782.04908  14904782.20608         0.00001
 93 04 17 05 48 00.0000000  0  7 20 16 23 22 26 03 17
 -23758305.91208 -18512953.82708  16368684.92808  16368685.50508         0.00001
 -17798532.53708 -13868966.23708  16802852.15008  16802852.46408         0.00001
 -15497058.78408 -12075620.82008  16031686.90508  16031687.34308         0.00001
  -6093826.71208  -4748433.62908  17959240.40208  17959240.84608         0.00001
 -15540320.12408 -12109333.15908  16252734.70108  16252734.22008         0.00001
 -29983418.63508 -23363683.06708  14776205.07008  14776205.60208         0.00001
 -25814196.70108 -20114938.04808  14868279.76508  14868279.93008         0.00001
 93 04 17 05 50 00.0000000  0  7 20 16 23 22 26 03 17
 -23422396.13508 -18251206.05408  16432606.46508  16432607.21408         0.00001
 -17479337.13208 -13620242.57608  16863593.04308  16863593.40008         0.00001
 -15886381.35508 -12378988.96408  15957601.14708  15957601.67108         0.00001
  -6397324.94108  -4984925.71308  17901486.56808  17901486.96708         0.00001
 -15781114.15508 -12296964.81608  16206913.08908  16206912.64908         0.00001
 -30233383.97708 -23558461.24108  14728638.24608  14728638.74608         0.00001
 -26002259.81008 -20261480.66908  14832492.46508  14832492.64708         0.00001
 93 04 17 05 52 00.0000000  0  7 20 16 23 22 26 03 17
 -23083413.64308 -17987063.96008  16497112.74208  16497113.53008         0.00001
 -17156348.59508 -13368563.21908  16925055.73308  16925056.11108         0.00001
 -16270390.22208 -12678216.55408  15884526.62408  15884527.11608         0.00001
  -6693713.95008  -5215878.13708  17845085.53508  17845085.88008         0.00001
 -16015033.27808 -12479239.40408  16162399.63708  16162399.19608         0.00001
 -30479720.99008 -23750412.14608  14681761.84208  14681762.31508         0.00001
 -26186990.82408 -20405426.86608  14797339.27508  14797339.45808         0.00001
 93 04 17 05 54 00.0000000  0  7 20 16 23 22 26 03 17
 -22741548.07508 -17720675.30608  16562167.69808  16562168.58308         0.00001
 -16830328.42408 -13114521.54808  16987095.27908  16987095.69808         0.00001
 -16648827.11708 -12973102.34708  15812512.40908  15812512.89508         0.00001
  -6982873.28108  -5441197.05108  17790060.34308  17790060.71808         0.00001
 -16241961.39508 -12656066.46008  16119216.62408  16119216.12508         0.00001
 -30722279.05408 -23939418.41308  14635604.58108  14635605.05508         0.00001
 -26368333.24608 -20546732.59508  14762830.95608  14762831.09808         0.00001
 93 04 17 05 56 00.0000000  0  7 20 16 23 22 26 03 17
 -22397034.32908 -17452223.13108  16627726.53308  16627727.40508         0.00001
 -16501363.15308 -12858184.98208  17049695.23808  17049695.67308         0.00001
 -17021670.12908 -13263629.27908  15741562.67608  15741563.12908         0.00001
  -7264732.29008  -5660827.40008  17736424.30908  17736424.75708         0.00001
 -16461790.83408 -12827362.08208  16077384.40708  16077383.94108         0.00001
 -30960949.56608 -24125395.42108  14590187.08708  14590187.55708         0.00001
 -26546441.54808 -20685518.23208  14728938.00808  14728938.12808         0.00001
 93 04 17 05 58 00.0000000  0  8 20 16 23 21 22 03 17 26
 -22050035.90608 -17181834.85408  16693758.20008  16693759.09008         0.00001
 -16169187.65208 -12599346.93608  17112906.16008  17112906.57308         0.00001
 -17389144.19908 -13549972.62208  15671634.68008  15671635.08308         0.00001
         0.05817        -0.41017  18994230.90317  18994233.82317         0.00011
  -7539153.39008  -5874661.96508  17684203.60208  17684204.22108         0.00001
 -31195553.68708 -24308203.81908  14545543.39208  14545543.87108         0.00001
 -26721288.01908 -20821762.17508  14695665.81008  14695665.92508         0.00001
 -16674283.83408 -12992940.98808  16036948.34308  16036947.93608         0.00001
 93 04 17 06 00 00.0000000  0  7 20 16 23 22 26 03 17
 -21700686.83008 -16909614.90408  16760237.25908  16760238.08708         0.00001
 -15834429.48908 -12338496.42008  17176608.58708  17176609.02708         0.00001
 -17750700.83708 -13831704.99508  15602832.60008  15602832.97808         0.00001
  -7805973.95608  -6082574.03808  17633429.31008  17633429.85508         0.00001
 -16879499.13308 -13152848.96308  15997897.10808  15997896.61908         0.00001
 -31425880.22608 -24487679.03008  14501713.76508  14501714.17508         0.00001
 -26892247.89208 -20954977.62708  14663133.23508  14663133.29908         0.00001
 93 04 17 06 02 00.0000000  0  8 23 20 16 21 22 26 03 17
 -18106494.00408 -14108946.35308  15535127.33708  15535127.72208         0.00001
 -21349198.37508 -16635727.92908  16827123.40508  16827124.23708         0.00001
 -15497129.68308 -12075665.40108  17240794.59108  17240795.00808         0.00001
        -0.80717        -0.68117  18820303.00917  18820305.80717         0.00011
  -8065114.40308  -6284501.60708  17584116.47008  17584116.98508         0.00001
 -17076811.23708 -13306598.61408  15960349.88508  15960349.32408         0.00001
 -31651796.93708 -24663718.01708  14458723.29408  14458723.62808         0.00001
 -27059617.79008 -21085395.67508  14631283.73908  14631283.84608         0.00001
 93 04 17 06 04 00.0000000  0  8 23 20 16 21 22 26 03 17
 -18456379.43008 -14381584.26608  15468546.33908  15468546.70108         0.00001
 -20995825.18108 -16360372.35008  16894368.15208  16894369.01308         0.00001
 -15157441.82308 -11810973.56308  17305435.05308  17305435.53408         0.00001
   -454429.87507   -354100.67307  18733827.65407  18733830.20907         0.00001
  -8316543.26008  -6480420.14708  17536271.07308  17536271.72208         0.00001
 -17266550.16908 -13454447.08508  15924243.73508  15924243.15808         0.00001
 -31873212.43408 -24836249.56708  14416589.25308  14416589.61808         0.00001
 -27223941.03208 -21213439.71108  14600013.99708  14600014.14208         0.00001
 93 04 17 06 06 00.0000000  0  7 23 20 16 22 26 03 17
 -18800346.33408 -14649610.34608  15403091.52608  15403091.85908         0.00001
 -20640787.52208 -16083719.79308  16961929.71208  16961930.58508         0.00001
 -14815379.19508 -11544431.26108  17370527.37408  17370527.92308         0.00001
  -8560200.80608  -6670283.13608  17489904.59708  17489905.13708         0.00001
 -17448516.86108 -13596239.26408  15889616.67408  15889615.97908         0.00001
 -32090003.69808 -25005177.81508  14375335.17308  14375335.60608         0.00001
 -27384954.07908 -21338904.38508  14569374.18408  14569374.34808         0.00001
 93 04 17 06 08 00.0000000  0  7 23 26 20 16 22 03 17
 -19138095.57608 -14912791.49608  15338819.95708  15338820.21608         0.00001
 -17622440.87908 -13731764.43108  15856519.81508  15856519.24808         0.00001
 -20284193.18908 -15805854.25408  17029787.53608  17029788.38808         0.00001
 -14471363.02908 -11276366.71908  17435991.43508  17435991.86408         0.00001
  -8795919.28808  -6853959.86608  17445048.91608  17445049.37008         0.00001
 -32301933.52308 -25170317.92208  14335006.28208  14335006.74008         0.00001
 -27542697.02708 -21461820.93308  14539356.62108  14539356.83908         0.00001
 93 04 17 06 10 00.0000000  0  8 23 26 20 16 21 22 03 17
 -19469819.37508 -15171277.48908  15275694.91208  15275695.16308         0.00001
 -17788236.01408 -13860955.40008  15824970.06308  15824969.49708         0.00001
 -19926451.79908 -15527094.88908  17097863.54308  17097864.53408         0.00001
 -14125338.43608 -11006737.17008  17501837.67808  17501838.08508         0.00001
        -0.81417        -0.96017  18476698.88217  18476700.89117         0.00011
  -9023838.42908  -7031559.19108  17401677.28608  17401677.85508         0.00001
 -32509065.23208 -25331719.23508  14295590.47008  14295590.83908         0.00001
 -27697260.39108 -21582259.89208  14509944.23908  14509944.36608         0.00001
 93 04 17 06 12 00.0000000  0  8 23 26 20 16 21 22 03 17
 -19795628.06008 -15425154.29608  15213695.47108  15213695.75608         0.00001
 -17946360.46108 -13984169.21108  15794880.00208  15794879.36908         0.00001
 -19567903.57008 -15247706.82808  17166093.13308  17166094.10408         0.00001
 -13777571.95408 -10735750.31008  17568015.43908  17568015.87008         0.00001
   -446472.98208   -347900.80507  18391737.84008  18391739.60207         0.00001
  -9244035.30008  -7203141.16408  17359775.29708  17359775.74308         0.00001
 -32711396.65208 -25489380.06808  14257088.04708  14257088.46208         0.00001
 -27848874.88508 -21700401.03308  14481092.99608  14481093.02808         0.00001
 93 04 17 06 14 00.0000000  0  8 23 26 20 16 21 03 17 22
 -20115675.70108 -15674541.98508  15152792.32408  15152792.60408         0.00001
 -18096939.07508 -14101503.15608  15766225.77508  15766225.17908         0.00001
 -19208864.18908 -14967936.05508  17234416.19708  17234417.26208         0.00001
 -13428776.87908 -10463961.95008  17634388.89208  17634389.37808         0.00001
   -891339.74208   -694549.79707  18307082.15308  18307083.77507         0.00001
 -32908899.36408 -25643278.27208  14219504.49308  14219504.95208         0.00001
 -27997575.36008 -21816271.51308  14452796.17008  14452796.21808         0.00001
  -9456567.68008  -7368750.80208  17319331.79608  17319332.17208         0.00001
 93 04 17 06 16 00.0000000  0  8 23 26 20 16 21 03 17 22
 -20429954.22608 -15919434.27308  15092987.11008  15092987.39408         0.00001
 -18239360.15008 -14212480.58108  15739123.93608  15739123.32908         0.00001
 -18849545.78508 -14687947.86908  17302792.33108  17302793.50108         0.00001
 -13078948.20608 -10191368.20808  17700959.09208  17700959.62008         0.00001
  -1334090.02808  -1039549.83807  18222829.30208  18222831.04207         0.00001
 -33101443.91408 -25793312.97808  14182864.47408  14182864.90508         0.00001
 -28143420.04508 -21929916.69108  14425042.79708  14425042.81008         0.00001
  -9661398.03908  -7528358.86808  17280353.94108  17280354.19708         0.00001
 93 04 17 06 18 00.0000000  0  8 23 26 20 16 21 03 17 22
 -20738428.47408 -16159803.74508  15034286.34408  15034286.61908         0.00001
 -18373731.72408 -14317185.66408  15713553.76608  15713553.25608         0.00001
 -18490134.45508 -14407887.29708  17371186.15408  17371187.41408         0.00001
 -12728135.55708  -9918007.74208  17767716.62608  17767717.12608         0.00001
  -1774834.18807  -1382986.81407  18138958.34307  18138960.17907         0.00001
 -33288875.18908 -25939363.32008  14147197.48008  14147197.89208         0.00001
 -28286508.40208 -22041414.08608  14397813.99208  14397814.01508         0.00001
  -9858465.76908  -7681918.13408  17242853.18008  17242853.43308         0.00001
 93 04 17 06 20 00.0000000  0  8 26 20 16 21 03 17 23 22
 -18500102.95208 -14415656.71308  15689506.15008  15689505.54108         0.00001
 -18130866.98508 -14127938.82008  17439552.61908  17439553.96608         0.00001
 -12376465.42408  -9643979.08608  17834637.33308  17834637.78508         0.00001
  -2213502.60007  -1724806.28008  18055482.37307  18055484.39408         0.00001
 -33471090.58908 -26081349.34408  14112523.03308  14112523.46608         0.00001
 -28426793.19608 -22150726.87608  14371118.66708  14371118.71808         0.00001
 -21040654.78408 -16395304.69908  14976774.56308  14976774.78508         0.00001
 -10047771.36308  -7829429.00708  17206829.47208  17206829.84708         0.00001
 93 04 17 06 22 00.0000000  0  8 26 20 16 21 03 17 23 22
 -18618204.41608 -14507683.79108  15667032.23708  15667031.58008         0.00001
 -17771985.18108 -13848290.86508  17507845.73608  17507847.10608         0.00001
 -12024169.41408  -9369462.72308  17901676.98508  17901677.54508         0.00001
  -2650177.81707  -2065072.49108  17972385.83307  17972387.74808         0.00001
 -33647994.09208 -26219196.22908  14078859.46108  14078859.86708         0.00001
 -28564690.08908 -22258178.98608  14344877.77108  14344877.82308         0.00001
 -21337126.56808 -16626321.60708  14920357.83108  14920358.00908         0.00001
 -10229324.50108  -7970898.99708  17172281.00508  17172281.47608         0.00001
 93 04 17 06 24 00.0000000  0  8 26 20 16 21 03 17 23 22
 -18728400.13408 -14593550.54508  15646062.56608  15646061.97708         0.00001
 -17413737.92708 -13569137.35608  17576017.91408  17576019.36708         0.00001
 -11671448.15708  -9094614.98708  17968797.50108  17968798.18908         0.00001
  -3084972.11708  -2403873.00408  17889647.31608  17889648.77708         0.00001
 -33819499.91008 -26352837.12008  14046222.99308  14046223.41308         0.00001
 -28700048.43508 -22363653.00708  14319119.87008  14319119.94108         0.00001
 -21627958.52708 -16852943.85008  14865014.33708  14865014.48308         0.00001
 -10403149.77108  -8106347.26808  17139203.16308  17139203.53908         0.00001
 93 04 17 06 26 00.0000000  0  8 26 20 16 21 03 17 23 22
 -18830425.77508 -14673051.00508  15626647.64608  15626646.94408         0.00001
 -17056292.78908 -13290608.83108  17644037.76608  17644039.05808         0.00001
 -11318650.00508  -8819707.33708  18035932.79008  18035933.40008         0.00001
  -3517477.25108  -2740889.71908  17807344.15008  17807345.53208         0.00001
 -33985443.78308 -26482144.02708  14014644.90808  14014645.33008         0.00001
 -28832542.86108 -22466895.39808  14293907.02308  14293907.07908         0.00001
 -21912648.60208 -17074780.21008  14810839.63608  14810839.69908         0.00001
 -10569199.29708  -8235736.51408  17107604.98208  17107605.36408         0.00001
 93 04 17 06 28 00.0000000  0  8 26 20 16 21 03 17 23 22
 -18923877.54708 -14745870.51508  15608864.42008  15608863.79008         0.00001
 -16699740.66308 -13012776.15808  17711887.54608  17711888.85708         0.00001
 -10965646.36808  -8544639.53708  18103107.22308  18103107.67408         0.00001
  -3947502.44108  -3075973.98708  17725512.77908  17725514.13608         0.00001
 -34145587.17008 -26606931.07608  13984170.61208  13984171.04808         0.00001
 -28962377.04208 -22568064.86508  14269200.37108  14269200.39508         0.00001
 -22191314.34908 -17291922.29108  14757811.17908  14757811.25508         0.00001
 -10727354.58108  -8358974.39208  17077509.07908  17077509.54608         0.00001
 93 04 17 06 30 00.0000000  0  8 26 20 16 21 03 17 23 22
 -19009021.00308 -14812216.02208  15592662.04608  15592661.49208         0.00001
 -16344350.75708 -12735849.15308  17779516.10908  17779517.56808         0.00001
 -10612514.26308  -8269471.59207  18170305.95208  18170306.35407         0.00001
  -4375448.30208  -3409438.05608  17644077.24508  17644078.50008         0.00001
 -34299870.59608 -26727151.92008  13954811.47908  13954811.90308         0.00001
 -29089942.85708 -22667466.77208  14244925.39808  14244925.44008         0.00001
 -22463859.98508 -17504295.46108  14705947.45308  14705947.58708         0.00001
 -10877680.93608  -8476111.81208  17048902.91908  17048903.38308         0.00001
 93 04 17 06 32 00.0000000  0  8 26 20 16 03 17 23 21 22
 -19086115.19008 -14872289.37408  15577991.55508  15577990.90108         0.00001
 -15990313.19907 -12459975.97007  17846887.28807  17846888.78507         0.00001
 -10259519.07508  -7994410.33407  18237478.67708  18237478.91107         0.00001
 -34448162.06908 -26842703.71708  13926592.57308  13926592.96708         0.00001
 -29214693.27908 -22764674.87408  14221186.21608  14221186.18308         0.00001
 -22730407.64108 -17711994.86408  14655225.10308  14655225.21908         0.00001
  -4800790.65908  -3740873.47808  17563137.05308  17563138.30308         0.00001
 -11020175.14308  -8587146.25008  17021787.06208  17021787.53908         0.00001
 93 04 17 06 34 00.0000000  0  8 26 20 16 21 03 17 23 22
 -19154892.19508 -14925881.80008  15564903.69408  15564903.05408         0.00001
 -15637744.08008 -12185247.04107  17913979.15608  17913980.73207         0.00001
  -9906845.00808  -7719599.31407  18304590.25508  18304590.45307         0.00001
  -5223597.42308  -4070333.12408  17482679.50908  17482680.73308         0.00001
 -34590256.54809 -26953426.69008  13899552.92809  13899553.28608         0.00001
 -29336859.05608 -22859868.97808  14197938.85308  14197938.76008         0.00001
 -22990749.15308 -17914858.32408  14605683.68008  14605683.79108         0.00001
 -11154766.25908  -8692022.44408  16996175.22908  16996175.68808         0.00001
 93 04 17 06 36 00.0000000  0  8 26 20 16 21 03 17 23 22
 -19215028.89908 -14972741.52508  15553460.09408  15553459.35408         0.00001
 -15286753.99008 -11911748.49407  17980770.63008  17980772.07807         0.00001
  -9554193.93407  -7444806.23507  18371697.47707  18371697.70307         0.00001
  -5643872.96308  -4397820.42208  17402703.67708  17402704.82208         0.00001
 -34725947.98108 -27059160.28208  13873731.71408  13873732.06408         0.00001
 -29456391.12308 -22953010.82908  14175192.65108  14175192.61408         0.00001
 -23244864.94408 -18112870.55708  14557326.98108  14557327.09308         0.00001
 -11281384.56008  -8790686.05208  16972080.54308  16972081.10708         0.00001
 93 04 17 06 38 00.0000000  0  8 26 20 16 03 17 23 21 22
 -19266382.41008 -15012757.21108  15543687.77408  15543687.02208         0.00001
 -14937529.77708 -11639625.90207  18047226.00108  18047227.49907         0.00001
  -9201923.04707  -7170309.41407  18438732.33907  18438732.71707         0.00001
 -34855111.86608 -27159807.47008  13849152.62908  13849152.99708         0.00001
 -29573272.20408 -23044086.97808  14152950.90608  14152950.84608         0.00001
 -23493016.03008 -18306234.97008  14510105.33708  14510105.45308         0.00001
  -6061384.03608  -4723153.60508  17323253.85208  17323255.04708         0.00001
 -11400047.53108  -8883150.70508  16949499.72908  16949500.24008         0.00001
 93 04 17 06 40 00.0000000  0  8 26 20 16 21 03 17 23 22
 -19309156.58008 -15046087.69308  15535548.13008  15535547.42408         0.00001
 -14590418.97507 -11369150.15407  18113279.07807  18113280.75607         0.00001
  -8850360.60607  -6896364.63507  18505632.44507  18505632.82607         0.00001
  -6476084.79008  -5046296.92608  17244338.79308  17244340.00008         0.00001
 -34977787.53408 -27255398.90108  13825808.19208  13825808.60108         0.00001
 -29687599.79508 -23133173.39008  14131195.06408  14131194.98908         0.00001
 -23735014.57008 -18494805.19908  14464054.53408  14464054.61308         0.00001
 -11510937.78908  -8969558.70208  16928398.10508  16928398.51108         0.00001
 93 04 17 06 42 00.0000000  0  8 26 21 20 16 03 17 23 22
 -19343872.58008 -15073139.08008  15528941.80308  15528941.05708         0.00001
  -6888133.54408  -5367373.73608  17165928.41008  17165929.53708         0.00001
 -14245667.64107 -11100513.00707  18178883.15607  18178885.06307         0.00001
  -8499866.39407  -6623252.27107  18572329.28907  18572329.70507         0.00001
 -35093916.72208 -27345889.18308  13803709.53508  13803709.92508         0.00001
 -29799605.37508 -23220450.42208  14109881.02208  14109881.03808         0.00001
 -23970989.28408 -18678681.55708  14419150.04908  14419150.05008         0.00001
 -11614145.96208  -9049980.67208  16908758.32908  16908758.68808         0.00001
 93 04 17 06 44 00.0000000  0  7 26 21 20 22 03 17 23
 -19370237.23608 -15093682.92608  15523924.65508  15523923.98008         0.00001
  -7297623.22508  -5686456.45608  17088004.86108  17088006.05408         0.00001
 -13903387.45707 -10833801.47707  18244017.22907  18244018.97307         0.00001
 -11709635.59108  -9124388.17608  16890587.26708  16890587.60408         0.00001
 -35203312.79008 -27431132.87408  13782892.19108  13782892.57208         0.00001
 -29909404.46908 -23306008.13308  14088986.97508  14088986.93308         0.00001
 -24200955.91408 -18857876.28008  14375388.83408  14375388.81808         0.00001
 93 04 17 06 46 00.0000000  0  7 26 21 22 20 03 17 23
 -19387947.22708 -15107482.87408  15520554.66108  15520553.85808         0.00001
  -7704330.56008  -6003371.11608  17010610.92708  17010612.10108         0.00001
 -11797502.41608  -9192855.85208  16873866.74008  16873867.16308         0.00001
 -13563814.25407 -10569199.27307  18308636.13307  18308637.88307         0.00001
 -35305917.21008 -27511084.37008  13763367.24408  13763367.61808         0.00001
 -30016708.64008 -23389621.75608  14068567.67808  14068567.61608         0.00001
 -24424899.32908 -19032377.59808  14332773.70308  14332773.72508         0.00001
 93 04 17 06 48 00.0000000  0  7 26 21 22 20 03 17 23
 -19397308.50908 -15114777.34808  15518773.23208  15518772.54108         0.00001
  -8108344.13508  -6318186.76208  16933729.72908  16933730.80108         0.00001
 -11877776.59208  -9255407.20208  16858591.12608  16858591.52608         0.00001
 -13227110.24107 -10306832.84907  18372708.89507  18372710.98807         0.00001
 -35401603.85208 -27585645.40008  13745158.69708  13745159.04208         0.00001
 -30121477.10908 -23471259.50808  14048630.84108  14048630.82508         0.00001
 -24642907.97608 -19202254.39808  14291287.97508  14291287.98608         0.00001
 93 04 17 06 50 00.0000000  0  7 26 21 22 20 03 17 23
 -19398375.80408 -15115608.96408  15518570.00808  15518569.37508         0.00001
  -8509488.03708  -6630766.32608  16857394.45308  16857395.56008         0.00001
 -11950546.38608  -9312110.99208  16844743.54908  16844743.97908         0.00001
 -12893486.95007 -10046866.95507  18436195.54107  18436197.66207         0.00001
 -35490301.36508 -27654760.34808  13728280.12708  13728280.44708         0.00001
 -30223984.81208 -23551135.62608  14029124.29508  14029124.24008         0.00001
 -24854881.89108 -19367428.82808  14250950.65108  14250950.65808         0.00001
 93 04 17 06 52 00.0000000  0  7 26 21 22 03 20 17 23
 -19391263.07308 -15110066.54108  15519923.54608  15519922.78208         0.00001
  -8907962.70508  -6941265.96408  16781567.17608  16781568.27108         0.00001
 -12015835.40208  -9362985.59908  16832319.42508  16832319.87608         0.00001
 -35571871.72908 -27718321.67408  13712757.79108  13712758.13708         0.00001
 -12563083.72607  -9789410.22107  18499069.51307  18499071.60407         0.00001
 -30324107.56808 -23629153.33708  14010071.53408  14010071.44608         0.00001
 -25061144.71108 -19528153.06108  14211700.13808  14211700.11208         0.00001
 93 04 17 06 54 00.0000000  0  7 26 21 22 20 03 17 23
 -19375935.82408 -15098123.20008  15522840.21908  15522839.43608         0.00001
  -9303437.39408  -7249427.96508  16706310.79208  16706311.87508         0.00001
 -12073715.57108  -9408087.07908  16821305.14208  16821305.76308         0.00001
 -12236079.92507  -9534602.26706  18561296.51107  18561298.49006         0.00001
 -35646224.14508 -27776258.63208  13698608.97008  13698609.38308         0.00001
 -30421926.43008 -23705375.80608  13991457.20408  13991457.12808         0.00001
 -25261639.41208 -19684382.65408  14173547.23408  14173547.20708         0.00001
 93 04 17 06 56 00.0000000  0  7 26 21 22 20 03 17 23
 -19352207.96408 -15079633.93408  15527355.42008  15527354.62408         0.00001
  -9695591.53008  -7555002.51908  16631686.32708  16631687.37008         0.00001
 -12124129.11708  -9447370.40508  16811711.84808  16811712.43808         0.00001
 -11912518.78007  -9282476.94906  18622868.23107  18622870.50206         0.00001
 -35713136.18308 -27828397.88808  13685876.09208  13685876.44108         0.00001
 -30517427.69308 -23779792.35008  13973283.96308  13973283.89308         0.00001
 -25456056.83108 -19835876.72508  14136550.77808  14136550.76208         0.00001
 93 04 17 06 58 00.0000000  0  6 26 21 22 03 17 23
 -19319891.21308 -15054452.02508  15533505.04908  15533504.36708         0.00001
 -10084377.79208  -7857952.76308  16557702.63208  16557703.70908         0.00001
 -12166869.18508  -9480674.39208  16803578.71408  16803579.22508         0.00001
 -35772232.31108 -27874446.82008  13674630.47008  13674630.85108         0.00001
 -30610154.98608 -23852047.37108  13955638.49708  13955638.39008         0.00001
 -25644142.99008 -19982437.31608  14100759.15008  14100759.09508         0.00001
 93 04 17 07 00 00.0000000  0  7 26 21 22 28 03 17 23
 -19278852.45708 -15022473.76808  15541314.45508  15541313.84108         0.00001
 -10469932.03708  -8158384.57508  16484334.07408  16484335.04108         0.00001
 -12201995.36308  -9508045.48108  16796894.45808  16796894.95308         0.00001
         0.35217         0.29017  18470367.95017  18470368.50317         0.00011
 -35823407.36808 -27914323.50408  13664892.20708  13664892.57508         0.00001
 -30700085.29108 -23922122.92908  13938525.31208  13938525.24408         0.00001
 -25826037.21808 -20124173.03708  14066145.81008  14066145.72508         0.00001
 93 04 17 07 02 00.0000000  0  7 26 21 22 28 03 17 23
 -19229225.98108 -14983803.77908  15550758.09808  15550757.40208         0.00001
 -10851987.28408  -8456089.88708  16411631.33008  16411632.36008         0.00001
 -12229610.90008  -9529564.10708  16791639.48608  16791640.00008         0.00001
   -494800.28307   -385558.53207  18376210.60707  18376210.87807         0.00001
 -35866593.26908 -27947974.86908  13656674.22008  13656674.56208         0.00001
 -30787233.78708 -23990030.86108  13921941.54108  13921941.48008         0.00001
 -26001929.67008 -20261232.05408  14032674.62208  14032674.54308         0.00001
 93 04 17 07 04 00.0000000  0  7 26 21 22 28 03 17 23
 -19171405.53208 -14938748.88308  15561760.98308  15561760.23008         0.00001
 -11230507.32408  -8751040.48208  16339601.28008  16339602.35008         0.00001
 -12249787.36108  -9545286.05508  16787799.99808  16787800.57808         0.00001
   -989492.24307   -771032.72807  18282073.87107  18282074.00607         0.00001
 -35901693.35708 -27975325.60708  13649994.92508  13649995.24808         0.00001
 -30871691.39408 -24055841.98608  13905869.84508  13905869.72408         0.00001
 -26171527.54508 -20393386.18908  14000401.11008  14000401.03908         0.00001
 93 04 17 07 06 00.0000000  0  7 21 22 26 28 03 17 23
 -11605567.41908  -9043295.00408  16268229.69308  16268230.69108         0.00001
 -12262530.39508  -9555215.73808  16785375.11708  16785375.69608         0.00001
 -19105295.61508 -14887234.65508  15574341.28208  15574340.55608         0.00001
  -1483439.71208  -1155926.83307  18188078.80808  18188078.92507         0.00001
 -35928541.67408 -27996246.39708  13644885.87208  13644886.25108         0.00001
 -30953295.36408 -24119429.50508  13890341.17208  13890341.05608         0.00001
 -26334879.10908 -20520673.07308  13969316.31508  13969316.22008         0.00001
 93 04 17 07 08 00.0000000  0  7 21 22 26 28 03 17 23
 -11976738.24608  -9332518.93508  16197598.18008  16197599.01308         0.00001
 -12268006.01508  -9559482.50708  16784333.23908  16784333.77508         0.00001
 -19030789.75608 -14829178.14308  15588519.27108  15588518.53708         0.00001
  -1976994.96808  -1540515.29607  18094158.27508  18094158.42907         0.00001
 -35947135.76608 -28010735.32208  13641347.53308  13641347.93508         0.00001
 -31032208.35408 -24180920.14408  13875324.44308  13875324.33408         0.00001
 -26492427.23908 -20643437.79908  13939335.88308  13939335.75608         0.00001
 93 04 17 07 10 00.0000000  0  7 21 22 28 26 03 17 23
 -12344512.00408  -9619095.78908  16127613.05808  16127613.85908         0.00001
 -12266348.63808  -9558191.11208  16784648.67408  16784649.28508         0.00001
  -2469912.46508  -1924606.72607  18000359.06608  18000359.23307         0.00001
 -18948080.02608 -14764729.00408  15604258.34708  15604257.75008         0.00001
 -35957437.67708 -28018762.81308  13639387.17908  13639387.56408         0.00001
 -31108245.83008 -24240170.10908  13860855.05408  13860854.89408         0.00001
 -26644262.13508 -20761750.66908  13910442.60908  13910442.49208         0.00001
 93 04 17 07 12 00.0000000  0  7 21 22 28 26 03 17 23
 -12708677.78408  -9902861.22808  16058314.49108  16058315.33708         0.00001
 -12257615.93608  -9551386.49208  16786310.54008  16786311.12708         0.00001
  -2962202.97608  -2308209.52207  17906679.14708  17906679.22707         0.00001
 -18857108.04508 -14693841.75908  15621569.83208  15621569.21808         0.00001
 -35959336.31308 -28020242.29508  13639025.93908  13639026.27408         0.00001
 -31181401.36208 -24297174.40408  13846933.98308  13846933.82908         0.00001
 -26789770.66408 -20875133.90908  13882753.21408  13882753.15508         0.00001
 93 04 17 07 14 00.0000000  0  7 21 28 22 26 03 17 23
 -13069161.99408 -10183757.92008  15989716.63608  15989717.35308         0.00001
  -3453611.07208  -2691124.74707  17813167.09308  17813167.16807         0.00001
 -12241997.08508  -9539216.03508  16789282.76708  16789283.42608         0.00001
 -18758172.66808 -14616749.27008  15640396.59108  15640396.02708         0.00001
 -35952850.55608 -28015188.48608  13640260.13308  13640260.49508         0.00001
 -31252097.66408 -24352262.41808  13833480.90208  13833480.76108         0.00001
 -26929226.32708 -20983800.61808  13856215.66408  13856215.57408         0.00001
 93 04 17 07 16 00.0000000  0  7 21 28 22 26 03 17 23
 -13426222.74308 -10461986.98808  15921770.10408  15921770.90208         0.00001
  -3943809.98908  -3073097.80107  17719885.30908  17719885.41107         0.00001
 -12219641.83308  -9521796.42808  16793536.95808  16793537.53008         0.00001
 -18651354.99908 -14533514.73808  15660723.33908  15660722.70908         0.00001
 -35937963.56608 -28003588.26208  13643093.06208  13643093.42208         0.00001
 -31320321.16808 -24405423.57908  13820498.38708  13820498.26908         0.00001
 -27063220.87008 -21088211.91908  13830717.34508  13830717.23408         0.00001
 93 04 17 07 18 00.0000000  0  7 28 21 22 26 03 17 23
  -4432855.75408  -3454172.30508  17626822.85708  17626822.95608         0.00001
 -13779744.46708 -10737458.36508  15854497.06608  15854497.85908         0.00001
 -12190629.70808  -9499189.65008  16799057.77808  16799058.37108         0.00001
 -18536844.66208 -14444285.91808  15682513.96308  15682513.21208         0.00001
 -35914586.03208 -27985372.03908  13647541.69508  13647542.06208         0.00001
 -31385424.46108 -24456153.41308  13808109.68208  13808109.57608         0.00001
 -27191839.03908 -21188433.84908  13806242.10208  13806241.96608         0.00001
 93 04 17 07 20 00.0000000  0  7 28 21 22 26 03 17 23
  -4920996.82508  -3834541.82608  17533932.67908  17533932.73808         0.00001
 -14129230.74508 -11009785.23508  15787991.92308  15787992.75208         0.00001
 -12155033.27708  -9471452.23408  16805831.49908  16805832.22508         0.00001
 -18414513.34808 -14348962.83508  15705792.85808  15705792.10808         0.00001
 -35882624.64108 -27960467.09508  13653623.79108  13653624.15908         0.00001
 -31447486.04108 -24504513.08808  13796299.72808  13796299.62808         0.00001
 -27314766.03008 -21284221.09008  13782849.84808  13782849.74808         0.00001
 93 04 17 07 22 00.0000000  0  7 28 21 22 26 03 17 23
  -5407500.49608  -4213635.45508  17441354.11208  17441354.05708         0.00001
 -14475078.78808 -11279277.10708  15722179.26408  15722180.02508         0.00001
 -12112959.04508  -9438667.16408  16813838.03508  16813838.79408         0.00001
 -18284402.62108 -14247577.86608  15730552.07408  15730551.40108         0.00001
 -35842020.20808 -27928827.31508  13661350.57508  13661350.98008         0.00001
 -31506836.87108 -24550760.49208  13785005.64608  13785005.52208         0.00001
 -27431671.58208 -21375316.29508  13760603.41708  13760603.29408         0.00001
 93 04 17 07 24 00.0000000  0  7 28 21 22 26 03 17 23
  -5891951.75108  -4591129.83408  17349165.98408  17349165.83808         0.00001
 -14817238.11508 -11545894.65508  15657068.39508  15657069.16308         0.00001
 -12064458.82708  -9400874.83508  16823067.32408  16823068.06708         0.00001
 -18146627.25708 -14140220.45708  15756769.91108  15756769.22508         0.00001
 -35792664.06908 -27890368.02208  13670742.74708  13670743.16808         0.00001
 -31563174.83308 -24594660.20108  13774284.87908  13774284.73108         0.00001
 -27542940.24008 -21462019.13008  13739429.70508  13739429.54108         0.00001
 93 04 17 07 26 00.0000000  0  7 21 28 22 26 03 17 23
 -15155438.08808 -11809426.99008  15592710.94008  15592711.77608         0.00001
  -6374728.05508  -4967319.06908  17257296.60008  17257296.38208         0.00001
 -12009541.96508  -9358082.53208  16833517.67308  16833518.37908         0.00001
 -18001180.04608 -14026884.98008  15784447.62308  15784446.90408         0.00001
 -35734401.89308 -27844968.94908  13681829.70908  13681830.09908         0.00001
 -31616590.00408 -24636282.41008  13764120.31708  13764120.21408         0.00001
 -27648547.53608 -21544310.50508  13719333.28708  13719333.14808         0.00001
 93 04 17 07 28 00.0000000  0  7 21 28 22 26 03 17 23
 -15489539.67908 -12069765.78908  15529133.50408  15529134.18208         0.00001
  -6855166.60408  -5341686.65608  17165872.05208  17165871.98608         0.00001
 -11948333.67408  -9310387.81608  16845165.28908  16845165.97408         0.00001
 -17848383.07108 -13907822.41608  15813523.86708  15813523.21208         0.00001
 -35667202.71908 -27792605.98208  13694617.31608  13694617.73208         0.00001
 -31666681.10808 -24675314.44208  13754588.25008  13754588.16308         0.00001
 -27748775.49308 -21622410.19008  13700260.50708  13700260.36308         0.00001
 93 04 17 07 30 00.0000000  0  7 21 28 22 26 03 17 23
 -15819528.73208 -12326900.02008  15466338.56008  15466339.24608         0.00001
  -7333350.13308  -5714297.05808  17074876.55608  17074876.63608         0.00001
 -11881003.37308  -9257922.71308  16857977.93208  16857978.67008         0.00001
 -17688127.90508 -13782948.27108  15844019.49308  15844018.83308         0.00001
 -35591077.88408 -27733287.95808  13709103.37208  13709103.80108         0.00001
 -31713675.20108 -24711933.21108  13745645.61008  13745645.48108         0.00001
 -27843502.79008 -21696223.64308  13682234.55108  13682234.31308         0.00001
 93 04 17 07 32 00.0000000  0  7 21 28 22 26 03 17 23
 -16145668.88708 -12581035.11808  15404276.06608  15404276.75608         0.00001
  -7809252.99008  -6085130.33108  16984315.18308  16984315.16708         0.00001
 -11807725.40408  -9200823.06108  16871922.32308  16871922.94608         0.00001
 -17520648.92108 -13652445.17608  15875889.63508  15875888.94408         0.00001
 -35506049.40808 -27667032.03308  13725283.73608  13725284.23808         0.00001
 -31757433.07108 -24746030.24708  13737318.83508  13737318.67708         0.00001
 -27932664.91008 -21765700.60008  13665267.58708  13665267.36108         0.00001
 93 04 17 07 34 00.0000000  0  7 21 28 22 26 03 17 23
 -16467851.06908 -12832086.08308  15342966.76708  15342967.42708         0.00001
  -8282577.25808  -6453954.35208  16894244.56008  16894244.41708         0.00001
 -11728636.25108  -9139195.22508  16886972.54708  16886973.16008         0.00001
 -17346074.74808 -13516413.35708  15909109.91908  15909109.34408         0.00001
 -35412103.26508 -27593827.28808  13743161.15708  13743161.67008         0.00001
 -31798238.64008 -24777826.78008  13729553.72008  13729553.60308         0.00001
 -28016427.75308 -21830970.32708  13649328.02808  13649327.79408         0.00001
 93 04 17 07 36 00.0000000  0  7 21 28 22 26 03 17 23
 -16786157.63408 -13080117.09208  15282395.04308  15282395.67308         0.00001
  -8752985.72608  -6820506.34208  16804728.73208  16804728.58408         0.00001
 -11643910.85008  -9073175.51208  16903095.35208  16903096.02908         0.00001
 -17164376.40108 -13374830.23708  15943685.86508  15943685.51908         0.00001
 -35309266.02508 -27513694.41308  13762730.49308  13762730.96908         0.00001
 -31835762.84808 -24807066.42108  13722413.12508  13722413.00208         0.00001
 -28094895.47308 -21892113.98508  13634396.07508  13634395.83008         0.00001
 93 04 17 07 38 00.0000000  0  7 21 28 22 26 03 17 23
 -17100401.71008 -13324982.51308  15222596.31408  15222596.89708         0.00001
  -9220473.90208  -7184782.76008  16715768.72808  16715768.52408         0.00001
 -11553642.60708  -9002836.69908  16920272.81308  16920273.66908         0.00001
 -16975961.79208 -13228013.66508  15979540.05108  15979539.55008         0.00001
 -35197486.31708 -27426593.37608  13784001.48308  13784001.98308         0.00001
 -31870014.84608 -24833756.28108  13715895.16508  13715895.00908         0.00001
 -28168094.34408 -21949152.04108  13620466.72808  13620466.53308         0.00001
 93 04 17 07 40 00.0000000  0  7 21 28 22 26 03 17 23
 -17410051.64608 -13566268.09808  15163671.79408  15163672.39008         0.00001
  -9684624.93708  -7546458.78908  16627443.60408  16627443.40108         0.00001
 -11457802.29508  -8928156.01708  16938510.68508  16938511.46108         0.00001
 -16780685.26708 -13075850.14908  16016700.09108  16016699.48108         0.00001
 -35076595.13008 -27332392.49608  13807006.35808  13807006.86108         0.00001
 -31900894.70708 -24857818.51108  13710018.89308  13710018.73808         0.00001
 -28235904.40108 -22001991.02508  13607562.93308  13607562.71208         0.00001
 93 04 17 07 42 00.0000000  0  7 21 28 22 26 03 17 23
 -17715461.75008 -13804249.91708  15105554.15308  15105554.73108         0.00001
 -10144962.82808  -7905163.51008  16539844.14008  16539843.86908         0.00001
 -11356436.94308  -8849170.11208  16957800.02308  16957800.77708         0.00001
 -16578216.64608 -12918082.39508  16055228.55408  16055227.93108         0.00001
 -34946500.97908 -27231020.46908  13831762.50208  13831762.99308         0.00001
 -31927948.96308 -24878899.75208  13704870.67808  13704870.51308         0.00001
 -28298468.31508 -22050742.11308  13595657.41008  13595657.17108         0.00001
 93 04 17 07 44 00.0000000  0  8 21 28 01 22 26 03 17 23
 -18016816.26408 -14039071.53908  15048208.23308  15048208.78608         0.00001
 -10601760.12108  -8261109.32808  16452918.32808  16452918.05208         0.00001
        -0.43417        -0.82817  18032988.33017  18032990.62017         0.00011
 -11249559.84408  -8765889.35108  16978137.94108  16978138.97108         0.00001
 -16368873.69508 -12754958.02308  16095065.15508  16095064.48408         0.00001
 -34807084.93008 -27122384.64408  13858292.54708  13858293.02708         0.00001
 -31951397.47508 -24897171.31708  13700408.54408  13700408.36708         0.00001
 -28355751.89508 -22095378.65508  13584756.68308  13584756.45408         0.00001
 93 04 17 07 46 00.0000000  0  8 28 01 22 26 03 17 23 21
 -11054079.43908  -8613565.83608  16366844.79608  16366844.47408         0.00001
   -508700.23307   -396389.87907  17936185.62907  17936187.91207         0.00001
 -11137277.38308  -8678396.61708  16999504.68708  16999505.75208         0.00001
 -16152441.88708 -12586309.85808  16136250.85808  16136250.09108         0.00001
 -34658322.83408 -27006466.17008  13886601.05908  13886601.52108         0.00001
 -31970633.46208 -24912160.40708  13696748.10108  13696747.89808         0.00001
 -28407584.55408 -22135767.72208  13574893.18308  13574892.98308         0.00001
 -18313678.91708 -14270393.00308  14991717.10508  14991717.59608         0.00001
 93 04 17 07 48 00.0000000  0  8 28 01 22 26 03 17 23 21
 -11501940.66008  -8962548.53408  16281619.57708  16281619.16708         0.00001
  -1017498.23107   -792855.48707  17839364.22707  17839366.41207         0.00001
 -11019755.73808  -8586821.40708  17021868.37008  17021869.41708         0.00001
 -15929663.47608 -12412716.28708  16178644.09608  16178643.38508         0.00001
 -34500255.06308 -26883296.52708  13916680.42308  13916680.86908         0.00001
 -31985777.05308 -24923960.61308  13693866.34708  13693866.20108         0.00001
 -28453606.86608 -22171629.23808  13566135.42308  13566135.20608         0.00001
 -18605877.86508 -14498080.41508  14936113.44808  14936113.85108         0.00001
 93 04 17 07 50 00.0000000  0  8 28 01 22 26 03 17 23 21
 -11945351.83608  -9308063.67908  16197241.27708  16197240.88308         0.00001
  -1526616.11007  -1189570.32807  17742482.16607  17742484.05507         0.00001
 -10897158.96508  -8491291.56208  17045197.74108  17045198.94508         0.00001
 -15700497.95508 -12234145.75308  16222252.83508  16222252.19308         0.00001
 -34332923.06708 -26752908.01208  13948522.68408  13948523.15408         0.00001
 -31997290.76008 -24932932.32708  13691675.32208  13691675.18408         0.00001
 -28494613.67608 -22203582.57408  13558332.07108  13558331.85608         0.00001
 -18893237.64308 -14721997.04508  14881430.62308  14881431.07508         0.00001
 93 04 17 07 52 00.0000000  0  8 28 01 22 26 03 17 23 21
 -12384254.13508  -9650065.40308  16113720.91808  16113720.56108         0.00001
  -2036006.92608  -1586497.80107  17645548.05808  17645549.65607         0.00001
 -10769785.18208  -8392039.39508  17069436.43808  17069437.49908         0.00001
 -15464930.31008 -12050586.55208  16267079.89408  16267079.17808         0.00001
 -34156507.98608 -26615441.75808  13982093.37808  13982093.90408         0.00001
 -32004849.14008 -24938821.97708  13690237.06408  13690236.84308         0.00001
 -28530810.21908 -22231787.65408  13551444.08308  13551443.86708         0.00001
 -19176395.63808 -14942639.57908  14827547.39708  14827547.83208         0.00001
 93 04 17 07 54 00.0000000  0  8 28 01 22 26 03 17 23 21
 -12818787.46008  -9988662.71708  16031031.81208  16031031.47208         0.00001
  -2545310.62108  -1983357.38007  17548630.50508  17548631.85607         0.00001
 -10637959.64708  -8289318.25508  17094522.11408  17094523.10308         0.00001
 -15223313.60908 -11862313.80308  16313058.17808  16313057.35208         0.00001
 -33971222.17108 -26471063.26508  14017352.13108  14017352.64408         0.00001
 -32008703.92708 -24941825.70908  13689503.52608  13689503.35708         0.00001
 -28562262.28708 -22256295.73808  13545458.91708  13545458.70308         0.00001
 -19455246.11608 -15159925.60008  14774483.87708  14774484.24408         0.00001
 93 04 17 07 56 00.0000000  0  8 28 01 22 26 03 17 23 21
 -13248504.30208 -10323506.92808  15949259.45608  15949259.12608         0.00001
  -3054539.40708  -2380158.58207  17451726.99408  17451728.46607         0.00001
 -10501881.07608  -8183283.08008  17120416.98408  17120418.04708         0.00001
 -14975963.54808 -11669573.50008  16360127.14608  16360126.36308         0.00001
 -33777154.37108 -26319841.65008  14054282.02008  14054282.54708         0.00001
 -32008723.59308 -24941841.02908  13689499.76908  13689499.61408         0.00001
 -28588983.64808 -22277117.55808  13540374.04508  13540373.82108         0.00001
 -19729879.03008 -15373925.20208  14722222.99208  14722223.31308         0.00001
 93 04 17 07 58 00.0000000  0  8 28 01 22 26 03 17 23 21
 -13673450.42608 -10654633.69108  15868394.60308  15868394.28308         0.00001
  -3563739.28907  -2776937.27307  17354829.01007  17354830.54507         0.00001
 -10361805.09608  -8074133.07308  17147072.82108  17147073.71808         0.00001
 -14723190.15808 -11472607.23308  16408228.32908  16408227.57208         0.00001
 -33574457.40908 -26161896.00908  14092854.05608  14092854.58708         0.00001
 -32004722.03908 -24938722.94108  13690261.31308  13690261.04608         0.00001
 -28610828.68508 -22294139.64708  13536217.04008  13536216.77908         0.00001
 -20000463.78308 -15584770.40008  14670732.27308  14670732.61008         0.00001
 93 04 17 08 00 00.0000000  0  8 28 01 22 26 03 17 23 21
 -14093291.32908 -10981782.36608  15788501.46808  15788501.17208         0.00001
  -4072859.26407  -3173653.68408  17257946.37607  17257947.78108         0.00001
 -10217910.44808  -7962007.48308  17174455.08508  17174456.05208         0.00001
 -14465098.21308 -11271496.62908  16457341.59408  16457340.80808         0.00001
 -33363208.77408 -25997286.72308  14133053.30608  14133053.94408         0.00001
 -31997066.29908 -24932757.43208  13691718.12808  13691717.90108         0.00001
 -28628199.94708 -22307675.67508  13532911.41308  13532911.15208         0.00001
 -20267026.52908 -15792481.57108  14620007.02808  14620007.39108         0.00001
 93 04 17 08 02 00.0000000  0  8 28 01 22 26 03 17 23 21
 -14508036.49708 -11304960.34908  15709578.01908  15709577.75508         0.00001
  -4581743.68108  -3570186.58608  17161108.60708  17161109.93808         0.00001
 -10070433.15808  -7847090.22008  17202519.08208  17202520.14208         0.00001
 -14201626.95108 -11066194.34508  16507478.50108  16507477.80908         0.00001
 -33143551.17608 -25826125.01108  14174852.78108  14174853.40008         0.00001
 -31985878.85008 -24924039.94608  13693847.04808  13693846.84808         0.00001
 -28641463.42908 -22318010.84008  13530387.45308  13530387.22208         0.00001
 -20529505.94908 -15997010.93008  14570058.77808  14570059.18608         0.00001
 93 04 17 08 04 00.0000000  0  8 28 01 22 26 03 17 23 21
 -14917636.25008 -11624128.93908  15631633.84008  15631633.46508         0.00001
  -5090202.91508  -3966388.18808  17064351.84108  17064352.99208         0.00001
  -9919586.54108  -7729547.49008  17231224.28308  17231225.36408         0.00001
 -13933307.34808 -10857114.13808  16558538.05708  16558537.40708         0.00001
 -32915605.46808 -25648505.04008  14218229.49808  14218230.09408         0.00001
 -31970771.84608 -24912268.26708  13696721.79808  13696721.60408         0.00001
 -28650824.38808 -22325305.07608  13528606.06608  13528605.81608         0.00001
 -20788174.83808 -16198571.05108  14520835.66908  14520836.08308         0.00001
 93 04 17 08 06 00.0000000  0  8 28 01 22 26 03 17 23 21
 -15321805.84608 -11939066.26708  15554722.76108  15554722.26308         0.00001
  -5598281.20708  -4362293.01108  16967667.60208  16967668.44908         0.00001
  -9765644.86508  -7609593.03108  17260518.46008  17260519.60008         0.00001
 -13660220.77108 -10644319.42208  16610504.63708  16610504.02408         0.00001
 -32679559.73608 -25464573.36208  14263147.55208  14263148.13608         0.00001
 -31952053.00608 -24897682.17208  13700283.89008  13700283.67108         0.00001
 -28656286.29308 -22329561.08608  13527566.72008  13527566.43808         0.00001
 -21043031.31808 -16397160.44008  14472338.00908  14472338.37008         0.00001
 93 04 17 08 08 00.0000000  0  8 28 01 22 26 03 17 23 21
 -15720391.88008 -12249652.78008  15478874.46708  15478874.01908         0.00001
  -6105611.06408  -4757614.67308  16871125.67008  16871126.49008         0.00001
  -9608710.45808  -7487306.53308  17290382.03508  17290383.17108         0.00001
 -13382634.90408 -10428018.76408  16663327.49508  16663326.94808         0.00001
 -32435435.54908 -25274346.78108  14309602.87208  14309603.51608         0.00001
 -31929531.25508 -24880132.77308  13704569.68508  13704569.56208         0.00001
 -28657755.79108 -22330706.13408  13527287.11708  13527286.81708         0.00001
 -21293743.02808 -16592520.15308  14424629.17008  14424629.46908         0.00001
 93 04 17 08 10 00.0000000  0  8 28 01 22 26 03 17 23 21
 -16113069.88308 -12555635.63308  15404150.39708  15404149.94708         0.00001
  -6611810.98408  -5152055.89108  16774798.83408  16774799.57908         0.00001
  -9448921.30008  -7362795.55308  17320789.05008  17320790.25508         0.00001
 -13100702.69008 -10208331.34908  16716977.47708  16716976.90808         0.00001
 -32183294.54508 -25077873.32708  14357583.74208  14357584.41208         0.00001
 -31902979.07608 -24859442.78208  13709622.40008  13709622.23508         0.00001
 -28655192.28408 -22328708.58208  13527774.85808  13527774.60808         0.00001
 -21540546.12108 -16784834.17708  14377664.04008  14377664.36408         0.00001
 93 04 17 08 12 00.0000000  0  8 28 01 22 26 03 17 23 21
 -16499684.56108 -12856893.81408  15330580.10708  15330579.57408         0.00001
  -7116882.49908  -5545617.85908  16678686.66408  16678687.52308         0.00001
  -9286274.95808  -7236058.20308  17351739.69708  17351740.86708         0.00001
 -12814303.96308  -9985163.52608  16771477.42208  16771476.81808         0.00001
 -31923061.71308 -24875094.55808  14407104.45508  14407105.10008         0.00001
 -31872278.36208 -24835520.16608  13715464.55808  13715464.33708         0.00001
 -28648544.07708 -22323528.14808  13529040.02908  13529039.75608         0.00001
 -21783325.87808 -16974013.13408  14331464.54408  14331464.87808         0.00001
 93 04 17 08 14 00.0000000  0  8 28 01 22 26 03 17 23 21
 -16879752.69708 -13153050.79108  15258255.50008  15258255.00208         0.00001
  -7620343.75008  -5937925.11108  16582881.00208  16582881.75508         0.00001
  -9120743.53208  -7107072.76608  17383239.31208  17383240.61908         0.00001
 -12523293.88208  -9758402.44508  16826854.73908  16826854.19808         0.00001
 -31654641.64608 -24665936.11208  14458183.13908  14458183.77408         0.00001
 -31837234.02908 -24808212.91508  13722133.27508  13722133.13108         0.00001
 -28637866.21308 -22315207.72808  13531071.92908  13531071.65008         0.00001
 -22021937.82408 -17159944.46308  14286058.17708  14286058.42208         0.00001
 93 04 17 08 16 00.0000000  0  8 28 01 22 26 03 17 23 21
 -17252821.47108 -13443753.71208  15187262.81808  15187262.33608         0.00001
  -8121844.05208  -6328704.38908  16487448.62508  16487449.35908         0.00001
  -8952433.45408  -6975922.16208  17415267.81108  17415269.09508         0.00001
 -12227761.69308  -9528117.63908  16883092.65708  16883092.19208         0.00001
 -31378078.28408 -24450432.24608  14510811.45808  14510812.13408         0.00001
 -31797664.18108 -24777379.29308  13729663.19508  13729663.06008         0.00001
 -28622846.18808 -22303503.80508  13533930.08508  13533929.82908         0.00001
 -22256203.47308 -17342489.05908  14241478.85208  14241479.11708         0.00001
 93 04 17 08 18 00.0000000  0  8 28 01 22 26 03 17 23 21
 -17618994.47508 -13729083.30208  15117582.30108  15117581.91708         0.00001
  -8621459.77008  -6718015.18508  16392374.73608  16392375.41908         0.00001
  -8781493.34008  -6842722.15407  17447796.76808  17447797.88307         0.00001
 -11927915.46808  -9294471.25308  16940151.45008  16940151.07508         0.00001
 -31093463.78908 -24228654.77508  14564971.80808  14564972.45208         0.00001
 -31753477.62008 -24742948.22708  13738071.65508  13738071.46208         0.00001
 -28603888.39408 -22288731.49708  13537537.65008  13537537.35908         0.00001
 -22485821.95308 -17521412.50808  14197783.87908  14197784.10708         0.00001
 93 04 17 08 20 00.0000000  0  8 28 01 22 26 03 17 23 21
 -17978026.54508 -14008848.52908  15049260.84808  15049260.43608         0.00001
  -9118606.67508  -7105402.23108  16297770.69408  16297771.39208         0.00001
  -8607931.99407  -6707479.63907  17480824.25407  17480825.62207         0.00001
 -11623482.23808  -9057250.57408  16998083.18908  16998082.77508         0.00001
 -30800752.35008 -24000568.01008  14620672.98408  14620673.62408         0.00001
 -31704521.48708 -24704800.59908  13747387.73008  13747387.48108         0.00001
 -28581031.10608 -22270920.62308  13541887.27008  13541886.96708         0.00001
 -22710922.79208 -17696815.71608  14154948.59108  14154948.77808         0.00001
 93 04 17 08 22 00.0000000  0  8 01 22 26 03 28 17 23 21
  -9612957.94608  -7490610.87208  16203698.69608  16203699.35708         0.00001
  -8431977.67907  -6570372.46607  17514307.35207  17514308.56407         0.00001
 -11315090.27308  -8816945.16108  17056768.30108  17056767.88408         0.00001
 -30500124.14608 -23766312.33008  14677880.68208  14677881.36008         0.00001
 -18329510.64608 -14282732.22908  14982375.58608  14982375.17408         0.00001
 -31650807.71108 -24662945.71908  13757609.08108  13757608.93208         0.00001
 -28554101.65708 -22249936.63308  13547011.76408  13547011.46408         0.00001
 -22931553.95408 -17868736.06808  14112963.79708  14112963.99808         0.00001
 93 04 17 08 24 00.0000000  0  8 01 22 26 03 28 17 23 21
 -10104970.28208  -7873996.98408  16110071.69408  16110072.37008         0.00001
  -8253946.65807  -6431647.09707  17548185.62007  17548186.82307         0.00001
 -11002947.08008  -8573716.70908  17116167.13408  17116166.67108         0.00001
 -30191851.50408 -23526099.95108  14736543.07708  14736543.75408         0.00001
 -18673583.61408 -14550841.01708  14916900.66208  14916900.31608         0.00001
 -31592516.25108 -24617523.81908  13768701.61808  13768701.43908         0.00001
 -28523279.74208 -22225919.55808  13552876.99208  13552876.69608         0.00001
 -23148070.05408 -18037449.86808  14071762.08708  14071762.32408         0.00001
 93 04 17 08 26 00.0000000  0  8 01 22 26 03 28 17 23 21
 -10594232.59908  -8255240.23808  16016968.13408  16016968.75208         0.00001
  -8074047.20107  -6291465.82607  17582419.48607  17582420.81707         0.00001
 -10687018.27808  -8327538.43408  17176286.42908  17176286.02108         0.00001
 -29876102.10108 -23280061.52208  14796628.20008  14796628.97508         0.00001
 -19009879.70308 -14812889.89308  14852905.65208  14852905.24008         0.00001
 -31529429.30608 -24568365.17908  13780706.63608  13780706.44908         0.00001
 -28488631.82508 -22198921.18008  13559470.27408  13559469.99508         0.00001
 -23360245.95608 -18202781.69108  14031386.39908  14031386.57408         0.00001
 93 04 17 08 28 00.0000000  0  8 01 22 26 03 28 17 23 21
 -11080528.93708  -8634172.35308  15924428.99208  15924429.51808         0.00001
  -7892349.62208  -6149883.42907  17616995.53608  17616996.84707         0.00001
 -10367605.60308  -8078645.44208  17237068.65908  17237068.11508         0.00001
 -29552911.10608 -23028224.45408  14858129.44608  14858130.22308         0.00001
 -19338309.53308 -15068809.22308  14790407.70908  14790407.20608         0.00001
 -31461724.77108 -24515608.42508  13793590.43508  13793590.22108         0.00001
 -28450367.70308 -22169104.98208  13566751.66208  13566751.36008         0.00001
 -23568101.61908 -18364747.09408  13991832.78008  13991832.92008         0.00001
 93 04 17 08 30 00.0000000  0  8 01 22 26 03 28 17 23 21
 -11563463.83708  -9010485.16908  15832529.40308  15832529.94508         0.00001
  -7708900.94608  -6006936.56907  17651904.80808  17651906.14707         0.00001
 -10044580.30908  -7826937.39908  17298538.33408  17298537.66608         0.00001
 -29222296.38108 -22770602.65908  14921043.34008  14921044.15908         0.00001
 -19658730.31908 -15318487.74008  14729433.44308  14729432.99908         0.00001
 -31388621.31508 -24458644.72408  13807501.59108  13807501.36008         0.00001
 -28408219.77708 -22136262.44008  13574772.16808  13574771.83508         0.00001
 -23771650.50008 -18523356.56108  13953098.68308  13953098.77508         0.00001
 93 04 17 08 32 00.0000000  0  8 03 01 22 26 28 17 23 21
 -28884350.17708 -22507268.02208  14985352.41508  14985353.26208         0.00001
 -12042800.34408  -9383994.04908  15741314.60708  15741315.18508         0.00001
  -7523819.01208  -5862717.02607  17687124.86308  17687126.20607         0.00001
  -9718081.28408  -7572522.55508  17360669.10408  17360668.37908         0.00001
 -19970613.43208 -15561513.53708  14670084.15308  14670083.62008         0.00001
 -31310466.14408 -24397744.62308  13822374.08808  13822373.83108         0.00001
 -28362187.99608 -22100393.52508  13583531.69908  13583531.38008         0.00001
 -23970964.58308 -18678666.19808  13915170.40808  13915170.51908         0.00001
 93 04 17 08 34 00.0000000  0  8 03 01 22 26 28 17 23 21
 -28539198.40108 -22238318.64208  15051032.73108  15051033.52608         0.00001
 -12518638.34608  -9754776.83008  15650765.51908  15650766.08008         0.00001
  -7337253.41208  -5717341.38407  17722627.21308  17722628.63107         0.00001
  -9388484.72108  -7315694.05008  17423389.06408  17423388.55308         0.00001
 -20273878.87408 -15797824.27708  14612374.51908  14612373.95108         0.00001
 -31227471.03908 -24333073.15508  13838167.44908  13838167.27108         0.00001
 -28312965.85408 -22062038.61908  13592898.41008  13592898.10708         0.00001
 -24165743.80408 -18830442.18208  13878105.13808  13878105.24708         0.00001
 93 04 17 08 36 00.0000000  0  8 03 01 22 26 28 17 23 21
 -28187066.31508 -21963930.08008  15118041.27008  15118042.16308         0.00001
 -12990620.86008 -10122555.34508  15560950.29008  15560950.63208         0.00001
  -7149447.24107  -5570999.13607  17758365.72207  17758367.22007         0.00001
  -9055587.77308  -7056293.81808  17486737.20808  17486736.75308         0.00001
 -20568738.72108 -16027585.20708  14556264.68108  14556264.16008         0.00001
 -31139345.94208 -24264404.29008  13854937.17908  13854937.03208         0.00001
 -28259922.10608 -22020705.83508  13602992.32608  13602992.01508         0.00001
 -24355972.93708 -18978672.65208  13841905.62308  13841905.77508         0.00001
 93 04 17 08 38 00.0000000  0  8 03 01 22 26 28 17 23 21
 -27828113.57108 -21684226.71408  15186347.81208  15186348.57108         0.00001
 -13458630.15208 -10487237.84408  15471891.03008  15471891.41108         0.00001
  -6960573.51507  -5423825.00707  17794307.29307  17794308.83007         0.00001
  -8719595.55907  -6794481.68208  17550674.40407  17550673.95908         0.00001
 -20854864.29208 -16250540.20708  14501816.81008  14501816.40708         0.00001
 -31045983.01508 -24191654.00508  13872703.59708  13872703.43208         0.00001
 -28203402.87308 -21976664.88008  13613747.57908  13613747.27308         0.00001
 -24541968.64708 -19123604.35208  13806511.88308  13806512.02208         0.00001
 93 04 17 08 40 00.0000000  0  8 03 01 22 26 28 17 23 21
 -27462443.20808 -21399288.83908  15255932.58008  15255933.34408         0.00001
 -13922479.81008 -10848679.05908  15383623.32108  15383623.75608         0.00001
  -6770744.96807  -5275906.89907  17830430.66807  17830432.21907         0.00001
  -8380966.48107  -6530614.85007  17615113.30807  17615112.77707         0.00001
 -21131828.41408 -16466356.40708  14449112.29508  14449111.83308         0.00001
 -30947249.38908 -24114718.74808  13891491.99408  13891491.87608         0.00001
 -28143544.92108 -21930022.32808  13625138.11708  13625137.85108         0.00001
 -24723602.19808 -19265136.97308  13771948.10608  13771948.31308         0.00001
 93 04 17 08 42 00.0000000  0  7 03 01 26 28 17 23 21
 -27090134.63408 -21109178.33608  15326780.53308  15326781.38008         0.00001
 -14381621.25608 -11206451.52408  15296251.46908  15296251.95508         0.00001
  -8039382.01307  -6264445.09007  17680114.63707  17680114.06207         0.00001
 -21399712.73708 -16675097.43508  14398135.55408  14398135.09308         0.00001
 -30843131.27608 -24033587.78908  13911305.07108  13911304.89508         0.00001
 -28080193.85308 -21880657.86808  13637193.54608  13637193.27408         0.00001
 -24900880.52308 -19403275.92808  13738213.15108  13738213.34408         0.00001
 93 04 17 08 44 00.0000000  0  6 03 01 28 17 23 21
 -26711318.57008 -20813997.07608  15398866.86008  15398867.83108         0.00001
 -14836116.63408 -11560603.68708  15209763.78908  15209764.21808         0.00001
 -21658164.06308 -16876488.07008  14348953.84108  14348953.39408         0.00001
 -30733675.95408 -23948297.96308  13932133.76408  13932133.55108         0.00001
 -28013288.23908 -21828523.63608  13649925.10908  13649924.87608         0.00001
 -25073699.84508 -19537940.32208  13705326.73808  13705326.89208         0.00001
 93 04 17 08 46 00.0000000  0  8 03 01 11 26 28 17 23 21
 -26326105.18108 -20513830.87508  15472170.62808  15472171.50108         0.00001
 -15286144.89208 -11911274.98408  15124126.25108  15124126.66408         0.00001
        -0.32117        -0.61117  18093370.44317  18093371.21317         0.00011
        -0.30117        -0.19617  17811691.52117  17811690.93117         0.00011
 -21907101.43308 -17070465.23308  14301582.61908  14301582.17108         0.00001
 -30618543.89808 -23858584.71508  13954042.59708  13954042.59508         0.00001
 -27942970.63408 -21773730.70508  13663306.12108  13663305.88208         0.00001
 -25241960.26808 -19669052.32508  13673307.88108  13673307.94308         0.00001
 93 04 17 08 48 00.0000000  0  8 03 01 11 26 28 17 23 21
 -25934607.30808 -20208767.69308  15546670.34908  15546671.19608         0.00001
 -15731037.38808 -12257944.38108  15039465.92908  15039466.40408         0.00001
   -510111.70607   -397490.00907  17996299.17207  17996300.39407         0.00001
    349285.07307    272170.32607  17878158.27407  17878157.70707         0.00001
 -22146285.00308 -17256842.04708  14256067.56608  14256067.06408         0.00001
 -30497816.21108 -23764511.24208  13977016.35808  13977016.31708         0.00001
 -27869060.16708 -21716138.14208  13677370.84608  13677370.61608         0.00001
 -25405512.85608 -19796495.86808  13642184.80808  13642184.88208         0.00001
 93 04 17 08 50 00.0000000  0  8 03 11 28 01 17 23 21 26
 -25537068.07408 -19898996.95208  15622319.62808  15622320.48708         0.00001
  -1019361.72807   -794308.19807  17899392.19807  17899393.43407         0.00001
 -22375519.06908 -17435466.00608  14212445.81308  14212445.29508         0.00001
 -16170645.58808 -12600496.14808  14955811.21908  14955811.67208         0.00001
 -30371619.94508 -23666176.54208  14001030.84608  14001030.74008         0.00001
 -27792069.68608 -21656145.56508  13692021.66608  13692021.40008         0.00001
 -25564894.02608 -19920688.97008  13611855.49608  13611855.66708         0.00001
    700715.89507    546012.63407  17945033.21807  17945032.74007         0.00001
 93 04 17 08 52 00.0000000  0  8 03 11 28 01 17 23 21 26
 -25133751.96808 -19584724.75108  15699068.18808  15699069.09208         0.00001
  -1527661.31407  -1190385.79707  17802666.03007  17802667.27107         0.00001
 -22595032.91208 -17606515.76308  14170673.67708  14170673.21108         0.00001
 -16604939.42808 -12938906.84508  14873167.76308  14873168.18608         0.00001
 -30239870.78008 -23563514.89908  14026101.86208  14026101.77308         0.00001
 -27711911.37908 -21593684.54908  13707275.28708  13707275.01808         0.00001
 -25720133.83108 -20041655.02408  13582314.38008  13582314.48508         0.00001
   1054316.82607    821545.93007  18012321.21207  18012320.67007         0.00001
 93 04 17 08 54 00.0000000  0  8 03 28 01 17 23 21 11 26
 -24725053.43808 -19266258.46608  15776840.97708  15776841.85108         0.00001
 -22804998.25408 -17770125.12808  14130718.58308  14130718.17308         0.00001
 -17034037.84308 -13273269.16708  14791513.06608  14791513.37708         0.00001
 -30102680.69608 -23456613.57508  14052208.27908  14052208.16608         0.00001
 -27628664.20108 -21528816.62008  13723116.68708  13723116.44208         0.00001
 -25871116.05408 -20159303.48608  13553583.48508  13553583.49708         0.00001
  -2035046.76007  -1585751.10407  17706113.88307  17706115.05007         0.00001
   1409695.18607   1098464.25507  18079947.38507  18079946.73107         0.00001
 93 04 17 08 56 00.0000000  0  8 03 11 26 28 01 17 23 21
 -24311376.48008 -18943912.90208  15855561.17608  15855562.09208         0.00001
  -2541558.32607  -1980435.48507  17609728.07507  17609729.16107         0.00001
   1766695.86707   1376646.69907  18147882.32507  18147881.50207         0.00001
 -23005250.92708 -17926166.18008  14092611.77208  14092611.40708         0.00001
 -17458007.85108 -13603635.32508  14710834.19008  14710834.45708         0.00001
 -29960230.10408 -23345613.15608  14079315.82108  14079315.72908         0.00001
 -27543057.41908 -21462110.03008  13739407.08208  13739406.86308         0.00001
 -26018084.51108 -20273824.34008  13525616.26408  13525616.32208         0.00001
 93 04 17 08 58 00.0000000  0  7 03 11 28 01 17 23 21
 -23892810.78508 -18617757.89108  15935211.60008  15935212.64808         0.00001
  -3046917.85108  -2374222.14407  17513561.39108  17513562.42007         0.00001
 -23195806.08308 -18074650.72208  14056350.40408  14056350.00908         0.00001
 -17876577.78708 -13929793.63608  14631182.90208  14631183.20308         0.00001
 -29812983.81408 -23230875.81808  14107335.79408  14107335.74608         0.00001
 -27454881.61508 -21393401.60808  13756186.41308  13756186.17608         0.00001
 -26161368.48708 -20385474.16108  13498350.18308  13498350.27008         0.00001
 93 04 17 09 00 00.0000000  0  7 03 11 28 01 17 23 21
 -23469436.48608 -18287855.93008  16015777.13608  16015778.19208         0.00001
  -3550832.65908  -2766883.03107  17417669.54908  17417670.61107         0.00001
 -23376498.73608 -18215450.20008  14021965.56508  14021965.11308         0.00001
 -18289447.64208 -14251510.32008  14552616.25908  14552616.64108         0.00001
 -29660315.63008 -23111913.62008  14136387.67208  14136387.59008         0.00001
 -27363511.52108 -21322204.13308  13773573.51008  13773573.30708         0.00001
 -26300769.02808 -20494097.93008  13471823.08608  13471823.17308         0.00001
 93 04 17 09 02 00.0000000  0  7 03 11 28 01 17 23 21
 -23041569.35708 -17954453.08308  16097197.56308  16097198.84508         0.00001
  -4053243.40608  -3158371.90107  17322063.86308  17322064.88007         0.00001
 -23547206.46608 -18348469.21808  13989481.08408  13989480.66808         0.00001
 -18696705.75808 -14568854.22108  14475117.52508  14475117.86108         0.00001
 -29502045.06108 -22988585.93508  14166505.52908  14166505.46208         0.00001
 -27269726.38808 -21249124.81008  13791420.26308  13791420.06708         0.00001
 -26436342.78808 -20599739.79808  13446024.27008  13446024.31708         0.00001
 93 04 17 09 04 00.0000000  0  8 03 11 31 28 01 17 23 21
 -22609661.63208 -17617901.76008  16179386.97108  16179388.12908         0.00001
  -4554222.27408  -3548744.99507  17226730.64808  17226731.75607         0.00001
         0.46818         0.17618  16563798.35718  16563798.18018         0.00011
 -23708320.74908 -18474012.82108  13958822.09008  13958821.61708         0.00001
 -19098503.46808 -14881943.26608  14398657.93008  14398658.26808         0.00001
 -29339197.42008 -22861691.70808  14197494.44608  14197494.37108         0.00001
 -27174136.88508 -21174639.49408  13809610.30108  13809610.12108         0.00001
 -26568493.67708 -20702714.48608  13420876.76208  13420876.82508         0.00001
 93 04 17 09 06 00.0000000  0  8 03 11 31 28 01 17 23 21
 -22174135.14608 -17278530.59808  16262265.00608  16262266.21208         0.00001
  -5053807.33008  -3938031.99807  17131662.74108  17131663.84607         0.00001
   -367131.43708   -286076.63308  16493935.38508  16493935.22208         0.00001
 -23859611.87308 -18591902.01108  13930032.43008  13930031.95508         0.00001
 -19494702.85008 -15190669.97908  14323263.67908  14323263.91308         0.00001
 -29171518.90108 -22731033.16408  14229402.69408  14229402.63908         0.00001
 -27076727.91908 -21098736.40208  13828146.56008  13828146.39308         0.00001
 -26697210.29208 -20803013.11808  13396382.79508  13396382.86108         0.00001
 93 04 17 09 08 00.0000000  0  8 03 11 31 28 01 17 23 21
 -21735325.57208 -16936601.22708  16345767.97708  16345768.96508         0.00001
  -5551947.96908  -4326193.48307  17036869.72308  17036870.87007         0.00001
   -728428.04308   -567606.46108  16425183.00608  16425182.88608         0.00001
 -24001681.10808 -18702605.31608  13902997.54308  13902997.09008         0.00001
 -19885491.59008 -15495180.61108  14248898.91908  14248899.19308         0.00001
 -28998912.28008 -22596534.54708  14262248.69208  14262248.65608         0.00001
 -26977243.01608 -21021215.69608  13847077.98708  13847077.75608         0.00001
 -26822694.73708 -20900793.18608  13372503.84908  13372503.96708         0.00001
 93 04 17 09 10 00.0000000  0  8 03 11 31 28 01 17 23 21
 -21293497.42608 -16592319.70308  16429845.12808  16429846.35308         0.00001
  -6048518.12508  -4713131.22908  16942375.63908  16942376.73208         0.00001
  -1084276.16508   -844890.70708  16357467.41208  16357467.25308         0.00001
 -24134437.32908 -18806051.73108  13877734.82308  13877734.35208         0.00001
 -20271047.98508 -15795614.07808  14175529.94508  14175530.15708         0.00001
 -28821985.61808 -22458669.66008  14295916.67408  14295916.67508         0.00001
 -26876025.90508 -20942345.23108  13866339.01908  13866338.78908         0.00001
 -26945441.52708 -20996440.00408  13349145.87408  13349145.99108         0.00001
 93 04 17 09 12 00.0000000  0  8 03 11 31 28 01 17 23 21
 -20848854.67208 -16245845.03808  16514457.96508  16514459.19508         0.00001
  -6543329.50108  -5098698.51508  16848216.10308  16848217.27108         0.00001
  -1433904.99708  -1117328.74808  16290935.18308  16290935.11608         0.00001
 -24257642.62408 -18902055.86408  13854289.63708  13854289.17108         0.00001
 -20650862.94308 -16091573.70108  14103253.56308  14103253.71208         0.00001
 -28640637.14108 -22317359.20508  14330426.17008  14330426.15708         0.00001
 -26773863.06208 -20862737.83108  13885779.93608  13885779.74208         0.00001
 -27065439.76908 -21089945.10208  13326310.99008  13326311.06508         0.00001
 93 04 17 09 14 00.0000000  0  8 03 11 31 28 01 17 23 21
 -20401550.64608 -15897296.61907  16599577.18108  16599578.41107         0.00001
  -7036139.45708  -5482706.24408  16754437.37508  16754438.61408         0.00001
  -1777684.69608  -1385209.01308  16225515.93808  16225516.01508         0.00001
 -24371372.42408 -18990676.50008  13832647.62408  13832647.18808         0.00001
 -21024723.44108 -16382893.49408  14032110.22808  14032110.35208         0.00001
 -28454595.71608 -22172391.90408  14365828.71208  14365828.66408         0.00001
 -26669871.71408 -20781705.62108  13905568.84908  13905568.63308         0.00001
 -27182409.78708 -21181090.54608  13304052.27608  13304052.38508         0.00001
 93 04 17 09 16 00.0000000  0  8 03 11 31 28 01 17 23 21
 -19951791.27708 -15546835.02907  16685163.78308  16685165.06807         0.00001
  -7526756.78608  -5865005.42408  16661076.07908  16661077.24208         0.00001
  -2115250.43608  -1648247.22308  16161279.30908  16161279.40108         0.00001
 -24475458.15408 -19071782.28108  13812840.72808  13812840.35408         0.00001
 -21392697.06608 -16669626.13608  13962087.15108  13962087.25108         0.00001
 -28264003.73808 -22023878.72508  14402097.15108  14402097.18508         0.00001
 -26564235.82408 -20699391.94208  13925670.70108  13925670.51508         0.00001
 -27296193.96508 -21269753.52108  13282399.86908  13282399.99408         0.00001
 93 04 17 09 18 00.0000000  0  8 03 11 31 28 01 17 23 21
 -19499736.59908 -15194584.73307  16771187.14208  16771188.01907         0.00001
  -8014941.43408  -6245409.02308  16568177.67908  16568178.69208         0.00001
  -2446126.95208  -1906073.04908  16098315.56208  16098315.57908         0.00001
 -24569808.30408 -19145301.90208  13794886.50008  13794886.05008         0.00001
 -21754889.52008 -16951853.97508  13893164.20008  13893164.26908         0.00001
 -28068740.01508 -21871725.23208  14439254.75908  14439254.68008         0.00001
 -26457465.47308 -20616194.27708  13945988.44808  13945988.23408         0.00001
 -27407116.36708 -21356186.54108  13261292.05108  13261292.11408         0.00001
 93 04 17 09 20 00.0000000  0  8 03 11 31 28 01 17 23 21
 -19045546.31208 -14840670.48408  16857616.86508  16857618.46308         0.00001
  -8500451.16008  -6623728.25808  16475788.13708  16475789.26708         0.00001
  -2770879.49208  -2159126.93708  16036517.31708  16036517.22308         0.00001
 -24654805.84008 -19211533.77308  13778712.08608  13778711.56108         0.00001
 -22110773.14808 -17229165.83808  13825441.70408  13825441.82608         0.00001
 -27869063.49708 -21716133.19708  14477251.91408  14477251.91008         0.00001
 -26349049.26808 -20531714.12208  13966619.37408  13966619.11508         0.00001
 -27514993.54408 -21440246.66008  13240763.71308  13240763.75208         0.00001
 93 04 17 09 22 00.0000000  0  8 03 11 31 28 01 17 23 21
 -18589370.77807 -14485209.47507  16944424.30007  16944425.71707         0.00001
  -8983033.62008  -6999766.50908  16383955.73608  16383956.81108         0.00001
  -3088625.72908  -2406721.36008  15976052.13008  15976052.03808         0.00001
 -24730282.73708 -19270346.96108  13764349.30508  13764348.78908         0.00001
 -22460131.81408 -17501393.31908  13758960.94008  13758961.01908         0.00001
 -27664530.88708 -21556757.18608  14516173.16708  14516173.28408         0.00001
 -26239305.03308 -20446199.14208  13987503.03808  13987502.79308         0.00001
 -27619998.18408 -21522068.44108  13220782.01308  13220782.00908         0.00001
 93 04 17 09 24 00.0000000  0  8 03 11 31 28 01 17 23 21
 -18131407.97607 -14128355.48808  17031572.07307  17031573.67708         0.00001
  -9462481.17308  -7373361.98308  16292719.81708  16292720.88808         0.00001
  -3399517.96208  -2648975.01108  15916891.26208  15916891.13108         0.00001
 -24795710.43508 -19321329.61208  13751898.88108  13751898.38108         0.00001
 -22802738.43308 -17768359.46308  13693765.04208  13693765.11808         0.00001
 -27455312.52208 -21393729.95008  14555986.19808  14555986.27008         0.00001
 -26127921.53008 -20359406.81308  14008698.55908  14008698.29708         0.00001
 -27722208.13808 -21601712.54208  13201332.05408  13201332.07708         0.00001
 93 04 17 09 26 00.0000000  0  8 11 03 31 28 01 17 23 21
  -9938568.98508  -7744339.47608  16202123.35508  16202124.31208         0.00001
 -17671838.36607 -13770249.78108  17119025.33307  17119027.22008         0.00001
  -3703327.22408  -2885709.48708  15859078.25908  15859078.14508         0.00001
 -24851447.12808 -19364760.82608  13741292.61608  13741292.12708         0.00001
 -23138998.73108 -18030380.42708  13629776.79108  13629776.88708         0.00001
 -27241562.76608 -21227171.76308  14596661.44608  14596661.58208         0.00001
 -26015083.40908 -20271481.01908  14030170.96908  14030170.75808         0.00001
 -27821572.95508 -21679139.65708  13182423.57508  13182423.59408         0.00001
 93 04 17 09 28 00.0000000  0  8 11 03 31 28 01 17 23 21
 -10411001.99808  -8112469.06508  16112222.39508  16112223.33308         0.00001
 -17210774.25708 -13410979.41807  17206763.31708  17206765.02807         0.00001
  -3999955.79908  -3116848.63008  15802631.77808  15802631.72108         0.00001
 -24897474.53108 -19400626.36508  13732533.89008  13732533.46108         0.00001
 -23468559.30208 -18287180.82408  13567063.43408  13567063.52808         0.00001
 -27023226.33708 -21057039.55508  14638209.54508  14638209.74208         0.00001
 -25900731.60408 -20182375.73108  14051931.43008  14051931.14508         0.00001
 -27917704.12408 -21754047.04308  13164130.36308  13164130.41808         0.00001
 93 04 17 09 30 00.0000000  0  8 11 31 03 28 01 17 23 21
 -10879630.51508  -8477634.10308  16023045.31308  16023046.28308         0.00001
  -4289135.36408  -3342183.34308  15747602.69808  15747602.69008         0.00001
 -16748472.96008 -13050744.88807  17294736.54908  17294738.21107         0.00001
 -24933558.97508 -19428744.15108  13725667.23008  13725666.80908         0.00001
 -23791278.79908 -18538650.51508  13505651.92508  13505651.97508         0.00001
 -26800395.58208 -20883405.26908  14680612.97808  14680613.05408         0.00001
 -25785473.29408 -20092564.07408  14073864.37008  14073864.10908         0.00001
 -28010947.76508 -21826704.41208  13146386.70908  13146386.72808         0.00001
 93 04 17 09 32 00.0000000  0  8 11 31 03 28 01 17 23 21
 -11344236.66008  -8839664.81108  15934633.60608  15934634.66508         0.00001
  -4570903.30508  -3561742.77208  15693984.07808  15693983.92008         0.00001
 -16285123.99507 -12689693.98807  17382909.12307  17382910.80707         0.00001
 -24960005.32708 -19449351.72908  13720634.65608  13720634.24508         0.00001
 -24107075.86408 -18784726.09108  13445557.72908  13445557.76408         0.00001
 -26572716.28208 -20705992.89108  14723938.96308  14723938.94408         0.00001
 -25668650.03808 -20001532.98408  14096095.13808  14096094.86908         0.00001
 -28101694.32008 -21897416.00408  13129118.20608  13129118.18408         0.00001
 93 04 17 09 34 00.0000000  0  8 11 31 03 28 01 17 23 21
 -11804643.90708  -9198423.64308  15847020.92108  15847022.03308         0.00001
  -4845275.33208  -3775539.14108  15641772.76608  15641772.62908         0.00001
 -15820959.06107 -12328007.28607  17471236.94207  17471238.85307         0.00001
 -24977007.75008 -19462600.40908  13717399.26708  13717398.87508         0.00001
 -24415962.13308 -19025416.63508  13386778.56608  13386778.61308         0.00001
 -26340506.71308 -20525050.43508  14768127.00208  14768127.04708         0.00001
 -25550433.90508 -19909416.52208  14118591.02408  14118590.74208         0.00001
 -28189120.02908 -21965539.92208  13112481.66208  13112481.63808         0.00001
 93 04 17 09 36 00.0000000  0  8 11 31 03 28 01 17 23 21
 -12260606.37408  -9553719.02108  15760254.16908  15760255.16408         0.00001
  -5112033.40508  -3983402.55708  15591010.42908  15591010.27408         0.00001
 -15356139.00507 -11965810.09307  17559689.42907  17559691.43407         0.00001
 -24984747.79408 -19468631.65508  13715926.47308  13715926.03708         0.00001
 -24717596.90208 -19260456.66608  13329379.34808  13329379.35308         0.00001
 -26103896.34208 -20340678.79408  14813152.57908  14813152.60908         0.00001
 -25431075.99708 -19816410.37208  14141304.02008  14141303.73108         0.00001
 -28273766.61408 -22031498.30008  13096373.91008  13096373.94808         0.00001
 93 04 17 09 38 00.0000000  0  8 11 31 03 28 01 17 23 21
 -12712016.69208  -9905467.28808  15674353.69808  15674354.58208         0.00001
  -5371130.23208  -4185296.17108  15541705.92908  15541705.87508         0.00001
 -14890963.99407 -11603336.28206  17648209.56507  17648211.62006         0.00001
 -24983221.25008 -19467442.17908  13716216.99208  13716216.56708         0.00001
 -25012051.48708 -19489901.74608  13273346.50308  13273346.49208         0.00001
 -25863023.90808 -20152986.05308  14858989.10808  14858989.22808         0.00001
 -25310545.95808 -19722490.86408  14164240.17908  14164239.81708         0.00001
 -28355940.01708 -22095529.50908  13080736.79408  13080736.77408         0.00001
 93 04 17 09 40 00.0000000  0  7 11 31 28 01 17 23 21
 -13158680.58408 -10253517.05808  15589356.33108  15589357.26608         0.00001
  -5622672.29508  -4381302.99008  15493839.02908  15493838.99708         0.00001
 -24972137.15408 -19458805.25208  13718326.32108  13718325.83108         0.00001
 -25299698.63708 -19714042.33108  13218608.97708  13218609.00508         0.00001
 -25617934.18808 -19962007.12708  14905628.17708  14905628.35408         0.00001
 -25188725.26808 -19627565.65708  14187421.84608  14187421.50808         0.00001
 -28435206.97708 -22157295.95908  13065652.79808  13065652.80508         0.00001
 93 04 17 09 42 00.0000000  0  8 12 11 31 28 01 17 23 21
         0.03018        -0.39618  16347393.44918  16347394.87918         0.00011
 -13600344.37708 -10597670.64408  15505310.53008  15505311.45508         0.00001
  -5866296.79408  -4571140.29108  15447478.78208  15447478.80508         0.00001
 -24951520.30708 -19442740.21508  13722249.59408  13722249.12508         0.00001
 -25580161.11408 -19932584.48108  13165238.77808  13165238.73508         0.00001
 -25368486.11208 -19767632.08808  14953096.61408  14953096.77008         0.00001
 -25066012.40908 -19531945.25708  14210773.27108  14210773.01008         0.00001
 -28511771.69908 -22216956.75908  13051083.01608  13051082.98908         0.00001
 93 04 17 09 44 00.0000000  0  8 12 17 11 31 28 01 23 21
   -231026.79408   -180021.19308  16303430.59608  16303431.88208         0.00001
 -25114571.02408 -19569776.23908  15001415.14308  15001415.28608         0.00001
 -14036773.31608 -10937745.12608  15422260.78808  15422261.79208         0.00001
  -6101722.51208  -4754588.91908  15402678.88908  15402678.78408         0.00001
 -24921870.13108 -19419636.21908  13727891.80508  13727891.39208         0.00001
 -25852936.45408 -20145136.65008  13113331.31908  13113331.27008         0.00001
 -24942262.59908 -19435516.84608  14234322.08708  14234321.80908         0.00001
 -28585830.26108 -22274664.70808  13036990.14208  13036990.08908         0.00001
 93 04 17 09 46 00.0000000  0  8 12 17 11 31 28 01 23 21
   -454375.19908   -354058.81308  16260928.70008  16260929.88708         0.00001
 -24856247.64908 -19368485.36208  15050572.51108  15050572.60908         0.00001
 -14467700.24108 -11273532.30908  15340257.98808  15340259.19508         0.00001
  -6329146.23108  -4931802.21408  15359401.61908  15359401.51708         0.00001
 -24882981.71308 -19389333.60208  13735292.01308  13735291.62108         0.00001
 -26118400.10108 -20351991.39808  13062815.16908  13062815.12508         0.00001
 -24817000.82008 -19337910.28108  14258158.65308  14258158.40208         0.00001
 -28657024.49708 -22330140.71708  13023442.32808  13023442.30708         0.00001
 93 04 17 09 48 00.0000000  0  8 12 17 11 31 28 01 23 21
   -669846.38008   -521958.35208  16219925.88908  16219926.96308         0.00001
 -24593689.71308 -19163894.81808  15100535.57708  15100535.93908         0.00001
 -14892887.34708 -11604846.91208  15259347.59708  15259348.74108         0.00001
  -6548728.44908  -5102905.24308  15317616.48608  15317616.42008         0.00001
 -24834701.58408 -19351712.76708  13744479.39308  13744479.02908         0.00001
 -26376278.16708 -20552935.29608  13013742.62008  13013742.56508         0.00001
 -24690567.88208 -19239391.13008  14282218.04008  14282217.73908         0.00001
 -28725611.34008 -22383584.99808  13010390.65808  13010390.63708         0.00001
 93 04 17 09 50 00.0000000  0  8 12 17 11 31 28 01 23 21
   -877278.76608   -683593.90908  16180452.69608  16180453.80808         0.00001
 -24327219.55908 -18956255.80808  15151243.17408  15151243.60708         0.00001
 -15312130.34308 -11931529.74408  15179568.33808  15179569.37608         0.00001
  -6759783.97008  -5267364.09108  15277453.94508  15277453.82208         0.00001
 -24777678.64508 -19307279.35108  13755330.61108  13755330.17508         0.00001
 -26626781.90108 -20748132.96208  12966073.27508  12966073.22708         0.00001
 -24563336.19108 -19140249.57008  14306429.45508  14306429.18608         0.00001
 -28791199.69008 -22434692.79808  12997909.58808  12997909.57308         0.00001
 93 04 17 09 52 00.0000000  0  8 12 17 11 31 28 01 23 21
  -1076552.25208   -838871.89208  16142532.10608  16142533.31608         0.00001
 -24056577.55208 -18745366.01008  15202744.70408  15202745.10108         0.00001
 -15725261.45408 -12253450.07608  15100952.06708  15100953.06608         0.00001
  -6962464.15608  -5425296.69808  15238885.23008  15238885.05208         0.00001
 -24711907.22908 -19256028.93408  13767846.48708  13767846.16008         0.00001
 -26869892.09708 -20937569.43508  12919810.89108  12919810.85308         0.00001
 -24434909.89108 -19040177.15408  14330868.20308  14330867.89308         0.00001
 -28853984.24708 -22483615.82908  12985962.15408  12985962.12908         0.00001
 93 04 17 09 54 00.0000000  0  8 12 17 31 28 01 23 21 11
  -1267471.55808   -987640.13308  16106201.34508  16106202.53508         0.00001
 -23781777.81008 -18531236.41208  15255037.50008  15255037.78608         0.00001
  -7157171.90408  -5577017.02208  15201833.63908  15201833.35308         0.00001
 -24636990.29408 -19197652.14708  13782102.77208  13782102.49808         0.00001
 -27105102.52508 -21120850.24508  12875051.77908  12875051.68708         0.00001
 -24305161.77508 -18939074.74808  14355558.52908  14355558.19308         0.00001
 -28914270.73708 -22530592.31908  12974490.02408  12974489.96408         0.00001
 -16132033.26808 -12570415.10408  15023545.96708  15023546.92808         0.00001
 93 04 17 09 56 00.0000000  0  8 12 17 31 28 01 23 21 11
  -1449794.84108  -1129710.15708  16071506.42008  16071507.45908         0.00001
 -23503072.68408 -18314063.65608  15308073.28408  15308073.64908         0.00001
  -7343138.17708  -5721925.82008  15166445.40908  15166445.16608         0.00001
 -24553469.63108 -19132571.15508  13797996.25308  13797995.98908         0.00001
 -27332634.55308 -21298147.89008  12831753.84908  12831753.81608         0.00001
 -24174318.10808 -18837118.67208  14380457.23508  14380457.02208         0.00001
 -28971638.31808 -22575294.33508  12963573.34008  12963573.24308         0.00001
 -16532147.36608 -12882192.30108  14947406.86408  14947407.69908         0.00001
 93 04 17 09 58 00.0000000  0  8 12 17 31 28 01 23 21 11
  -1623253.73908  -1264872.90508  16038498.25608  16038499.36608         0.00001
 -23219780.67108 -18093316.68808  15361981.93308  15361982.31408         0.00001
  -7520606.97908  -5860213.20908  15132674.10008  15132674.03608         0.00001
 -24461202.33908 -19060674.62008  13815554.19008  13815553.88808         0.00001
 -27552187.71208 -21469228.23008  12789974.24008  12789974.22108         0.00001
 -24042072.73508 -18734070.35908  14405622.64008  14405622.47708         0.00001
 -29026075.46708 -22617712.89908  12953214.34208  12953214.22708         0.00001
 -16925274.20508 -13188524.88008  14872597.24808  14872598.14508         0.00001
 93 04 17 10 00 00.0000000  0  8 12 17 31 28 01 23 21 11
  -1787694.95108  -1393008.86608  16007205.98108  16007207.18808         0.00001
 -22932291.98408 -17869299.60708  15416689.37208  15416689.64608         0.00001
  -7688977.75008  -5991411.23908  15100634.28108  15100634.18708         0.00001
 -24360227.20108 -18981992.73708  13834769.19008  13834768.78608         0.00001
 -27763643.24108 -21633998.73508  12749735.59608  12749735.53508         0.00001
 -23908373.48208 -18629889.14108  14431064.79608  14431064.60408         0.00001
 -29077825.46108 -22658037.56608  12943366.60008  12943366.52308         0.00001
 -17311195.04108 -13489242.38408  14799158.94108  14799159.81308         0.00001
 93 04 17 10 02 00.0000000  0  8 12 17 31 01 28 23 21 11
  -1942971.99408  -1514003.91608  15977657.75208  15977658.74608         0.00001
 -22641010.92608 -17642327.42808  15472118.47708  15472118.68608         0.00001
  -7848461.05108  -6115683.97408  15070285.74008  15070285.59508         0.00001
 -27967271.61308 -21792670.15708  12710986.38808  12710986.33308         0.00001
 -24250848.41808 -18896762.55908  13855583.32108  13855582.91008         0.00001
 -23773576.11608 -18524852.25608  14456715.92808  14456715.70308         0.00001
 -29126352.76908 -22695851.06608  12934132.20508  12934132.06608         0.00001
 -17689693.18608 -13784175.97008  14727133.07508  14727133.98808         0.00001
 93 04 17 10 04 00.0000000  0  8 12 17 31 01 28 23 21 11
  -2088913.54808  -1627724.57208  15949886.02708  15949887.05308         0.00001
 -22345442.52308 -17412014.43508  15528363.20408  15528363.51008         0.00001
  -7999435.02208  -6233326.05508  15041556.27008  15041556.13608         0.00001
 -28162662.99808 -21944923.14308  12673804.56808  12673804.48608         0.00001
 -24132830.96008 -18804800.95308  13878041.35608  13878040.95108         0.00001
 -23637529.29608 -18418841.75908  14482604.82208  14482604.49408         0.00001
 -29171926.77408 -22731363.26408  12925459.74308  12925459.60308         0.00001
 -18060523.58208 -14073134.69808  14656566.35508  14656567.23608         0.00001
 93 04 17 10 06 00.0000000  0  8 12 17 31 01 28 23 21 11
  -2225376.11208  -1734058.99408  15923917.98208  15923919.06508         0.00001
 -22045825.83008 -17178546.94508  15585378.45908  15585378.76508         0.00001
  -8141447.75808  -6343985.34508  15014532.25908  15014532.08908         0.00001
 -28350087.94908 -22090968.52208  12638138.74608  12638138.66808         0.00001
 -24006382.79008 -18706269.96908  13902103.67608  13902103.41008         0.00001
 -23500099.82508 -18311753.86908  14508756.84108  14508756.45708         0.00001
 -29214319.94708 -22764396.90008  12917392.54808  12917392.42508         0.00001
 -18423464.39508 -14355945.71308  14587501.07308  14587501.92008         0.00001
 93 04 17 10 08 00.0000000  0  8 12 17 01 28 23 21 11 31
  -2352255.92608  -1832926.33808  15899773.40808  15899774.54408         0.00001
 -21742543.69308 -16942223.28208  15643091.09208  15643091.58808         0.00001
 -28529665.15908 -22230898.77608  12603966.34808  12603966.25208         0.00001
 -23871836.57608 -18601428.79708  13927706.93008  13927706.70908         0.00001
 -23361010.01308 -18203372.22708  14535224.71408  14535224.44708         0.00001
 -29253851.26208 -22795200.51708  12909869.99508  12909869.87208         0.00001
 -18778329.21308 -14632463.74708  14519972.52508  14519973.40708         0.00001
  -8274593.91108  -6447735.61308  14989195.32208  14989195.17608         0.00001
 93 04 17 10 10 00.0000000  0  8 12 17 01 28 23 21 11 31
  -2469423.96408  -1924226.05808  15877477.05208  15877478.15708         0.00001
 -21435282.37208 -16702798.94208  15701561.07108  15701561.48508         0.00001
 -28700809.39308 -22364257.88109  12571398.59808  12571398.49009         0.00001
 -23729309.22908 -18490368.58008  13954829.10608  13954828.92208         0.00001
 -23220554.47608 -18093926.38808  14561952.56408  14561952.29208         0.00001
 -29290475.03808 -22823738.52108  12902900.70108  12902900.58608         0.00001
 -19124902.54508 -14902520.88208  14454021.88908  14454022.67208         0.00001
  -8398664.25808  -6544413.83508  14965585.55708  14965585.40308         0.00001
 93 04 17 10 12 00.0000000  0  8 12 17 28 01 23 21 11 31
  -2576718.57808  -2007832.20508  15857059.55508  15857060.77408         0.00001
 -21124034.42608 -16460268.14408  15760789.64108  15760790.10008         0.00001
 -23578832.29508 -18373113.87608  13983463.84308  13983463.62308         0.00001
 -28863818.33908 -22491277.81009  12540379.03508  12540378.93209         0.00001
 -23078515.95808 -17983247.05008  14588981.63008  14588981.35608         0.00001
 -29323737.05308 -22849656.96908  12896571.17508  12896571.07508         0.00001
 -19462932.93408 -15165921.17908  14389696.77608  14389697.58608         0.00001
  -8513523.74408  -6633914.75908  14943728.53808  14943728.33908         0.00001
 93 04 17 10 14 00.0000000  0  8 12 17 01 21 28 23 11 31
  -2674081.23708  -2083699.18508  15838532.00808  15838533.14908         0.00001
 -20808948.77008 -16214746.94108  15820748.45008  15820749.01208         0.00001
 -29018759.26408 -22612010.97309  12510894.73708  12510894.60609         0.00001
 -29354014.69308 -22873249.93008  12890809.47908  12890809.41808         0.00001
 -23420572.58308 -18249794.65808  14013579.77108  14013579.46508         0.00001
 -22934926.91308 -17871359.52108  14616305.63508  14616305.52208         0.00001
 -19792267.91708 -15422545.83108  14327026.29108  14327027.21908         0.00001
  -8619593.96508  -6716566.89708  14923543.99508  14923543.87508         0.00001
 93 04 17 10 16 00.0000000  0  8 12 17 01 21 28 23 11 31
  -2761343.48708  -2151695.71308  15821926.55208  15821927.59108         0.00001
 -20490178.66008 -15966354.72308  15881408.33908  15881408.97008         0.00001
 -29165736.84608 -22726538.92309  12482925.79908  12482925.63709         0.00001
 -29381259.31208 -22894479.49908  12885625.00208  12885624.94808         0.00001
 -23254487.00908 -18120377.36908  14045184.90608  14045184.60908         0.00001
 -22789774.64708 -17758253.90308  14643927.29908  14643927.14508         0.00001
 -20112641.66808 -15672187.70308  14266061.25608  14266062.09608         0.00001
  -8716424.11108  -6792018.98608  14905117.83908  14905117.73508         0.00001
 93 04 17 10 18 00.0000000  0  8 12 17 01 21 28 23 11 31
  -2838354.18908  -2211704.02708  15807271.80208  15807272.90808         0.00001
 -20167723.64708 -15715091.18008  15942769.76008  15942770.22108         0.00001
 -29304207.46208 -22834438.07209  12456575.68108  12456575.51509         0.00001
 -29405189.79008 -22913126.62708  12881071.15908  12881071.07008         0.00001
 -23080939.45808 -17985145.56708  14078209.82608  14078209.63908         0.00001
 -22643103.63108 -17643964.84808  14671837.82108  14671837.69608         0.00001
 -20423802.58008 -15914650.74208  14206849.33608  14206850.08708         0.00001
  -8804269.79708  -6860470.21008  14888401.39808  14888401.29708         0.00001
 93 04 17 10 20 00.0000000  0  8 12 17 01 21 28 23 11 31
  -2905078.85008  -2263697.24708  15794574.51608  15794575.75408         0.00001
 -19841540.60308 -15460922.61808  16004840.38208  16004840.66508         0.00001
 -29434511.14308 -22935973.36909  12431779.70608  12431779.54109         0.00001
 -29425811.50408 -22929195.49708  12877147.03108  12877146.90908         0.00001
 -22899929.78508 -17844099.12208  14112654.88308  14112654.63808         0.00001
 -22494916.77808 -17528494.61308  14700037.01008  14700036.79408         0.00001
 -20725612.04208 -16149826.94308  14149416.86608  14149417.66408         0.00001
  -8883124.49708  -6921915.47408  14873395.86508  14873395.81908         0.00001
 93 04 17 10 22 00.0000000  0  8 12 17 01 21 28 23 11 31
  -2961521.84508  -2307678.76808  15783833.71308  15783834.89508         0.00001
 -19511730.22008 -15203927.60708  16067601.30708  16067601.64308         0.00001
 -29556551.18308 -23031069.47409  12408556.25708  12408556.09109         0.00001
 -29443170.92008 -22942722.31708  12873843.66508  12873843.55208         0.00001
 -22711848.51308 -17697542.34608  14148445.59208  14148445.40908         0.00001
 -22345090.54908 -17411746.94008  14728547.94208  14728547.71408         0.00001
 -21017967.48608 -16377636.37708  14093783.46608  14093784.28308         0.00001
  -8952804.32108  -6976211.49808  14860136.32308  14860136.25608         0.00001
 93 04 17 10 24 00.0000000  0  8 12 17 01 21 28 23 11 31
  -3007714.68808  -2343673.15908  15775043.53108  15775044.73408         0.00001
 -19178776.58608 -14944483.20608  16130960.19108  16130960.55808         0.00001
 -29670637.62208 -23119967.97009  12386846.27608  12386846.11909         0.00001
 -29457435.52608 -22953837.59708  12871129.18408  12871129.06708         0.00001
 -22516935.94508 -17545662.47108  14185536.15008  14185536.00208         0.00001
 -22193831.70708 -17293882.95308  14757331.50908  14757331.34408         0.00001
 -21300790.95108 -16598018.30308  14039963.94908  14039964.73608         0.00001
  -9013410.44408  -7023437.09908  14848603.36208  14848603.37108         0.00001
 93 04 17 10 26 00.0000000  0  8 12 17 01 21 28 23 11 31
  -3043754.73008  -2371756.27908  15768185.37308  15768186.52308         0.00001
 -18842423.84108 -14682390.21007  16194966.02008  16194966.33307         0.00001
 -29776947.60208 -23202806.88609  12366616.13008  12366615.97009         0.00001
 -29468590.07408 -22962529.45008  12869006.54908  12869006.47608         0.00001
 -22315402.01008 -17388623.09008  14223886.72108  14223886.54708         0.00001
 -22040761.93908 -17174607.85308  14786459.82508  14786459.67408         0.00001
 -21574067.24208 -16810960.87008  13987961.22608  13987962.02908         0.00001
  -9065583.70208  -7064091.64408  14838675.19408  14838675.15608         0.00001
 93 04 17 10 28 00.0000000  0  8 12 17 01 21 28 23 11 31
  -3069691.17008  -2391966.45208  15763249.87008  15763250.93608         0.00001
 -18503217.73908 -14418073.87308  16259514.81108  16259515.46008         0.00001
 -29875672.75708 -23279735.54709  12347829.29908  12347829.11109         0.00001
 -29477159.48308 -22969206.90908  12867375.80908  12867375.74108         0.00001
 -22107638.78508 -17226729.72608  14263422.97208  14263422.81708         0.00001
 -21886522.47108 -17054421.29108  14815810.64908  14815810.47208         0.00001
 -21837731.14008 -17016413.25908  13937787.65908  13937788.46608         0.00001
  -9109204.07408  -7098081.59908  14830374.60908  14830374.40508         0.00001
 93 04 17 10 30 00.0000000  0  8 12 17 01 21 28 23 11 31
  -3085498.84208  -2404284.07608  15760241.58608  15760242.86008         0.00001
 -18161134.06608 -14151515.21008  16324611.06508  16324611.81108         0.00001
 -29966589.58508 -23350579.79909  12330528.44508  12330528.17309         0.00001
 -29482561.50908 -22973416.27708  12866347.86708  12866347.75208         0.00001
 -21893701.84008 -17060025.66908  14304133.90308  14304133.81708         0.00001
 -21731148.36208 -16933350.59708  14845377.39708  14845377.17208         0.00001
 -22091640.53308 -17214264.73508  13889470.30208  13889471.11408         0.00001
  -9143925.26908  -7125137.12008  14823767.39108  14823767.16808         0.00001
 93 04 17 10 32 00.0000000  0  8 12 17 01 21 28 23 11 31
  -3091139.91908  -2408679.67808  15759168.02608  15759169.27108         0.00001
 -17816388.12008 -13882882.10108  16390214.30808  16390214.91408         0.00001
 -30049771.09008 -23415396.52809  12314699.49208  12314699.20709         0.00001
 -29484939.35508 -22975269.14508  12865895.37208  12865895.27708         0.00001
 -21673923.59908 -16888769.95208  14345956.40408  14345956.33908         0.00001
 -21574310.08908 -16811138.99108  14875222.64608  14875222.53708         0.00001
 -22335638.92208 -17404393.35108  13843038.96408  13843039.78808         0.00001
  -9170403.99908  -7145769.94008  14818728.75508  14818728.47708         0.00001
 93 04 17 10 34 00.0000000  0  8 12 17 01 21 28 23 11 31
  -3086590.38208  -2405134.55408  15760033.78008  15760035.00108         0.00001
 -17468931.91008 -13612137.05908  16456333.02708  16456333.67508         0.00001
 -30125590.93708 -23474476.90709  12300271.47208  12300271.20209         0.00001
 -29484454.81008 -22974891.57708  12865987.60908  12865987.49908         0.00001
 -21448392.17208 -16713031.22208  14388873.62308  14388873.50408         0.00001
 -21415998.61908 -16687779.44308  14905348.46008  14905348.28508         0.00001
 -22569582.17108 -17586686.79208  13798521.05908  13798521.84408         0.00001
  -9188378.72108  -7159776.25808  14815308.25408  14815308.10008         0.00001
 93 04 17 10 36 00.0000000  0  8 12 17 01 21 28 23 11 31
  -3071850.93908  -2393649.23408  15762838.64708  15762839.74608         0.00001
 -17118806.62708 -13339312.19508  16522959.84408  16522960.33008         0.00001
 -30193648.11408 -23527508.44309  12287320.60508  12287320.33109         0.00001
 -29480919.36108 -22972136.68608  12866660.33608  12866660.23108         0.00001
 -21217306.09108 -16532964.19008  14432847.73308  14432847.66708         0.00001
 -21256397.04108 -16563414.60908  14935719.67608  14935719.44108         0.00001
 -22793349.13508 -17761050.66108  13755939.62008  13755940.37208         0.00001
  -9197981.15808  -7167258.71808  14813481.02208  14813480.85008         0.00001
 93 04 17 10 38 00.0000000  0  8 12 17 01 21 28 23 11 31
  -3046944.04508  -2374241.21108  15767578.24208  15767579.33708         0.00001
 -16766518.56808 -13064802.10208  16589998.13508  16589998.61008         0.00001
 -30254407.01508 -23574853.02309  12275758.55208  12275758.24909         0.00001
 -29474339.40908 -22967009.45908  12867912.48508  12867912.39608         0.00001
 -20981170.48908 -16348962.46408  14477783.04808  14477782.92508         0.00001
 -21095316.60008 -16437897.42008  14966372.32608  14966372.19008         0.00001
 -23006839.36208 -17927406.68308  13715313.77308  13715314.56008         0.00001
  -9199360.63408  -7168333.67608  14813218.49908  14813218.42008         0.00001
 93 04 17 10 40 00.0000000  0  8 23 12 17 01 21 28 11 31
 -20932943.71008 -16311373.12208  14997270.86008  14997270.68608         0.00001
  -3011932.68708  -2346959.59208  15774240.66008  15774241.81708         0.00001
 -16411844.61508 -12788432.81808  16657490.18808  16657490.77308         0.00001
 -30307901.83308 -23616537.26609  12265578.82408  12265578.53509         0.00001
 -29464457.39108 -22959309.18708  12869792.97108  12869792.85308         0.00001
 -20739782.05208 -16160867.63108  14523717.73408  14523717.62408         0.00001
 -23209992.65008 -18085707.95308  13676655.00008  13676655.79508         0.00001
  -9192570.72508  -7163042.88908  14814510.65408  14814510.64408         0.00001
 93 04 17 10 42 00.0000000  0  8 23 12 17 01 21 11 28 31
 -20769266.94108 -16183832.80108  15028417.57308  15028417.41508         0.00001
  -2966862.83108  -2311840.19808  15782817.26408  15782818.19008         0.00001
 -16054739.36008 -12510169.03207  16725445.15908  16725445.62707         0.00001
 -30354279.41708 -23652675.62009  12256753.40408  12256753.13409         0.00001
 -29451644.72108 -22949325.28908  12872231.13508  12872231.01408         0.00001
 -23402730.15308 -18235893.02408  13639978.25808  13639979.06508         0.00001
 -20493417.56408 -15968895.35408  14570599.23408  14570599.20508         0.00001
  -9177880.11108  -7151595.69908  14817306.27408  14817306.21108         0.00001
 93 04 17 10 44 00.0000000  0  8 23 12 17 01 21 11 28 31
 -20603825.77908 -16054917.63808  15059899.93108  15059899.84308         0.00001
  -2911764.43208  -2268906.36708  15793302.07708  15793303.06608         0.00001
 -15695563.88408 -12230292.02307  16793793.95308  16793794.61707         0.00001
 -30393334.97808 -23683108.49609  12249321.36408  12249321.09709         0.00001
 -29435923.73908 -22937075.17208  12875222.74408  12875222.63408         0.00001
 -23584957.37708 -18377888.27408  13605301.61408  13605302.36608         0.00001
 -20242641.31208 -15773485.34208  14618320.49108  14618320.43708         0.00001
  -9155009.15308  -7133774.21308  14821658.49908  14821658.42008         0.00001
 93 04 17 10 46 00.0000000  0  8 23 12 17 01 21 11 28 31
 -20436754.94308 -15924732.61508  15091692.42908  15091692.34108         0.00001
  -2846707.53008  -2218212.67408  15805681.90108  15805683.01608         0.00001
 -15334471.44407 -11948921.21307  16862507.58407  16862507.98007         0.00001
 -30425389.68808 -23708086.16009  12243221.51308  12243221.25309         0.00001
 -29417283.61508 -22922550.40208  12878769.87908  12878769.75208         0.00001
 -23756619.00608 -18511650.59508  13572635.52408  13572636.27108         0.00001
 -19987384.62308 -15574584.07308  14666894.16808  14666894.11708         0.00001
  -9123993.57408  -7109606.26908  14827560.49708  14827560.52808         0.00001
 93 04 17 10 48 00.0000000  0  8 12 23 17 01 21 11 28 31
  -2771761.98208  -2159813.53308  15819943.48708  15819944.70408         0.00001
 -20268540.20008 -15793656.25508  15123702.66208  15123702.62808         0.00001
 -14971330.06307 -11665953.96607  16931611.06507  16931611.48207         0.00001
 -30450569.50308 -23727706.76409  12238429.92408  12238429.64509         0.00001
 -29395604.41208 -22905657.52108  12882895.31808  12882895.18008         0.00001
 -23917661.01308 -18637137.88708  13541990.23308  13541991.00808         0.00001
 -19728048.72708 -15372504.19908  14716244.24808  14716244.21208         0.00001
  -9085528.94808  -7079633.88308  14834880.08808  14834880.09408         0.00001
 93 04 17 10 50 00.0000000  0  8 12 23 17 01 21 11 28 31
  -2686930.88608  -2093711.35808  15836086.29608  15836087.51408         0.00001
 -20099252.64808 -15661743.94308  15155917.13308  15155917.07908         0.00001
 -14606712.37907 -11381836.23807  17000995.43207  17000996.23107         0.00001
 -30468679.55108 -23741818.46209  12234983.69108  12234983.41909         0.00001
 -29370787.68908 -22886319.80908  12887617.75208  12887617.60908         0.00001
 -24067962.11508 -18754255.64308  13513388.88508  13513389.67108         0.00001
 -19464767.89408 -15167350.35508  14766344.95008  14766344.88508         0.00001
  -9039577.30308  -7043827.45608  14843624.54808  14843624.46308         0.00001
 93 04 17 10 52 00.0000000  0  8 12 23 17 01 21 11 28 31
  -2592277.44908  -2019955.41408  15854098.10408  15854099.41408         0.00001
 -19928173.16008 -15528435.31208  15188472.58608  15188472.43108         0.00001
 -14240592.80007 -11096548.22207  17070665.75907  17070666.14407         0.00001
 -30480186.71708 -23750785.06109  12232793.87708  12232793.60509         0.00001
 -29342950.34908 -22864628.37108  12892915.00108  12892914.87608         0.00001
 -24207462.44708 -18862957.22108  13486842.89208  13486843.66608         0.00001
 -19197806.50908 -14959328.54108  14817146.04408  14817146.00808         0.00001
  -8985777.53908  -7001905.60708  14853862.26808  14853862.23708         0.00001
 93 04 17 10 54 00.0000000  0  8 12 23 17 01 21 11 28 31
  -2487935.97408  -1938650.36508  15873953.80108  15873954.99308         0.00001
 -19755285.31308 -15393717.56608  15221372.03508  15221371.95408         0.00001
 -13872709.46807 -10809885.92507  17140671.52207  17140672.19207         0.00001
 -30484966.07908 -23754509.21709  12231884.37008  12231884.13709         0.00001
 -29311874.59708 -22840413.49508  12898828.57708  12898828.41608         0.00001
 -24336173.50408 -18963251.57408  13462350.03908  13462350.77308         0.00001
 -18927183.02408 -14748453.15508  14868644.03308  14868644.09108         0.00001
  -8924478.52608  -6954140.19408  14865527.02008  14865527.13708         0.00001
 93 04 17 10 56 00.0000000  0  8 12 23 17 01 21 11 28 31
  -2373956.48908  -1849835.18008  15895643.39508  15895644.58208         0.00001
 -19581281.43308 -15258130.18608  15254483.88008  15254483.86308         0.00001
 -13503327.85807 -10522055.97507  17210962.56407  17210963.01407         0.00001
 -30483205.84308 -23753137.58609  12232219.35908  12232219.10709         0.00001
 -29277574.22208 -22813685.93608  12905355.69808  12905355.56108         0.00001
 -24454024.67208 -19055083.67508  13439923.70208  13439924.50408         0.00001
 -18653127.08308 -14534903.13008  14920795.19608  14920795.19308         0.00001
  -8856335.40308  -6901041.70408  14878494.40608  14878494.37708         0.00001
 93 04 17 10 58 00.0000000  0  7 12 28 23 01 21 11 31
  -2250426.01208  -1753577.67708  15919150.39108  15919151.62008         0.00001
 -18376251.62108 -14319156.07808  14973482.95708  14973482.90508         0.00001
 -19405699.76308 -15121313.34808  15287896.00408  15287895.89908         0.00001
 -30475054.49808 -23746785.87109  12233770.49108  12233770.23509         0.00001
 -29239935.55708 -22784357.11208  12912518.12508  12912517.97908         0.00001
 -24560983.18708 -19138427.98408  13419570.15308  13419570.97408         0.00001
  -8780999.26208  -6842338.26708  14892830.45508  14892830.35108         0.00001
 93 04 17 11 00 00.0000000  0  8 12 28 17 01 23 21 11 31
  -2117435.37008  -1649948.60108  15944457.66708  15944458.90808         0.00001
 -18096372.66708 -14101068.64408  15026742.19708  15026742.13708         0.00001
         0.25218         0.23018  17352256.69118  17352257.23518         0.00011
 -30460293.80508 -23735284.01309  12236579.32408  12236579.05709         0.00001
 -19228483.89408 -14983223.10708  15321619.07208  15321618.98608         0.00001
 -29199235.23308 -22752642.58708  12920263.11308  12920262.99308         0.00001
 -24657022.30008 -19213263.67708  13401294.54108  13401295.31108         0.00001
  -8698586.44908  -6778120.55208  14908513.08708  14908513.15608         0.00001
 93 04 17 11 02 00.0000000  0  8 12 28 17 01 23 21 11 31
  -1974852.71008  -1538845.22708  15971590.18308  15971591.33708         0.00001
 -17813466.62408 -13880622.44108  15080577.44508  15080577.39408         0.00001
    373118.16507    290741.68107  17423258.47407  17423258.94807         0.00001
 -30439060.88208 -23718738.85909  12240619.79508  12240619.54609         0.00001
 -19049344.41708 -14843633.95608  15355708.26808  15355708.20908         0.00001
 -29154916.51308 -22718108.53108  12928696.67308  12928696.55708         0.00001
 -24741893.50108 -19279397.09608  13385144.06008  13385144.87708         0.00001
  -8608975.04608  -6708293.53808  14925565.55808  14925565.66108         0.00001
 93 04 17 11 04 00.0000000  0  7 12 28 23 01 21 11 31
  -1822594.46508  -1420202.44008  16000563.98208  16000564.99308         0.00001
 -17527974.11908 -13658160.80208  15134905.02208  15134905.00308         0.00001
 -18868356.67408 -14702604.58708  15390149.17108  15390149.11308         0.00001
 -30411365.75008 -23697158.21509  12245890.02708  12245889.75409         0.00001
 -29107153.36908 -22680890.50708  12937785.71008  12937785.56808         0.00001
 -24815400.62508 -19336675.40308  13371156.12908  13371156.99008         0.00001
  -8512582.40908  -6633182.45908  14943908.59408  14943908.60308         0.00001
 93 04 17 11 06 00.0000000  0  7 12 28 23 01 21 11 31
  -1660570.70308  -1293950.14508  16031396.07408  16031397.28508         0.00001
 -17239451.68408 -13433338.18908  15189808.98108  15189809.12708         0.00001
 -18685452.60808 -14560081.97508  15424954.67808  15424954.66008         0.00001
 -30376760.46808 -23670193.04309  12252475.16108  12252474.85709         0.00001
 -29055659.94608 -22640765.77708  12947584.55208  12947584.49708         0.00001
 -24877342.65608 -19384941.95208  13359368.99108  13359369.80308         0.00001
  -8408763.85108  -6552284.93308  14963664.59208  14963664.65608         0.00001
 93 04 17 11 08 00.0000000  0  8 12 28 23 31 01 25 21 11
  -1488694.17708  -1160020.35808  16064103.16508  16064104.25608         0.00001
 -16947937.20208 -13206184.13108  15245282.39408  15245282.49808         0.00001
 -18499816.14708 -14415430.24008  15460280.03608  15460280.07308         0.00001
  -8297602.94408  -6465666.10208  14984817.88508  14984817.92508         0.00001
 -30335434.10508 -23637990.66508  12260339.31808  12260338.98708         0.00001
         0.13618        -0.35318  14358503.29818  14358502.68618         0.00011
 -28999582.82008 -22597069.32808  12958255.74408  12958255.60508         0.00001
 -24927523.63608 -19424044.04508  13349819.86908  13349820.67008         0.00001
 93 04 17 11 10 00.0000000  0  8 12 28 23 31 01 25 21 11
  -1307117.86608  -1018532.31708  16098655.94108  16098657.02608         0.00001
 -16653788.22808 -12976977.21808  15301257.14408  15301257.19108         0.00001
 -18311748.02108 -14268883.70608  15496068.26008  15496068.26308         0.00001
  -8179604.63908  -6373719.42908  15007272.26608  15007272.28608         0.00001
 -30287667.59008 -23600769.99408  12269428.95208  12269428.63108         0.00001
   -429844.78908   -334944.36908  14276706.45708  14276705.81308         0.00001
 -28939278.32208 -22550078.82308  12969731.32708  12969731.16308         0.00001
 -24965991.06308 -19454018.69108  13342499.79808  13342500.59908         0.00001
 93 04 17 11 12 00.0000000  0  8 12 28 23 31 01 25 21 11
  -1116073.60808   -869666.65208  16135010.50108  16135011.42008         0.00001
 -16357426.99208 -12746046.46108  15357653.04608  15357653.02508         0.00001
 -18121276.37108 -14120464.28708  15532313.91408  15532313.92108         0.00001
  -8054584.87208  -6276301.48008  15031062.64008  15031062.77008         0.00001
 -30233319.55508 -23558420.86608  12279771.00908  12279770.71608         0.00001
   -855520.95008   -666640.01508  14195702.92808  14195702.23608         0.00001
 -28875174.45908 -22500127.78408  12981929.91308  12981929.74808         0.00001
 -24992874.68608 -19474967.00108  13337384.04908  13337384.86108         0.00001
 93 04 17 11 14 00.0000000  0  8 12 28 23 31 01 25 21 11
   -915783.81908   -713596.68607  16173124.32808  16173125.32307         0.00001
 -16059079.39808 -12513567.90108  15414426.64608  15414426.69708         0.00001
 -17928404.06208 -13970174.23408  15569016.32508  15569016.30008         0.00001
  -7923031.51508  -6173792.43808  15056096.55308  15056096.64108         0.00001
 -30172632.94508 -23511132.58308  12291319.25108  12291318.98008         0.00001
  -1276860.81208   -994956.72108  14115524.51108  14115523.82508         0.00001
 -28807155.96508 -22447126.38608  12994873.43908  12994873.27908         0.00001
 -25008297.75108 -19486985.00308  13334449.14608  13334449.94808         0.00001
 93 04 17 11 16 00.0000000  0  8 12 28 23 01 25 21 11 31
   -706400.53008   -550440.88207  16212968.63708  16212969.60107         0.00001
 -15759018.13008 -12279754.00808  15471526.58908  15471526.59408         0.00001
 -17733160.07608 -13818036.10808  15606170.10408  15606170.13908         0.00001
 -30106037.91808 -23459240.34708  12303991.87408  12303991.60108         0.00001
  -1694220.13808  -1320171.72208  14036103.65908  14036102.92008         0.00001
 -28734987.62608 -22390891.33608  13008606.66508  13008606.49008         0.00001
 -25012317.06708 -19490116.97608  13333684.34808  13333685.17808         0.00001
  -7785210.85408  -6066399.79408  15082322.96208  15082323.04508         0.00001
 93 04 17 11 18 00.0000000  0  8 12 28 23 01 25 21 11 31
   -488079.63308   -380320.70107  16254513.80208  16254514.79907         0.00001
 -15457291.53008 -12044642.45408  15528943.18408  15528943.30208         0.00001
 -17535694.13208 -13664166.58708  15643746.60308  15643746.67008         0.00001
 -30033471.42408 -23402695.02308  12317800.78708  12317800.53208         0.00001
  -2107353.14608  -1642093.48108  13957486.97108  13957486.25008         0.00001
 -28658498.02408 -22331289.06508  13023162.16508  13023161.99708         0.00001
 -25004996.57308 -19484412.73508  13335077.34208  13335078.23908         0.00001
  -7641141.89908  -5954138.34108  15109738.32608  15109738.54308         0.00001
 93 04 17 11 20 00.0000000  0  8 12 28 23 01 25 21 11 31
   -260943.67608   -203331.64107  16297736.33808  16297737.22107         0.00001
 -15154210.23908 -11808475.28108  15586617.54008  15586617.62908         0.00001
 -17335629.67208 -13508272.24608  15681817.71008  15681817.73908         0.00001
 -29955130.08708 -23341649.82308  12332708.66208  12332708.40308         0.00001
  -2515585.02308  -1960196.18108  13879803.02908  13879802.31308         0.00001
 -28577933.15308 -22268511.25908  13038493.05408  13038492.97708         0.00001
 -24986370.76908 -19469899.17108  13338621.79408  13338622.63308         0.00001
  -7490857.22808  -5837033.47508  15138336.72708  15138336.90708         0.00001
 93 04 17 11 22 00.0000000  0  8 12 28 23 01 25 21 11 31
    -25145.48308    -19592.77807  16342607.24008  16342608.07507         0.00001
 -14849772.35608 -11571251.01508  15644550.26108  15644550.42608         0.00001
 -17133518.47208 -13350783.03008  15720278.14008  15720278.18008         0.00001
 -29870854.59608 -23275980.61108  12348745.81808  12348745.57308         0.00001
  -2918985.59308  -2274534.22108  13803038.41608  13803037.62308         0.00001
 -28493411.61808 -22202650.34008  13054576.93708  13054576.87508         0.00001
 -24956508.42408 -19446629.85208  13344304.40508  13344305.32508         0.00001
  -7334788.90708  -5715421.85907  15168035.53108  15168035.81407         0.00001
 93 04 17 11 24 00.0000000  0  8 12 28 23 01 25 21 11 31
    219163.57408    170777.91807  16389097.80608  16389098.69307         0.00001
 -14544333.81308 -11333247.01508  15702673.30208  15702673.58508         0.00001
 -16928974.76408 -13191398.38608  15759201.63308  15759201.64908         0.00001
 -29780987.92008 -23205954.61608  12365846.86308  12365846.59408         0.00001
  -3317381.53908  -2584972.55608  13727226.13208  13727225.30508         0.00001
 -28404705.47808 -22133528.68008  13071457.25508  13071457.10408         0.00001
 -24915480.50608 -19414660.08908  13352111.76808  13352112.72108         0.00001
  -7173094.48208  -5589426.25207  15198804.97308  15198805.18007         0.00001
 93 04 17 11 26 00.0000000  0  8 12 28 23 01 25 21 11 31
    471879.51508    367699.44107  16437188.00208  16437188.91007         0.00001
 -14237975.75008 -11094526.50508  15760971.45508  15760971.58308         0.00001
 -16721770.68508 -13029940.74408  15798631.29108  15798631.39708         0.00001
 -29685451.70108 -23131510.80508  12384026.73608  12384026.45808         0.00001
  -3710322.83108  -2891160.51608  13652451.81908  13652451.06308         0.00001
 -28311407.92308 -22060829.30508  13089211.17108  13089211.10308         0.00001
 -24863315.21008 -19374011.85108  13362038.60708  13362039.50008         0.00001
  -7005711.87808  -5458998.30107  15230656.96908  15230657.07507         0.00001
 93 04 17 11 28 00.0000000  0  8 12 28 23 01 25 21 11 31
    732898.58308    571090.91707  16486858.19508  16486859.25007         0.00001
 -13931015.81808 -10855337.00108  15819384.00208  15819384.36008         0.00001
 -16511891.28308 -12866398.41308  15838569.91608  15838570.01108         0.00001
 -29584316.31808 -23052704.00908  12403272.12808  12403271.86208         0.00001
  -4097999.74308  -3193246.35808  13578679.31208  13578678.54808         0.00001
 -28213747.05908 -21984729.94908  13107795.44508  13107795.32008         0.00001
 -24800044.88008 -19324710.33208  13374078.61608  13374079.49108         0.00001
  -6832692.60108  -5324178.14107  15263581.49808  15263581.74507         0.00001
 93 04 17 11 30 00.0000000  0  8 12 28 23 01 25 21 11 31
   1002030.15608    780803.81307  16538072.34608  16538073.25607         0.00001
 -13623520.21508 -10615730.11008  15877898.53708  15877898.77308         0.00001
 -16299376.14308 -12700802.23207  15879010.38908  15879010.22607         0.00001
 -29478113.67008 -22969948.69508  12423481.80208  12423481.53408         0.00001
  -4480278.69508  -3491126.00208  13505934.07508  13505933.21508         0.00001
 -28111963.41508 -21905418.03808  13127164.24208  13127164.05708         0.00001
 -24725792.57508 -19266851.43808  13388208.34908  13388209.26508         0.00001
  -6654427.28708  -5185270.16007  15297504.30308  15297504.59407         0.00001
 93 04 17 11 32 00.0000000  0  8 12 28 23 01 25 21 11 31
   1279156.50908    996746.42807  16590807.66808  16590808.67307         0.00001
 -13315791.22308 -10375941.35808  15936457.35308  15936457.73608         0.00001
 -16084156.95008 -12533098.99507  15919965.16308  15919965.25207         0.00001
 -29366250.08608 -22882782.25708  12444768.76808  12444768.47608         0.00001
  -4856376.04608  -3784188.81808  13434365.01308  13434364.16608         0.00001
 -28005783.69108 -21822680.60608  13147369.60808  13147369.44708         0.00001
 -24640613.53008 -19200478.20508  13404417.38008  13404418.38708         0.00001
  -6471081.61308  -5042403.46107  15332393.90708  15332394.07407         0.00001
 93 04 17 11 34 00.0000000  0  8 12 28 23 01 25 21 11 31
   1564169.63108   1218834.54008  16645043.81808  16645044.91108         0.00001
 -13007512.07408 -10135723.89508  15995120.99308  15995121.27208         0.00001
 -15866070.19708 -12363161.32008  15961465.78408  15961465.89508         0.00001
 -29249292.37908 -22791646.37308  12467025.07808  12467024.76308         0.00001
  -5226127.75108  -4072306.97508  13364003.51608  13364002.72408         0.00001
 -27894667.25508 -21736096.38508  13168514.30308  13168514.23908         0.00001
 -24544557.59408 -19125629.46508  13422696.30708  13422697.27208         0.00001
  -6282802.88108  -4895692.81107  15368222.17608  15368222.30907         0.00001
 93 04 17 11 36 00.0000000  0  8 12 28 23 01 25 21 11 31
   1856903.52707   1446938.83507  16700749.12407  16700750.31807         0.00001
 -12698952.82908  -9895288.18608  16053838.06608  16053838.22508         0.00001
 -15645630.38708 -12191390.09208  16003414.10708  16003414.23408         0.00001
 -29127198.68108 -22696508.41508  12490258.75208  12490258.40808         0.00001
  -5589521.57508  -4355470.94008  13294851.94308  13294851.11308         0.00001
 -27778787.93608 -21645800.82108  13190565.44308  13190565.37208         0.00001
 -24437736.90608 -19042392.59708  13443023.56708  13443024.57108         0.00001
  -6089358.04308  -4744956.64007  15405033.56708  15405033.73607         0.00001
 93 04 17 11 38 00.0000000  0  8 12 28 23 01 25 21 11 31
   2157108.50207   1680864.76107  16757876.31407  16757877.37107         0.00001
 -12390859.22208  -9655215.27908  16112466.17408  16112466.32608         0.00001
 -15422397.34908 -12017442.33808  16045893.88708  16045894.10408         0.00001
 -28999994.23308 -22597388.05008  12514464.91308  12514464.59908         0.00001
  -5946564.73708  -4633686.34608  13226908.90208  13226908.07208         0.00001
 -27658586.58808 -21552137.44008  13213439.01508  13213438.83908         0.00001
 -24320351.92808 -18950923.81508  13465361.21608  13465362.26508         0.00001
  -5891333.85408  -4590652.13607  15442716.25008  15442716.56607         0.00001
 93 04 17 11 40 00.0000000  0  8 12 28 23 01 25 21 11 31
   2464540.38107   1920422.06607  16816378.64207  16816379.69107         0.00001
 -12083184.86008  -9415469.08007  16171014.75808  16171014.93007         0.00001
 -15196284.25008 -11841250.38608  16088921.79308  16088922.17908         0.00001
 -28868065.66608 -22494586.55908  12539570.11908  12539569.76808         0.00001
  -6296983.77308  -4906740.08808  13160226.27408  13160225.46908         0.00001
 -27533829.27308 -21454923.94508  13237179.52808  13237179.40708         0.00001
 -24192602.03708 -18851378.47908  13489671.24508  13489672.29608         0.00001
  -5689111.62608  -4433076.44907  15481197.82308  15481198.15107         0.00001
 93 04 17 11 42 00.0000000  0  8 12 28 01 25 23 21 11 31
   2779101.84307   2165534.88907  16876237.84107  16876238.65007         0.00001
 -11776035.89008  -9176132.26807  16229463.17908  16229463.29607         0.00001
 -28731347.79508 -22388053.13808  12565586.58408  12565586.25608         0.00001
  -6641121.09408  -5174898.98508  13094739.06008  13094738.23508         0.00001
 -14967412.71908 -11662909.00908  16132474.76908  16132475.00608         0.00001
 -27404153.23008 -21353877.68508  13261856.09208  13261855.90908         0.00001
 -24054545.22608 -18743801.76608  13515942.59308  13515943.65308         0.00001
  -5482305.37108  -4271928.80507  15520551.83308  15520552.14807         0.00001
 93 04 17 11 44 00.0000000  0  8 12 28 23 01 25 21 11 31
   3100637.51408   2416082.15107  16937424.05108  16937424.90607         0.00001
 -11469283.89808  -8937104.78007  16287836.33508  16287836.47507         0.00001
 -14735439.30808 -11482150.57608  16176617.94408  16176618.18808         0.00001
 -28590013.52508 -22277922.52608  12592481.55908  12592481.28008         0.00001
  -6978269.56608  -5437612.02708  13030581.79808  13030580.94208         0.00001
 -27269860.69708 -21249234.15408  13287411.10908  13287410.89308         0.00001
 -23906301.03808 -18628286.84208  13544152.49908  13544153.59308         0.00001
  -5271153.64308  -4107395.05807  15560732.79608  15560733.05407         0.00001
 93 04 17 11 46 00.0000000  0  8 12 28 23 01 25 21 11 31
   3428915.75208   2671883.37507  16999893.32608  16999894.04807         0.00001
 -11163687.58007  -8698977.82507  16345989.31607  16345989.62307         0.00001
 -14500839.20208 -11299345.38508  16221260.83208  16221261.15708         0.00001
 -28444083.63308 -22164210.90908  12620251.10908  12620250.83708         0.00001
  -7307936.93708  -5694495.64608  12967848.15008  12967847.28508         0.00001
 -27130623.36908 -21140737.52408  13313907.06508  13313906.88208         0.00001
 -23748070.76908 -18504990.56208  13574262.71908  13574263.77508         0.00001
  -5056246.77208  -3939935.22707  15601628.34308  15601628.65907         0.00001
 93 04 17 11 48 00.0000000  0  8 12 28 23 01 25 21 11 31
   3763645.69508   2932711.85307  17063590.33208  17063591.17207         0.00001
 -10859204.61407  -8461718.43207  16403930.56707  16403930.84407         0.00001
 -14263772.95008 -11114618.52208  16266373.12308  16266373.41708         0.00001
 -28293681.54008 -22047014.46208  12648871.70408  12648871.36308         0.00001
  -7630331.99008  -5945712.51608  12906498.36508  12906497.49008         0.00001
 -26986870.78808 -21028722.51708  13341262.27508  13341262.10308         0.00001
 -23580119.29208 -18374119.31508  13606222.86108  13606223.91308         0.00001
  -4837915.36908  -3769806.93607  15643175.40808  15643175.79307         0.00001
 93 04 17 11 50 00.0000000  0  8 12 28 23 01 25 21 11 31
   4104534.68308   3198339.63207  17128459.43108  17128460.14907         0.00001
 -10555694.00807  -8225216.72107  16461686.73207  16461687.09907         0.00001
 -14023630.70408 -10927494.77608  16312070.77408  16312071.01708         0.00001
 -28138991.53208 -21926476.77808  12678308.19608  12678307.84408         0.00001
  -7945761.65508  -6191501.81508  12846474.03308  12846473.12508         0.00001
 -26838479.87608 -20913093.22608  13369500.15308  13369499.99108         0.00001
 -23402717.84808 -18235884.46308  13639981.31008  13639982.34108         0.00001
  -4616053.74108  -3596927.82407  15685394.33808  15685394.67007         0.00001
 93 04 17 11 52 00.0000000  0  8 12 28 01 25 23 21 11 31
   4451428.64907   3468646.56807  17194471.10807  17194472.26707         0.00001
 -10253965.07807  -7990103.28407  16519103.77607  16519104.12507         0.00001
 -27980523.80108 -21802995.41408  12708463.55108  12708463.28408         0.00001
  -8253855.55408  -6431574.93308  12787845.70108  12787844.77108         0.00001
 -13780915.99508 -10738366.52307  16358257.91208  16358258.11807         0.00001
 -26685479.58308 -20793872.20808  13398615.08708  13398614.93208         0.00001
 -23216003.59708 -18090392.86808  13675511.86208  13675512.89108         0.00001
  -4390994.30308  -3421556.93107  15728221.76908  15728222.14007         0.00001
 93 04 17 11 54 00.0000000  0  8 12 28 01 25 23 21 11 31
   4804066.68507   3743429.41807  17261576.03807  17261576.94107         0.00001
  -9953761.90607  -7756178.77307  16576230.69307  16576231.00407         0.00001
 -27818200.23908 -21676509.51208  12739352.69008  12739352.47608         0.00001
  -8554349.92208  -6665726.33908  12730663.48908  12730662.54208         0.00001
 -13535613.23008 -10547221.59007  16404937.55008  16404937.73707         0.00001
 -26527846.53708 -20671041.25208  13428611.65208  13428611.50308         0.00001
 -23020225.67008 -17937838.67408  13712767.20408  13712768.23708         0.00001
  -4163030.39708  -3243922.81607  15771601.92508  15771602.33807         0.00001
 93 04 17 11 56 00.0000000  0  8 12 28 01 25 23 21 11 31
   5162364.09707   4022622.09107  17329757.80907  17329758.85907         0.00001
  -9655513.91407  -7523777.81007  16632985.43107  16632985.92407         0.00001
 -27652110.73808 -21547089.10908  12770958.43908  12770958.21608         0.00001
  -8847089.79708  -6893835.28508  12674956.83308  12674955.95508         0.00001
 -13287446.74308 -10353845.19607  16452162.03308  16452162.25207         0.00001
 -26365418.73908 -20544474.12908  13459520.62608  13459520.45308         0.00001
 -22815461.16008 -17778281.94308  13751732.56708  13751733.65008         0.00001
  -3932115.59808  -3063989.30707  15815543.72308  15815544.06107         0.00001
 93 04 17 11 58 00.0000000  0  6 23 31 01 25 21 11
 -13036529.31807 -10158325.22407  16499910.03007  16499910.32907         0.00001
  -3698683.32908  -2882094.11207  15859964.49608  15859964.79107         0.00001
 -27482218.11308 -21414705.23108  12803287.88208  12803287.65908         0.00001
  -9132043.72808  -7115877.25608  12620731.86308  12620731.00008         0.00001
 -26198174.94808 -20414154.28908  13491345.97908  13491345.92408         0.00001
 -22601938.40708 -17611900.61208  13792364.63908  13792365.68608         0.00001
 93 04 17 12 00 00.0000000  0  6 23 31 01 25 21 11
 -12783076.73007  -9960829.78407  16548140.47507  16548140.99507         0.00001
  -3462717.82608  -2698224.98007  15904867.12808  15904867.63507         0.00001
 -27308483.48008 -21279327.58708  12836348.45808  12836348.20108         0.00001
  -9409141.81808  -7331797.79308  12568001.79008  12568000.89808         0.00001
 -26026162.46408 -20280118.58508  13524078.89108  13524078.77608         0.00001
 -22379965.53408 -17438934.78208  13834604.72608  13834605.78508         0.00001
 93 04 17 12 02 00.0000000  0  8 28 23 31 15 01 25 21 11
        -0.71617        -0.35217  16800717.78617  16800718.15817         0.00011
 -12526964.56707  -9761261.97807  16596877.18807  16596877.52907         0.00001
  -3224589.02208  -2512670.16307  15950181.44908  15950181.99107         0.00001
        -0.69418        -0.97118  13248387.61218  13248387.56718         0.00011
 -27131730.35908 -21141597.86908  12869983.49108  12869983.20208         0.00001
  -9678192.84308  -7541447.89108  12516803.08608  12516802.16608         0.00001
 -25849876.22508 -20142752.68908  13557625.14008  13557624.91308         0.00001
 -22149907.10808 -17259668.51308  13878383.33308  13878384.42008         0.00001
 93 04 17 12 04 00.0000000  0  8 28 23 31 15 01 25 21 11
    288760.55707    225008.29107  16855667.52907  16855667.92707         0.00001
 -12268442.22307  -9559816.14907  16646072.48707  16646072.90907         0.00001
  -2984937.83308  -2325929.03807  15995785.75008  15995786.20007         0.00001
   -301668.42308   -235066.69308  13190982.16508  13190982.05508         0.00001
 -26951931.58508 -21001494.92208  12904198.04408  12904197.74508         0.00001
  -9939409.72908  -7744993.45608  12467095.14708  12467094.17808         0.00001
 -25668742.04308 -20001609.17908  13592093.78708  13592093.61908         0.00001
 -21911972.80708 -17074265.18908  13923660.73908  13923661.82208         0.00001
 93 04 17 12 06 00.0000000  0  8 28 23 31 15 01 25 21 11
    574920.76807    447990.27907  16910122.17807  16910122.37207         0.00001
 -12007280.24107  -9356313.46507  16695770.00707  16695770.41907         0.00001
  -2743403.85708  -2137720.83607  16041748.35908  16041748.85907         0.00001
   -595160.99308   -463762.16908  13135132.39308  13135132.25708         0.00001
 -26768788.49208 -20858786.01108  12939049.01108  12939048.71008         0.00001
 -10192438.77008  -7942158.88708  12418945.34608  12418944.31008         0.00001
 -25482994.84808 -19856871.11208  13627440.25308  13627440.14808         0.00001
 -21666181.16608 -16882739.25708  13970433.37908  13970434.48708         0.00001
 93 04 17 12 08 00.0000000  0  8 28 23 15 01 25 21 11 31
    857963.15307    668542.69807  16963983.28607  16963983.73407         0.00001
 -11743376.92807  -9150674.71507  16745989.23107  16745989.90907         0.00001
   -880309.34408   -685955.66008  13080870.38608  13080870.30808         0.00001
 -26582439.60608 -20713579.08008  12974510.04808  12974509.74608         0.00001
 -10436969.74708  -8132702.44908  12372412.58008  12372411.57208         0.00001
 -25292498.59608 -19708432.49508  13663690.48208  13663690.43408         0.00001
 -21412737.58008 -16685250.77308  14018662.10208  14018663.27108         0.00001
  -2499915.07808  -1947989.41807  16088082.66808  16088083.23507         0.00001
 93 04 17 12 10 00.0000000  0  7 23 31 15 01 25 21 11
 -11476809.33807  -8942959.97007  16796715.72707  16796716.25907         0.00001
  -2255351.49107  -1757420.50007  16134621.53307  16134622.24907         0.00001
  -1157016.84808   -901571.87108  13028214.70408  13028214.58108         0.00001
 -26392926.56308 -20565906.56508  13010573.19308  13010572.84808         0.00001
 -10673123.68908  -8316718.45808  12327473.92708  12327472.88408         0.00001
 -25097182.82208 -19556238.41308  13700857.90108  13700857.81708         0.00001
 -21151921.17108 -16482017.23608  14068293.86508  14068294.98908         0.00001
 93 04 17 12 12 00.0000000  0  8 20 23 15 01 25 21 11 31
         0.36717        -0.48317  16452843.16617  16452843.97017         0.00011
 -11207592.48707  -8733180.84707  16847946.15007  16847946.83107         0.00001
  -1425090.00408  -1110460.02108  12977202.08808  12977201.97308         0.00001
 -26200744.95308 -20416154.64808  13047144.09108  13047143.76308         0.00001
 -10900600.79508  -8493973.29108  12284186.41808  12284185.32708         0.00001
 -24897134.96008 -19400356.99108  13738925.70008  13738925.65908         0.00001
 -20883912.23908 -16273179.13608  14119294.34508  14119295.44408         0.00001
  -2009202.64807  -1565616.32107  16181462.23207  16181462.92307         0.00001
 93 04 17 12 14 00.0000000  0  8 20 25 15 01 23 21 11 31
   -159937.77307   -124627.59807  16422408.02807  16422408.76807         0.00001
 -11119127.55208  -8664253.82108  12242602.07408  12242601.03408         0.00001
  -1684428.43808  -1312541.89408  12927851.57008  12927851.46108         0.00001
 -26005621.48808 -20264110.38008  13084274.86908  13084274.54008         0.00001
 -10935945.59807  -8521508.22107  16899639.01407  16899639.74007         0.00001
 -24692042.36008 -19240544.60708  13777953.61008  13777953.50308         0.00001
 -20608985.18108 -16058950.30108  14171611.20808  14171612.32508         0.00001
  -1761952.25807  -1372953.79607  16228512.50507  16228513.05907         0.00001
 93 04 17 12 16 00.0000000  0  8 20 15 01 25 23 21 11 31
   -313183.04807   -244039.46408  16393246.36907  16393247.18408         0.00001
  -1934987.72308  -1507782.87308  12880171.72408  12880171.56308         0.00001
 -25808043.30208 -20110153.34908  13121872.77608  13121872.43508         0.00001
 -11329312.05008  -8828033.89308  12202605.23008  12202604.18008         0.00001
 -10661555.23507  -8307697.84107  16951853.96907  16951854.69707         0.00001
 -24482567.42608 -19077317.42208  13817815.42608  13817815.37008         0.00001
 -20327466.02908 -15839584.77208  14225182.53408  14225183.66108         0.00001
  -1514355.10407  -1180021.02107  16275628.82407  16275629.35707         0.00001
 93 04 17 12 18 00.0000000  0  7 20 31 15 01 25 21 11
   -459666.03407   -358182.02308  16365371.53707  16365372.37808         0.00001
  -1266173.86707   -986633.12006  16322856.12407  16322856.79506         0.00001
  -2176697.57308  -1696128.18808  12834175.91608  12834175.71208         0.00001
 -25608034.28008 -19954302.16208  13159933.19408  13159932.80008         0.00001
 -11530628.35308  -8984903.68008  12164295.98408  12164294.90608         0.00001
 -24268533.51908 -18910537.79908  13858544.67808  13858544.64908         0.00001
 -20039655.66808 -15615317.00108  14279951.10908  14279952.20108         0.00001
 93 04 17 12 20 00.0000000  0  8 20 14 15 01 25 21 11 31
   -599263.43007   -466959.20808  16338807.09907  16338807.91508         0.00001
         0.04418        -0.34618  16028224.87818  16028225.48418         0.00011
  -2409434.66108  -1877481.74508  12789887.49108  12789887.31608         0.00001
 -25405404.91808 -19796409.15008  13198492.25608  13198491.85608         0.00001
 -11723200.61308  -9134959.92808  12127650.64308  12127649.59008         0.00001
 -24049657.59908 -18739985.17208  13900195.43908  13900195.39108         0.00001
 -19745798.71908 -15386337.61008  14335870.27508  14335871.37808         0.00001
  -1017347.11007   -792742.19906  16370206.36007  16370207.01206         0.00001
 93 04 17 12 22 00.0000000  0  8 20 14 15 01 25 21 11 31
   -731885.92307   -570301.47707  16313569.96407  16313570.59607         0.00001
   -377256.12608   -293965.98708  15956435.25408  15956435.85208         0.00001
  -2633110.48608  -2051774.58208  12747323.31908  12747323.16708         0.00001
 -25200806.01308 -19636981.43008  13237426.14208  13237425.76908         0.00001
 -11907143.95208  -9278292.34408  12092647.35608  12092646.29808         0.00001
 -23826429.78708 -18566041.47108  13942674.30008  13942674.27508         0.00001
 -19446172.08408 -15152862.35908  14392887.37608  14392888.47508         0.00001
   -768415.51908   -598769.57906  16417576.55108  16417577.06806         0.00001
 93 04 17 12 24 00.0000000  0  8 20 14 15 01 25 21 11 31
   -857429.77207   -668127.92807  16289679.87607  16289680.41207         0.00001
   -755082.14208   -588375.69408  15884537.23208  15884537.75708         0.00001
  -2847622.17508  -2218926.53408  12706503.11108  12706502.95708         0.00001
 -24994175.13308 -19475970.36208  13276746.66708  13276746.32908         0.00001
 -12082279.80508  -9414761.78208  12059320.04808  12059318.97708         0.00001
 -23598580.47808 -18388496.62208  13986032.60908  13986032.59408         0.00001
 -19141036.82508 -14915094.68508  14450952.76908  14450953.85608         0.00001
   -519763.08107   -405014.48006  16464893.63507  16464894.37606         0.00001
 93 04 17 12 26 00.0000000  0  8 20 14 15 01 25 21 11 31
   -975754.34108   -760329.00107  16267163.51108  16267164.20507         0.00001
  -1133656.91508   -883368.84508  15812496.63008  15812497.21808         0.00001
  -3052829.47208  -2378828.31208  12667453.47808  12667453.28908         0.00001
 -24785099.22308 -19313054.07908  13316532.56108  13316532.17608         0.00001
 -12248304.22408  -9544131.41008  12027726.64608  12027725.52908         0.00001
 -23366407.12708 -18207582.39008  14030213.84808  14030213.81808         0.00001
 -18830611.24608 -14673204.69308  14510024.83408  14510025.97208         0.00001
   -271381.48007   -211470.45607  16512159.11507  16512159.77807         0.00001
 93 04 17 12 28 00.0000000  0  8 20 14 15 01 25 21 11 31
  -1086721.62208   -846797.09007  16246047.19908  16246047.82607         0.00001
  -1512503.89208  -1178574.11808  15740404.46308  15740404.88808         0.00001
  -3248598.54508  -2531375.63308  12630199.84008  12630199.63808         0.00001
 -24574350.31608 -19148834.16408  13356636.70908  13356636.36208         0.00001
 -12405176.47208  -9666369.47408  11997874.85308  11997873.70408         0.00001
 -23129532.50508 -18023004.84008  14075289.57808  14075289.58908         0.00001
 -18515115.83708 -14427364.18608  14570061.63808  14570062.80208         0.00001
    -23236.86807    -18111.02107  16559379.50707  16559380.29807         0.00001
 93 04 17 12 30 00.0000000  0  7 20 14 15 01 25 21 11
  -1190322.62008   -927525.20807  16226332.67608  16226333.41107         0.00001
  -1891913.48308  -1474217.79608  15668205.02408  15668205.52208         0.00001
  -3434923.21008  -2676563.68008  12594743.46008  12594743.24808         0.00001
 -24361683.38908 -18983119.70308  13397105.87908  13397105.60708         0.00001
 -12553130.20608  -9781658.04708  11969720.09008  11969718.92208         0.00001
 -22887976.11208 -17834779.16908  14121256.28208  14121256.39008         0.00001
 -18194894.73808 -14177841.32008  14630997.67308  14630998.83808         0.00001
 93 04 17 12 32 00.0000000  0  8 20 14 25 15 01 21 11 31
  -1286554.22408  -1002510.95107  16208020.35708  16208021.27707         0.00001
  -2272003.72208  -1770391.83908  15595876.19408  15595876.51508         0.00001
 -12692053.81608  -9889910.17108  11943283.82608  11943282.62308         0.00001
  -3611804.98608  -2814393.63408  12561083.96908  12561083.76508         0.00001
 -24147630.49908 -18816325.27508  13437838.84308  13437838.48808         0.00001
 -22642148.25008 -17643225.09108  14168035.90408  14168035.97008         0.00001
 -17870295.98508 -13924907.29108  14692766.69508  14692767.96308         0.00001
        -0.77817        -0.25517  16653361.43517  16653362.36717         0.00011
 93 04 17 12 34 00.0000000  0  8 14 20 31 15 01 25 21 11
  -2652418.00708  -2066818.41208  15523485.58208  15523485.80308         0.00001
  -1375343.21008  -1071697.26907  16191124.60008  16191125.29007         0.00001
    245612.50207    191386.68907  16700100.16907  16700101.07707         0.00001
  -3779175.32808  -2944812.07908  12529234.41608  12529234.23508         0.00001
 -23932109.55108 -18648386.91208  13478851.16108  13478850.80508         0.00001
 -12821845.79208  -9991046.73608  11918585.22208  11918584.03408         0.00001
 -22391817.36408 -17448162.17808  14215672.36808  14215672.42508         0.00001
 -17541591.06208 -13668773.65608  14755317.24908  14755318.55508         0.00001
 93 04 17 12 36 00.0000000  0  7 20 14 15 25 01 21 11
  -1456554.06708  -1134978.54707  16175670.81208  16175671.36107         0.00001
  -3033395.72908  -2363684.03608  15450987.85008  15450988.08908         0.00001
  -3936904.90208  -3067718.24208  12499219.44108  12499219.30608         0.00001
 -12942893.69308 -10085369.74508  11895550.51708  11895549.33108         0.00001
 -23714653.47508 -18478940.67008  13520231.72808  13520231.43508         0.00001
 -22137333.29808 -17249863.02708  14264099.21208  14264099.28108         0.00001
 -17208985.90808 -13409600.89008  14818609.98208  14818611.29608         0.00001
 93 04 17 12 38 00.0000000  0  8 20 14 29 15 25 01 21 11
  -1530102.71308  -1192289.29907  16161674.93508  16161675.53307         0.00001
  -3414722.14108  -2660821.36608  15378423.85308  15378424.08708         0.00001
        -0.09018         0.18718  15685006.01118  15685005.99318         0.00011
  -4084916.98708  -3183052.33808  12471053.70808  12471053.54708         0.00001
 -13054936.22508 -10172675.59108  11874229.50008  11874228.33308         0.00001
 -23495840.59308 -18308437.18508  13561870.57608  13561870.22308         0.00001
 -21878551.53508 -17048215.04808  14313343.82608  14313343.94708         0.00001
 -16872732.09908 -13147585.01508  14882596.95008  14882598.38908         0.00001
 93 04 17 12 40 00.0000000  0  8 20 14 29 15 25 01 21 11
  -1595886.66308  -1243549.64607  16149156.62908  16149157.45807         0.00001
  -3796059.45008  -2957967.19008  15305857.64008  15305857.88508         0.00001
   -305756.80508   -238251.64308  15626822.20908  15626822.22608         0.00001
  -4223117.40708  -3290740.98008  12444755.03008  12444754.90808         0.00001
 -13157691.49509 -10252744.61608  11854675.82209  11854674.68708         0.00001
 -23275888.26208 -18137045.82008  13603726.16508  13603725.77108         0.00001
 -21615424.56308 -16843181.20008  14363415.17008  14363415.48608         0.00001
 -16533057.88108 -12882903.89208  14947234.92008  14947236.38108         0.00001
 93 04 17 12 42 00.0000000  0  8 20 14 15 25 01 21 11 29
  -1653753.67408  -1288640.93007  16138144.98808  16138145.91807         0.00001
  -4177775.38708  -3255408.07908  15233219.40008  15233219.61508         0.00001
  -4351362.16508  -3390671.96708  12420350.92808  12420350.73108         0.00001
 -13251174.11608 -10325588.20308  11836886.62708  11836885.49808         0.00001
 -23054823.02608 -17964787.26608  13645793.56608  13645793.11208         0.00001
 -21348237.94008 -16634983.99508  14414259.16908  14414259.54908         0.00001
 -16190135.65308 -12615691.84708  15012490.98308  15012492.30608         0.00001
   -609004.15808   -474548.15408  15569116.01808  15569116.06908         0.00001
 93 04 17 12 44 00.0000000  0  8 20 15 25 14 01 21 11 29
  -1703593.49708  -1327477.28307  16128660.87408  16128661.86807         0.00001
  -4469553.80508  -3482769.36208  12397859.80208  12397859.62708         0.00001
 -13335508.72209 -10391303.47508  11820838.30609  11820837.16008         0.00001
  -4559706.95008  -3553017.02508  15160540.17708  15160540.34508         0.00001
 -22832064.64708 -17791209.38508  13688183.11108  13688182.71808         0.00001
 -21076548.06308 -16423277.78008  14465960.20008  14465960.56108         0.00001
 -15844175.94008 -12346112.91608  15078325.07208  15078326.25108         0.00001
   -909647.99708   -708815.93208  15511905.18408  15511905.33708         0.00001
 93 04 17 12 46 00.0000000  0  8 20 14 15 25 11 01 21 29
  -1745376.68907  -1360035.69807  16120709.85307  16120710.70907         0.00001
  -4941463.23708  -3850489.40308  15087894.27608  15087894.53908         0.00001
  -4577673.59808  -3567018.56208  12377285.30308  12377285.12708         0.00001
 -13410420.93509 -10449676.62808  11806582.90409  11806581.74008         0.00001
 -15495462.55908 -12074388.27908  15144683.01408  15144684.35608         0.00001
 -22608216.01508 -17616781.96908  13730780.08608  13730779.79008         0.00001
 -20800451.33608 -16208137.67508  14518499.85408  14518500.21108         0.00001
  -1207744.19708   -941098.54408  15455179.42408  15455179.35208         0.00001
 93 04 17 12 48 00.0000000  0  8 20 11 29 15 25 01 14 21
  -1779058.73507  -1386281.52807  16114300.33507  16114301.01907         0.00001
 -15144257.20408 -11800721.86208  15211515.22408  15211516.63808         0.00001
  -1503340.83808  -1171433.45908  15398929.11508  15398928.99908         0.00001
  -4675689.46408  -3643394.58408  12358633.51508  12358633.37008         0.00001
 -13476411.75709 -10501098.05508  11794025.29309  11794024.17708         0.00001
 -22383162.19608 -17441415.45708  13773606.48308  13773606.20208         0.00001
  -5323020.20908  -4147806.47408  15015286.40708  15015286.66608         0.00001
 -20520232.88308 -15989785.83408  14571823.89508  14571824.20008         0.00001
 93 04 17 12 50 00.0000000  0  8 20 11 29 15 25 01 14 21
  -1804655.91008  -1406227.51507  16109429.55008  16109430.51807         0.00001
 -14790876.56408 -11525360.41608  15278761.39208  15278762.74608         0.00001
  -1796724.26508  -1400043.80008  15343099.96908  15343099.92608         0.00001
  -4763632.39608  -3711921.56108  12341898.53908  12341898.42808         0.00001
 -13532980.44809 -10545177.56708  11783260.68209  11783259.58408         0.00001
 -22156861.83008 -17265077.62308  13816670.11408  13816669.82708         0.00001
  -5704615.55208  -4445153.43908  14942671.14408  14942671.33008         0.00001
 -20235547.98908 -15767953.67008  14625997.87008  14625998.21308         0.00001
 93 04 17 12 52 00.0000000  0  8 20 11 29 15 25 01 14 21
  -1822180.12308  -1419882.88207  16106095.00908  16106096.02707         0.00001
 -14435625.56708 -11248541.56008  15346363.41108  15346364.94208         0.00001
  -2087558.32308  -1626667.62308  15287756.15508  15287755.88008         0.00001
  -4841528.73108  -3772620.02608  12327075.35008  12327075.25308         0.00001
 -13580358.58209 -10582095.61508  11774244.93609  11774243.82708         0.00001
 -21929935.37108 -17088251.93008  13859852.84708  13859852.62808         0.00001
  -6086326.77908  -4742590.70508  14870033.92608  14870034.13208         0.00001
 -19946857.19508 -15543000.05408  14680934.05208  14680934.52708         0.00001
 93 04 17 12 54 00.0000000  0  8 20 11 29 15 25 01 14 21
  -1831618.81908  -1427237.81607  16104298.82008  16104299.84007         0.00001
 -14078779.54708 -10970479.82208  15414268.97808  15414270.58608         0.00001
  -2375852.67408  -1851312.46008  15232895.42408  15232895.14508         0.00001
  -4909384.04308  -3825494.32908  12314162.93208  12314162.85508         0.00001
 -13618894.77809 -10612123.84808  11766911.74609  11766910.61408         0.00001
 -21702383.60308 -16910938.99808  13903154.59008  13903154.46108         0.00001
  -6467902.54908  -5039922.43508  14797422.42308  14797422.50408         0.00001
 -19654274.61508 -15315013.89808  14736610.82708  14736611.32108         0.00001
 93 04 17 12 56 00.0000000  0  8 20 11 29 15 25 01 14 21
  -1832855.51808  -1428201.54407  16104063.60608  16104064.72707         0.00001
 -13720501.87308 -10691302.52508  15482447.01408  15482448.66908         0.00001
  -2662066.41608  -2074336.04608  15178430.62808  15178430.43508         0.00001
  -4967100.83708  -3870468.48808  12303179.81908  12303179.75408         0.00001
 -13648475.20909 -10635173.56908  11761282.82809  11761281.72508         0.00001
 -21473865.72108 -16732873.25508  13946640.18508  13946640.13008         0.00001
  -6849065.02108  -5336932.12108  14724889.57408  14724889.74108         0.00001
 -19357350.69208 -15083644.87808  14793113.80108  14793114.36908         0.00001
 93 04 17 12 58 00.0000000  0  8 20 11 29 15 25 01 14 21
  -1825779.89607  -1422688.14507  16105409.94207  16105411.12207         0.00001
 -13360953.74408 -10411135.25707  15550866.96308  15550868.40107         0.00001
  -2946141.21508  -2295692.94308  15124373.00408  15124372.72808         0.00001
  -5014588.42708  -3907471.84508  12294143.25908  12294143.14008         0.00001
 -13668798.12209 -10651009.64908  11757415.57809  11757414.47608         0.00001
 -21244154.12008 -16553877.35108  13990352.93108  13990352.89608         0.00001
  -7229608.25608  -5633459.29608  14652474.69008  14652474.82208         0.00001
 -19056878.41908 -14849510.93008  14850292.10208  14850292.62308         0.00001
 93 04 17 13 00 00.0000000  0  8 20 11 29 15 25 01 14 21
  -1810342.85807  -1410659.39607  16108347.71007  16108348.96707         0.00001
 -13000349.74108 -10130145.21107  15619487.69908  15619489.14407         0.00001
  -3227613.86608  -2515022.21408  15070810.44408  15070810.17108         0.00001
  -5051816.93908  -3936481.11608  12287058.98708  12287058.92508         0.00001
 -13680127.95809 -10659838.14608  11755259.56209  11755258.47308         0.00001
 -21013787.55508 -16374371.09008  14034190.36108  14034190.35708         0.00001
  -7609799.73908  -5929712.40108  14580126.63808  14580126.79308         0.00001
 -18752024.29408 -14611962.57708  14908304.02708  14908304.79108         0.00001
 93 04 17 13 02 00.0000000  0  8 20 21 15 25 11 29 01 14
  -1786662.95507  -1392207.67007  16112854.04207  16112855.25107         0.00001
 -18443244.47808 -14371355.25408  14967063.03508  14967063.91908         0.00001
  -5078929.81708  -3957608.08208  12281899.61408  12281899.57908         0.00001
 -13682523.52809 -10661704.87808  11754803.75609  11754802.68608         0.00001
 -12639066.49907  -9848625.89507  15688237.45907  15688239.22107         0.00001
  -3506649.31308  -2732452.35908  15017711.69208  15017711.36208         0.00001
 -20782780.85708 -16194366.03008  14078149.55508  14078149.59908         0.00001
  -7989654.33308  -6225702.97208  14507842.72408  14507842.95308         0.00001
 93 04 17 13 04 00.0000000  0  8 20 21 11 15 25 01 14 29
  -1754859.81307  -1367426.14907  16118906.06207  16118907.26807         0.00001
 -18131080.62408 -14128111.02908  15026466.11708  15026466.91808         0.00001
 -12277472.92907  -9566864.77907  15757046.61807  15757048.35407         0.00001
  -5096070.55208  -3970964.55508  12278637.86608  12278637.82108         0.00001
 -13675963.99109 -10656593.60908  11756052.01309  11756050.94108         0.00001
 -20551319.59108 -16014006.77108  14122195.31608  14122195.37508         0.00001
  -8368684.52108  -6521051.16208  14435715.55208  14435715.84408         0.00001
  -3783768.30108  -2948389.17308  14964977.67508  14964977.33608         0.00001
 93 04 17 13 06 00.0000000  0  8 21 20 11 15 25 01 14 29
 -17814972.23408 -13881793.15908  15086619.84408  15086620.63708         0.00001
  -1714881.20908  -1336274.16307  16126513.91708  16126515.17207         0.00001
 -11915757.72007  -9285008.87607  15825878.90607  15825880.63407         0.00001
  -5103212.05608  -3976529.42508  12277278.95608  12277278.92008         0.00001
 -13660621.50609 -10644638.48908  11758971.63809  11758970.58708         0.00001
 -20319616.10608 -15833458.77708  14166287.15908  14166287.34408         0.00001
  -8747265.53508  -6816049.36008  14363674.00808  14363674.32708         0.00001
  -4059048.69108  -3162893.32208  14912593.48008  14912593.12308         0.00001
 93 04 17 13 08 00.0000000  0  7 20 21 15 25 01 14 29
  -1666614.79207  -1298664.14807  16135698.72207  16135699.97307         0.00001
 -17495066.56908 -13632516.35908  15147496.17808  15147497.10708         0.00001
  -5100269.42808  -3974236.53108  12277838.94008  12277838.91208         0.00001
 -13636820.32509 -10626092.18208  11763500.84909  11763499.85608         0.00001
 -20087193.13708 -15652350.15908  14210515.82608  14210516.11508         0.00001
  -9125083.47908  -7110452.96908  14291777.65408  14291777.95808         0.00001
  -4332150.91208  -3375700.21508  14860623.81308  14860623.46108         0.00001
 93 04 17 13 10 00.0000000  0  7 21 20 15 25 01 14 29
 -17171407.98508 -13380315.22108  15209086.58008  15209087.68408         0.00001
  -1609963.16707  -1254520.21807  16146479.25907  16146480.57307         0.00001
  -5087173.91208  -3964032.30008  12280330.94408  12280330.99808         0.00001
 -13604008.62009 -10600524.69508  11769744.73309  11769743.77708         0.00001
 -19854278.23008 -15470858.21608  14254838.31908  14254838.46308         0.00001
  -9501551.17308  -7403804.43608  14220138.36208  14220138.46908         0.00001
  -4602502.56908  -3586363.82008  14809177.55608  14809177.23108         0.00001
 93 04 17 13 12 00.0000000  0  7 21 20 15 25 01 14 29
 -16844161.68208 -13125318.47308  15271359.79708  15271360.97108         0.00001
  -1544974.98008  -1203880.24307  16158846.28708  16158847.52707         0.00001
  -5064003.32208  -3945977.36508  12284740.15608  12284740.29408         0.00001
 -13562363.43309 -10568073.98308  11777669.69709  11777668.73408         0.00001
 -19620737.45008 -15288878.57708  14299279.84508  14299279.94508         0.00001
  -9877152.44608  -7696480.79108  14148663.85308  14148663.88408         0.00001
  -4871114.30708  -3795671.64108  14758062.52308  14758062.10608         0.00001
 93 04 17 13 14 00.0000000  0  7 21 20 15 25 01 14 29
 -16513332.36708 -12867529.77508  15334314.89808  15334316.16008         0.00001
  -1471699.98208  -1146783.01407  16172790.38308  16172791.68807         0.00001
  -5030838.59208  -3920134.79608  12291051.32708  12291051.38308         0.00001
 -13512295.43209 -10529060.03908  11787197.35209  11787196.43808         0.00001
 -19386596.99008 -15106431.66308  14343835.46108  14343835.64608         0.00001
 -10251545.06708  -7988215.33308  14077419.23008  14077419.32808         0.00001
  -5137586.67608  -4003312.44008  14707354.56808  14707354.13008         0.00001
 93 04 17 13 16 00.0000000  0  7 20 21 15 25 01 14 29
  -1390211.08908  -1083285.32107  16188297.23608  16188298.49607         0.00001
 -16178823.98508 -12606874.31408  15397969.97208  15397971.32308         0.00001
  -4987785.54608  -3886587.05008  12299244.15508  12299244.16808         0.00001
 -13453803.31409 -10483481.84508  11798328.06109  11798327.16908         0.00001
 -19152343.84008 -14923896.94408  14388412.46908  14388412.77708         0.00001
 -10624604.98308  -8278911.39508  14006428.32908  14006428.50908         0.00001
  -5401481.72608  -4208944.93608  14657136.90008  14657136.61408         0.00001
 93 04 17 13 18 00.0000000  0  8 20 21 22 15 25 01 14 29
  -1300649.05108  -1013496.81507  16205340.46308  16205341.74307         0.00001
 -15841198.42507 -12343789.88308  15462218.16407  15462219.69708         0.00001
         0.00418        -0.49718  15216880.31618  15216880.96418         0.00011
  -4935016.61208  -3845468.48608  12309285.83408  12309285.84708         0.00001
 -13386761.74009 -10431241.74208  11811085.72709  11811084.82108         0.00001
 -18917880.38608 -14741198.35608  14433029.60208  14433029.90808         0.00001
 -10996495.29508  -8568696.09008  13935659.99308  13935660.23308         0.00001
  -5663481.32508  -4413100.47008  14607280.05508  14607279.75708         0.00001
 93 04 17 13 20 00.0000000  0  8 20 21 22 15 25 14 01 29
  -1202985.78608   -937395.65307  16223925.08708  16223926.53607         0.00001
 -15500215.45507 -12078089.32708  15527105.40207  15527107.05208         0.00001
   -384302.55208   -299457.32508  15143750.01508  15143750.41908         0.00001
  -4872540.57808  -3796785.95508  12321174.69608  12321174.75808         0.00001
 -13311385.14609 -10372506.81908  11825429.52109  11825428.65908         0.00001
 -11366939.62908  -8857354.04508  13865166.74608  13865167.09608         0.00001
 -18682892.32008 -14558090.98208  14477746.47808  14477746.80708         0.00001
  -5923780.46108  -4615930.97508  14557746.78208  14557746.47708         0.00001
 93 04 17 13 22 00.0000000  0  8 20 21 22 15 25 14 01 29
  -1097235.03707   -854992.61107  16244048.88607  16244050.27507         0.00001
 -15155836.02007 -11809742.18508  15592639.00007  15592640.71408         0.00001
   -768054.40108   -598484.81008  15070724.66408  15070725.00708         0.00001
  -4800407.27108  -3740578.28008  12334901.25808  12334901.36208         0.00001
 -13227842.57309 -10307408.80008  11841327.20109  11841326.34808         0.00001
 -11735859.77308  -9144824.32708  13794963.55708  13794963.92708         0.00001
 -18447520.83308 -14374684.85308  14522536.30508  14522536.75808         0.00001
  -6182288.03108  -4817365.48408  14508554.49608  14508554.11608         0.00001
 93 04 17 13 24 00.0000000  0  8 20 21 15 25 14 01 22 29
   -983529.94507   -766391.42307  16265686.42307  16265687.97607         0.00001
 -14808615.11508 -11539180.91108  15658713.31208  15658715.13108         0.00001
  -4718787.33708  -3676978.42508  12350433.08308  12350433.21508         0.00001
 -13136215.40909 -10236011.10508  11858763.35809  11858762.51208         0.00001
 -12103085.68608  -9430974.44008  13725082.96008  13725083.34108         0.00001
 -18212245.98608 -14191354.03108  14567307.72308  14567308.29708         0.00001
  -1151148.54708   -896999.88208  14997824.26008  14997824.93408         0.00001
  -6438899.57008  -5017322.56208  14459722.93008  14459722.66908         0.00001
 93 04 17 13 26 00.0000000  0  8 20 21 15 25 14 01 22 29
   -862024.34907   -671711.91907  16288808.21907  16288809.97807         0.00001
 -14458391.34208 -11266279.75808  15725359.09108  15725360.95908         0.00001
  -4627872.69608  -3606135.94608  12367733.64708  12367733.81608         0.00001
 -13036805.48709 -10158548.92508  11877680.50009  11877679.69708         0.00001
 -12468904.04808  -9716027.76208  13655469.99408  13655470.38208         0.00001
 -17976892.85108 -14007962.20708  14612094.05508  14612094.71108         0.00001
  -1533493.67308  -1194931.25608  14925066.55608  14925067.28708         0.00001
  -6693362.80108  -5215605.62208  14411300.21808  14411300.00208         0.00001
 93 04 17 13 28 00.0000000  0  8 20 21 15 25 14 01 22 29
   -732826.87307   -571038.72707  16313393.97307  16313395.43207         0.00001
 -14105253.60808 -10991107.99407  15792559.37108  15792561.35907         0.00001
  -4527814.30608  -3528168.47408  12386774.20508  12386774.39108         0.00001
 -12929739.36209 -10075120.87308  11898054.54209  11898053.77108         0.00001
 -12832744.19208  -9999539.61608  13586233.57508  13586233.90208         0.00001
 -17741325.67708 -13824403.60908  14656921.19508  14656921.92308         0.00001
  -1914946.06908  -1492166.99008  14852478.71208  14852479.50908         0.00001
  -6946190.69808  -5412614.40208  14363188.71908  14363188.44208         0.00001
 93 04 17 13 30 00.0000000  0  7 20 15 25 01 14 22 29
   -595962.03307   -464390.93707  16339438.56907  16339440.14307         0.00001
  -4418676.77208  -3443126.35908  12407542.46808  12407542.69008         0.00001
 -12815199.97009  -9985869.49408  11919850.73409  11919849.98808         0.00001
 -17506013.93908 -13641044.06908  14701699.76208  14701700.50408         0.00001
 -13194828.21208 -10281683.06608  13517331.35808  13517331.62608         0.00001
  -2295268.53808  -1788522.25708  14780105.76108  14780106.63208         0.00001
  -7197526.10208  -5608460.19708  14315361.15008  14315360.91208         0.00001
 93 04 17 13 32 00.0000000  0  8 20 21 15 25 01 14 22 29
   -451316.79107   -351680.47407  16366963.71907  16366965.45107         0.00001
        -0.21517        -0.63117  15928551.08717  15928553.28217         0.00011
  -4300388.53808  -3350953.83108  12430052.10408  12430052.32908         0.00001
 -12693130.55909  -9890750.57008  11943079.87009  11943079.10408         0.00001
 -17270789.11208 -13457752.24208  14746461.75108  14746462.56008         0.00001
 -13555008.33508 -10562342.96508  13448791.40308  13448791.66508         0.00001
  -2674084.61808  -2083703.76108  14708019.57908  14708020.43208         0.00001
  -7447143.50508  -5802967.28808  14267860.60108  14267860.32208         0.00001
 93 04 17 13 34 00.0000000  0  8 20 21 15 25 01 14 22 29
   -298891.38507   -232907.54707  16395969.29807  16395971.04907         0.00001
    361704.30907    281846.57107  15997381.61007  15997383.91407         0.00001
  -4172993.93608  -3251685.43608  12454294.57508  12454294.85508         0.00001
 -12563314.25809  -9789595.11308  11967783.19209  11967782.46408         0.00001
 -17035188.74808 -13274167.77608  14791295.22108  14791296.06708         0.00001
 -13912685.54408 -10841052.53908  13380727.76608  13380728.04408         0.00001
  -3051122.00608  -2377499.21708  14636271.95508  14636272.66408         0.00001
  -7694997.97908  -5996100.68208  14220695.52508  14220695.15508         0.00001
 93 04 17 13 36 00.0000000  0  7 21 15 25 01 14 22 29
    725887.02907    565624.81807  16066683.62807  16066686.04307         0.00001
  -4036683.00508  -3145469.25408  12480233.78008  12480234.03808         0.00001
 -12425946.82309  -9682555.65508  11993923.37609  11993922.70408         0.00001
 -16799442.38508 -13090469.54108  14836156.51408  14836157.26908         0.00001
 -14267779.00008 -11117748.79208  13313155.81508  13313156.15808         0.00001
  -3426247.91908  -2669805.17008  14564887.83908  14564888.60508         0.00001
  -7940793.81208  -6187629.92308  14173921.99808  14173921.83608         0.00001
 93 04 17 13 38 00.0000000  0  7 21 15 01 25 14 22 29
   1092824.87207    851549.89307  16136509.98207  16136512.37407         0.00001
  -3891493.85608  -3032334.98808  12507862.46108  12507862.77908         0.00001
 -16563382.72908 -12906527.16008  14881077.36808  14881078.12308         0.00001
 -12281117.47909  -9569701.72208  12021483.59909  12021482.94808         0.00001
 -14620216.12908 -11392375.17708  13246089.29008  13246089.68908         0.00001
  -3799171.50208  -2960395.04108  14493922.90708  14493923.63508         0.00001
  -8184925.07708  -6377862.08608  14127465.40008  14127465.22208         0.00001
 93 04 17 13 40 00.0000000  0  8 20 21 15 01 25 14 22 29
        -0.33317        -0.25417  16491698.11017  16491700.10917         0.00011
   1462638.24307   1139715.64507  16206883.43707  16206886.12407         0.00001
  -3737516.81408  -2912353.02308  12537163.41308  12537163.77408         0.00001
 -16327292.35908 -12722560.86308  14926004.03408  14926004.93008         0.00001
 -12128928.59809  -9451113.09208  12050444.24409  12050443.61908         0.00001
 -14970145.07208 -11665047.13208  13179500.00608  13179500.43408         0.00001
  -4169647.89208  -3249077.97508  14423423.62208  14423424.28408         0.00001
  -8427420.59908  -6566819.65308  14081320.09708  14081319.88308         0.00001
 93 04 17 13 42 00.0000000  0  8 01 20 21 15 25 14 22 29
 -16090880.79108 -12538344.29308  14970991.71108  14970992.67908         0.00001
    182694.42107    142359.22807  16526463.87307  16526465.85107         0.00001
   1835007.97307   1429873.40307  16277743.40407  16277746.08607         0.00001
  -3574995.83308  -2785713.44008  12568090.21808  12568090.60508         0.00001
 -11969919.99509  -9327210.39208  12080702.65609  12080702.07108         0.00001
 -15317082.83908 -11935388.31208  13113479.97208  13113480.38208         0.00001
  -4537579.97708  -3535778.32308  14353408.33708  14353409.12108         0.00001
  -8667901.32508  -6754207.23708  14035558.11308  14035557.91008         0.00001
 93 04 17 13 44 00.0000000  0  7 01 21 15 25 14 22 29
 -15854306.65508 -12354001.03108  15016010.48308  15016011.42708         0.00001
   2209674.19507   1721820.57607  16349040.34907  16349043.30207         0.00001
  -3403931.63608  -2652416.80608  12600642.77308  12600643.13608         0.00001
 -11803788.38009  -9197757.28308  12112316.51309  12112315.94808         0.00001
 -15660668.28108 -12203117.27808  13048097.91008  13048098.28508         0.00001
  -4902621.86908  -3820226.59308  14283943.27908  14283943.99108         0.00001
  -8906476.34908  -6940109.86208  13990158.83608  13990158.64908         0.00001
 93 04 17 13 46 00.0000000  0  7 01 21 15 25 14 22 29
 -15617551.20508 -12169516.49208  15061063.69108  15061064.81508         0.00001
   2586928.93807   2015784.80207  16420829.91507  16420833.01607         0.00001
  -3224401.70308  -2512523.50208  12634806.28908  12634806.72708         0.00001
 -11630763.37208  -9062932.68408  12145242.12808  12145241.59408         0.00001
 -16001145.18908 -12468424.00208  12983307.36208  12983307.72008         0.00001
  -5264498.28108  -4102208.28408  14215080.50608  14215081.28508         0.00001
  -9143310.18308  -7124655.73508  13945090.91308  13945090.67008         0.00001
 93 04 17 13 48 00.0000000  0  7 01 21 15 25 14 22 29
 -15380606.38408 -11984884.39208  15106152.95408  15106154.15608         0.00001
   2966367.31807   2311450.55807  16493035.01107  16493038.30607         0.00001
  -3036666.20308  -2366236.25308  12670531.28708  12670531.80708         0.00001
 -11450852.51908  -8922742.48208  12179478.08008  12179477.57408         0.00001
 -16338318.82208 -12731156.74608  12919145.41208  12919145.78308         0.00001
  -5623111.54208  -4381647.24708  14146838.64008  14146839.59308         0.00001
  -9378515.82608  -7307932.87008  13900332.72808  13900332.56708         0.00001
 93 04 17 13 50 00.0000000  0  7 01 21 15 25 14 22 29
 -15143287.43208 -11799960.78208  15151313.44808  15151314.70008         0.00001
   3348069.31207   2608880.10707  16565670.92807  16565674.29507         0.00001
  -2840957.60908  -2213736.20808  12707773.54708  12707774.07308         0.00001
 -11264089.81708  -8777213.17508  12215017.89808  12215017.41708         0.00001
 -16672046.52108 -12991204.35308  12855639.10808  12855639.53408         0.00001
  -5978331.07108  -4658441.74008  14079242.76308  14079243.64008         0.00001
  -9611869.34108  -7489766.77508  13855927.11108  13855926.84108         0.00001
 93 04 17 13 52 00.0000000  0  7 01 21 15 25 14 22 29
 -14905731.79908 -11614852.74408  15196518.98408  15196520.14508         0.00001
   3731980.09507   2908030.96707  16638727.07507  16638730.54307         0.00001
  -2637376.70808  -2055101.90208  12746513.83508  12746514.34208         0.00001
 -11071030.73208  -8626777.60808  12251755.89308  12251755.43608         0.00001
 -17001819.58408 -13248170.43008  12792885.48308  12792885.89308         0.00001
  -6329893.54408  -4932386.54908  14012342.68908  14012343.53708         0.00001
  -9843610.73308  -7670344.51108  13811828.16308  13811827.92608         0.00001
 93 04 17 13 54 00.0000000  0  7 01 21 15 25 14 22 29
 -14668081.74108 -11429671.12908  15241742.45808  15241743.65708         0.00001
   4118132.94707   3208928.85407  16712209.74607  16712213.28407         0.00001
  -2426044.13508  -1890427.33908  12786729.18608  12786729.73008         0.00001
 -10871709.57108  -8471462.51408  12289685.54208  12289685.13108         0.00001
 -17327466.12208 -13501921.03108  12730917.07308  12730917.49108         0.00001
  -6677547.63208  -5203285.86408  13946186.39108  13946187.16008         0.00001
 -10073769.14008  -7849688.76508  13768030.44208  13768030.23308         0.00001
 93 04 17 13 56 00.0000000  0  6 01 15 25 14 22 29
 -14430255.84008 -11244352.50008  15286999.40508  15287000.66608         0.00001
  -2207163.99108  -1719871.55008  12828380.82308  12828381.42908         0.00001
 -10666113.67808  -8311258.04108  12328809.17308  12328808.80008         0.00001
 -17649481.76508 -13752842.34208  12669639.51508  12669639.94408         0.00001
  -7021123.65808  -5471007.44508  13880805.97408  13880806.83008         0.00001
 -10302215.84108  -8027699.24008  13724558.51808  13724558.38408         0.00001
 93 04 17 13 58 00.0000000  0  6 01 15 25 14 22 29
 -14192369.32708 -11058986.66108  15332268.00808  15332269.30108         0.00001
  -1981016.89308  -1543653.21608  12871415.30108  12871415.97208         0.00001
 -10454583.55208  -8146429.49008  12369062.10208  12369061.72808         0.00001
 -17967509.90908 -14000656.51408  12609120.76008  12609121.24708         0.00001
  -7360526.05808  -5735476.82508  13816219.82008  13816220.70308         0.00001
 -10528982.64408  -8204400.70008  13681406.30008  13681406.15908         0.00001
 93 04 17 14 00 00.0000000  0  6 01 15 25 14 22 29
 -13954470.67008 -10873611.38608  15377538.90908  15377540.26808         0.00001
  -1747915.14108  -1362015.67608  12915773.23808  12915773.92308         0.00001
 -10237216.60108  -7977052.76308  12410425.70708  12410425.35408         0.00001
 -18281442.16708 -14245279.09508  12549381.44408  12549381.98208         0.00001
  -7695686.35808  -5996640.67708  13752441.01308  13752441.81608         0.00001
 -10754403.04708  -8380053.00708  13638510.28108  13638510.03808         0.00001
 93 04 17 14 02 00.0000000  0  6 01 15 25 14 22 29
 -13716833.65308 -10688439.99808  15422759.94608  15422761.43108         0.00001
  -1508214.63308  -1175236.24508  12961386.90408  12961387.60508         0.00001
 -10014694.94708  -7803659.38408  12452770.25908  12452769.97908         0.00001
 -18591432.76108 -14486830.25208  12490392.30208  12490392.75608         0.00001
  -8026578.59508  -6254478.76308  13689474.28408  13689475.10908         0.00001
 -10978481.55708  -8554659.69308  13595869.54308  13595869.37908         0.00001
 93 04 17 14 04 00.0000000  0  6 01 15 25 14 22 29
 -13479230.88408 -10503295.32308  15467974.46408  15467976.09008         0.00001
  -1262069.44608   -983434.99008  13008226.87508  13008227.67008         0.00001
  -9786687.39308  -7625991.27408  12496158.79408  12496158.52808         0.00001
 -18897337.93908 -14725197.97308  12432180.55608  12432180.98708         0.00001
  -8352972.78508  -6508811.88108  13627363.46708  13627364.28708         0.00001
 -11201521.13208  -8728456.80908  13553426.55708  13553426.49008         0.00001
 93 04 17 14 06 00.0000000  0  6 01 15 25 14 22 29
 -13241529.90308 -10318074.12708  15513207.64308  15513209.43108         0.00001
  -1009503.00008   -786630.16108  13056288.82908  13056289.68908         0.00001
  -9553304.43908  -7444134.54108  12540570.20008  12540569.93508         0.00001
 -19198370.17908 -14959768.59508  12374896.01208  12374896.47008         0.00001
  -8674505.30308  -6759356.70008  13566177.85408  13566178.65608         0.00001
 -11423269.25608  -8901247.60308  13511229.31208  13511229.22308         0.00001
 93 04 17 14 08 00.0000000  0  6 01 15 25 14 22 29
 -13003857.08308 -10132874.89008  15558435.52608  15558437.35208         0.00001
   -750605.97208   -584892.42608  13105555.45008  13105556.40708         0.00001
  -9314955.82208  -7258408.46108  12585926.50508  12585926.27208         0.00001
 -19494752.40908 -15190715.83008  12318496.42808  12318496.85508         0.00001
  -8990881.03808  -7005883.22408  13505973.54308  13505974.44308         0.00001
 -11643348.80208  -9072738.20308  13469349.61408  13469349.48508         0.00001
 93 04 17 14 10 00.0000000  0  6 01 15 25 14 22 29
 -12766107.06508  -9947615.48908  15603678.17808  15603679.96108         0.00001
   -485651.08908   -378434.28508  13155974.90608  13155975.88708         0.00001
  -9071782.74908  -7068923.07708  12632200.93208  12632200.74508         0.00001
 -19786387.08908 -15417963.67208  12263000.15408  12263000.61808         0.00001
  -9301983.20008  -7248300.45508  13446772.73808  13446773.62808         0.00001
 -11862337.48008  -9243378.77008  13427677.45808  13427677.37408         0.00001
 93 04 17 14 12 00.0000000  0  6 01 15 25 14 22 29
 -12527964.95108  -9762050.56807  15648995.46508  15648997.23507         0.00001
   -214807.88308   -167387.85508  13207514.86208  13207515.88608         0.00001
  -8823466.95808  -6875430.38608  12679453.96708  12679453.78008         0.00001
 -20072811.03908 -15641151.20008  12208495.54908  12208496.08908         0.00001
  -9607592.35008  -7486437.42508  13388617.19408  13388618.00508         0.00001
 -12080111.22208  -9413072.64008  13386236.59408  13386236.45908         0.00001
 93 04 17 14 14 00.0000000  0  6 01 15 25 14 22 29
 -12289586.73508  -9576301.69507  15694357.57208  15694359.56607         0.00001
     61818.68508     48165.08108  13260155.26308  13260156.32508         0.00001
  -8570594.80008  -6678387.28308  12727574.01608  12727573.85608         0.00001
 -20353741.18208 -15860057.84408  12155036.36208  12155036.91908         0.00001
  -9907425.68308  -7720073.74308  13331560.89408  13331561.60608         0.00001
 -12296023.06708  -9581315.68508  13345149.97608  13345149.95608         0.00001
 93 04 17 14 16 00.0000000  0  6 01 14 15 25 22 29
 -12051004.98108  -9390394.19507  15739758.48408  15739760.56707         0.00001
 -20629817.49408 -16075182.28608  12102500.84408  12102501.36608         0.00001
    343949.74808    268007.22508  13313843.17208  13313844.30108         0.00001
  -8313007.48508  -6477670.04108  12776591.42108  12776591.24608         0.00001
 -10201373.26808  -7949123.77208  13275624.44408  13275625.22008         0.00001
 -12510727.98908  -9748618.26208  13304293.02008  13304293.04008         0.00001
 93 04 17 14 18 00.0000000  0  7 18 01 14 15 25 22 29
        -0.03817        -0.30317  16054995.63317  16054997.14617         0.00011
 -11812549.84108  -9204585.34107  15785135.24808  15785137.40707         0.00001
 -20900452.56608 -16286066.80208  12051000.71108  12051001.28108         0.00001
    631245.94808    491874.15808  13368514.05308  13368515.20208         0.00001
  -8050889.69408  -6273422.56108  12826470.87408  12826470.80508         0.00001
 -10489385.52608  -8173548.85908  13220817.49208  13220818.34908         0.00001
 -12724223.49308  -9914978.44608  13263666.24908  13263666.25008         0.00001
 93 04 17 14 20 00.0000000  0  7 18 01 14 15 25 22 29
   -330733.42907   -257714.76507  15992059.25107  15992060.83107         0.00001
 -11574467.69608  -9019067.13107  15830441.01408  15830443.09907         0.00001
 -21165352.49108 -16492482.36108  12000591.95108  12000592.55408         0.00001
    923415.73608    719538.70008  13424112.35408  13424113.51308         0.00001
  -7784923.15708  -6066176.05608  12877082.65408  12877082.61708         0.00001
 -10771369.94308  -8393276.93108  13167157.65008  13167158.43508         0.00001
 -12936366.73008 -10080284.91208  13223296.78108  13223296.68308         0.00001
 93 04 17 14 22 00.0000000  0  6 01 14 15 25 22 29
 -11336119.07008  -8833341.28807  15875797.56808  15875799.95007         0.00001
 -21424959.91608 -16694773.90408  11951190.30108  11951190.94808         0.00001
   1220206.01108    950803.61408  13480589.79208  13480591.11508         0.00001
  -7514976.27308  -5855827.98208  12928452.05308  12928452.07108         0.00001
 -11047193.14008  -8608204.08208  13114670.23608  13114670.97108         0.00001
 -13147640.90808 -10244914.17808  13183092.70408  13183092.59308         0.00001
 93 04 17 14 24 00.0000000  0  7 18 01 14 15 25 22 29
        -0.25117         0.32717  15866146.06617  15866147.64317         0.00011
 -11097866.90008  -8647690.60907  15921135.74508  15921138.28907         0.00001
 -21678603.95208 -16892418.64408  11902923.52008  11902924.11808         0.00001
   1521462.57808   1185548.74208  13537917.10808  13537918.58408         0.00001
  -7241403.15408  -5642654.27508  12980511.45508  12980511.41908         0.00001
 -11316626.03808  -8818151.77408  13063398.76008  13063399.60308         0.00001
 -13357856.02008 -10408718.20708  13143090.08808  13143090.04808         0.00001
 93 04 17 14 26 00.0000000  0  7 18 01 14 15 25 22 29
   -330731.73207   -257712.60407  15803209.92407  15803211.63207         0.00001
 -10859598.31907  -8462027.16908  15966476.98007  15966479.73208         0.00001
 -21926358.87208 -17085474.46608  11855777.36508  11855777.93408         0.00001
   1826988.04808   1423620.28008  13596056.87808  13596058.43208         0.00001
  -6964126.28808  -5426594.53608  13033275.59308  13033275.62008         0.00001
 -11579485.63008  -9022977.40708  13013378.24808  13013379.08508         0.00001
 -13566770.46908 -10571508.72208  13103335.00008  13103334.98608         0.00001
 93 04 17 14 28 00.0000000  0  7 18 01 14 15 25 22 29
   -661531.50707   -515478.74507  15740260.81607  15740262.46907         0.00001
 -10621539.17107  -8276526.91008  16011778.39807  16011781.20508         0.00001
 -22168184.30308 -17273909.90608  11809759.54608  11809760.10708         0.00001
   2136504.86408   1664801.94908  13654956.23208  13654957.75308         0.00001
  -6683550.65608  -5207964.33808  13086667.39108  13086667.56908         0.00001
 -11835671.75208  -9222602.90808  12964627.66808  12964628.44108         0.00001
 -13774760.18308 -10733578.65808  13063755.92708  13063755.85408         0.00001
 93 04 17 14 30 00.0000000  0  7 18 01 14 15 25 22 29
   -992579.43408   -773438.29207  15677264.67808  15677266.31807         0.00001
 -10383271.96907  -8090864.53808  16057119.38207  16057122.20408         0.00001
 -22403897.85109 -17457582.83608  11764904.84809  11764905.40508         0.00001
   2449787.89608   1908918.34108  13714572.22708  13714573.73608         0.00001
  -6399777.54408  -4986842.59808  13140667.71808  13140667.93208         0.00001
 -12085033.62408  -9416910.80708  12917175.65708  12917176.36608         0.00001
 -13981629.76108 -10894775.75508  13024389.94708  13024389.91708         0.00001
 93 04 17 14 32 00.0000000  0  7 18 01 14 15 25 22 29
  -1323837.49708  -1031561.59607  15614228.36208  15614230.32507         0.00001
 -10144869.14408  -7905096.47507  16102486.27308  16102488.95907         0.00001
 -22633159.09409 -17636227.99908  11721277.87109  11721278.49008         0.00001
   2766615.93108   2155797.06808  13774862.81508  13774864.34808         0.00001
  -6112808.30508  -4763230.36608  13195276.21108  13195276.43108         0.00001
 -12327420.72408  -9605783.83008  12871050.86708  12871051.62608         0.00001
 -14187319.14008 -11055053.20908  12985248.54008  12985248.54408         0.00001
 93 04 17 14 34 00.0000000  0  7 18 01 14 15 25 22 29
  -1654917.27208  -1289545.93407  15551226.14408  15551228.01807         0.00001
  -9906702.90108  -7719512.75707  16147808.19408  16147810.89707         0.00001
 -22856201.71209 -17810027.48608  11678834.27709  11678834.86208         0.00001
   3086805.72008   2405295.33308  13835793.17408  13835794.73008         0.00001
  -5822771.12608  -4537227.53208  13250468.62608  13250468.87108         0.00001
 -12562646.75508  -9789076.79708  12826288.82808  12826289.58708         0.00001
 -14392033.88608 -11214571.20708  12946292.69608  12946292.68008         0.00001
 93 04 17 14 36 00.0000000  0  7 18 01 14 15 25 22 29
  -1986044.31608  -1547567.10507  15488214.79608  15488216.58407         0.00001
  -9668286.50608  -7533734.10107  16193177.42508  16193180.49907         0.00001
 -23072699.72309 -17978727.28808  11637636.13409  11637636.74108         0.00001
   3410169.65608   2657266.94008  13897327.40908  13897329.16408         0.00001
  -5529736.71508  -4308889.20008  13306231.36408  13306231.73308         0.00001
 -12790538.34008  -9966654.62608  12782922.44408  12782923.20108         0.00001
 -14595639.27108 -11373224.77208  12907547.87208  12907547.87708         0.00001
 93 04 17 14 38 00.0000000  0  7 18 01 14 15 25 22 29
  -2317306.57007  -1805693.57207  15425177.54307  15425179.55407         0.00001
  -9429856.65508  -7347944.97007  16238549.40808  16238552.49107         0.00001
 -23282420.92209 -18142146.45208  11597727.53709  11597728.09408         0.00001
   3736552.22708   2911590.70608  13959436.23408  13959438.03508         0.00001
  -5234199.08408  -4078600.32208  13362470.44908  13362470.86308         0.00001
 -13010890.25708 -10138357.41508  12740990.84208  12740991.61708         0.00001
 -14798160.09408 -11531033.22708  12869009.35708  12869009.42508         0.00001
 93 04 17 14 40 00.0000000  0  7 18 01 14 15 25 22 29
  -2648614.57707  -2063855.67308  15362131.70407  15362133.80908         0.00001
  -9191098.10408  -7161899.74607  16283984.09308  16283987.26707         0.00001
 -23485158.99009 -18300124.20608  11559147.83409  11559148.40408         0.00001
   4065741.35908   3168101.38308  14022079.11108  14022081.07108         0.00001
  -4936191.76208  -3846387.02408  13419179.49408  13419179.94108         0.00001
 -13223560.22308 -10304074.25208  12700521.13308  12700521.86208         0.00001
 -14999529.16208 -11687944.19208  12830690.15008  12830690.22708         0.00001
 93 04 17 14 42 00.0000000  0  7 18 01 14 15 25 22 29
  -2979897.86907  -2321998.51208  15299090.60907  15299092.71108         0.00001
  -8952435.09907  -6975928.98307  16329400.40507  16329403.70607         0.00001
 -23680941.85109 -18452682.31508  11521891.63609  11521892.23308         0.00001
   4397504.94208   3426618.11308  14085211.87908  14085213.86808         0.00001
  -4635554.32208  -3612124.28608  13476389.08308  13476389.57708         0.00001
 -13428431.35608 -10463714.06908  12661535.42508  12661536.13008         0.00001
 -15199929.53508 -11844100.33608  12792555.26508  12792555.30908         0.00001
 93 04 17 14 44 00.0000000  0  7 18 01 14 15 25 22 29
  -3311081.74008  -2580063.87208  15236068.59508  15236070.58708         0.00001
  -8713562.52907  -6789795.00407  16374856.62907  16374860.19207         0.00001
 -23869342.68109 -18599488.19108  11486040.14609  11486040.73908         0.00001
   4731644.48608   3686986.21008  14148796.79908  14148798.92408         0.00001
  -4332537.46708  -3376007.47308  13534051.40608  13534051.95508         0.00001
 -13625357.94808 -10617163.33508  12624061.56408  12624062.21008         0.00001
 -15398811.08508 -11999072.99008  12754709.39508  12754709.39508         0.00001
 93 04 17 14 46 00.0000000  0  7 18 01 14 15 25 22 29
  -3642464.79108  -2838284.45808  15173008.58508  15173010.46508         0.00001
  -8474304.41907  -6603360.54507  16420386.18307  16420389.92507         0.00001
 -24050444.82209 -18740606.77008  11451577.58509  11451578.19008         0.00001
   5067980.76008   3949066.02208  14212799.77608  14212801.97608         0.00001
  -4027277.36908  -3138142.69508  13592140.64308  13592141.19008         0.00001
 -13814181.75208 -10764298.73808  12588129.54008  12588130.25608         0.00001
 -15596423.56708 -12153056.78008  12717105.05808  12717105.07008         0.00001
 93 04 17 14 48 00.0000000  0  7 18 01 14 15 25 22 29
  -3973746.31508  -3096425.89108  15109967.80008  15109969.65408         0.00001
  -8234773.26807  -6416713.25507  16465967.83307  16465971.44607         0.00001
 -24223953.45109 -18875808.33508  11418560.03009  11418560.65008         0.00001
   5406336.92508   4212719.76308  14277187.09608  14277189.45808         0.00001
  -3719908.66808  -2898634.84908  13650631.17508  13650631.72308         0.00001
 -13994746.94008 -10904998.86208  12553769.08108  12553769.83608         0.00001
 -15792749.20808 -12306037.82208  12679745.58708  12679745.59108         0.00001
 93 04 17 14 50 00.0000000  0  7 18 01 14 22 15 25 29
  -4305049.36208  -3354584.06908  15046922.90108  15046924.82208         0.00001
  -7994980.17607  -6229861.80707  16511599.28607  16511602.94007         0.00001
 -24390074.18109 -19005253.10408  11386948.31309  11386948.95208         0.00001
 -14166944.51608 -11039178.76608  12521000.95608  12521001.71308         0.00001
   5746497.04608   4477779.15408  14341917.81008  14341920.14908         0.00001
  -3410675.32608  -2657674.05008  13709476.46308  13709477.09308         0.00001
 -15988075.98808 -12458240.52608  12642576.12608  12642576.11108         0.00001
 93 04 17 14 52 00.0000000  0  7 01 14 22 15 18 25 29
  -7754895.74807  -6042783.35507  16557285.86107  16557289.80807         0.00001
 -24548298.08209 -19128544.49908  11356839.37309  11356840.01408         0.00001
 -14330642.85908 -11166735.88408  12489850.10308  12489850.88508         0.00001
   6088271.57008   4744096.53008  14406955.70308  14406958.01108         0.00001
  -4636596.21208  -3612932.23308  14983831.53308  14983833.53208         0.00001
  -3099311.43308  -2415053.08108  13768727.28108  13768727.91908         0.00001
 -16182153.06508 -12609469.43008  12605644.44408  12605644.52608         0.00001
 93 04 17 14 54 00.0000000  0  8 01 14 19 22 15 18 25 29
  -7514251.14707  -5855268.42607  16603079.41107  16603083.30607         0.00001
 -24698472.11009 -19245563.26608  11328262.26809  11328262.91708         0.00001
        -0.85217        -0.65517  16067037.62117  16067041.69117         0.00011
 -14485728.77508 -11287582.02008  12460338.22508  12460338.97708         0.00001
   6431464.58508   5011519.20608  14472263.38708  14472265.95208         0.00001
  -4967796.12408  -3871010.04808  14920806.27508  14920808.31008         0.00001
  -2786235.94308  -2171098.40208  13828303.75908  13828304.53108         0.00001
 -16374428.14208 -12759294.17608  12569055.69008  12569055.80008         0.00001
 93 04 17 14 56 00.0000000  0  8 19 01 14 22 29 15 18 25
   -413315.75608   -322064.32307  15988386.61308  15988390.66507         0.00001
  -7273007.29307  -5667286.45107  16648986.80707  16648990.59407         0.00001
 -24840794.68709 -19356464.02008  11301179.26609  11301179.82408         0.00001
 -14632067.12008 -11401611.86708  12432490.98208  12432491.69708         0.00001
 -16565339.14508 -12908056.01208  12532726.60408  12532726.69608         0.00001
   6775904.49708   5279913.47908  14537808.49808  14537811.19108         0.00001
  -5298910.66008  -4129021.31008  14857797.17008  14857799.09608         0.00001
  -2471716.08908  -1926018.25608  13888155.08408  13888155.95908         0.00001
 93 04 17 14 58 00.0000000  0  7 19 14 22 29 15 18 25
   -824364.57308   -642362.21407  15910166.74308  15910170.87907         0.00001
 -24975190.10509 -19461187.77308  11275604.70509  11275605.30708         0.00001
 -14769583.81908 -11508767.72108  12406322.44408  12406323.13608         0.00001
 -16754857.69408 -13055732.82808  12496662.51908  12496662.47008         0.00001
   7121367.98708   5549105.34108  14603548.30908  14603551.17608         0.00001
  -5629881.48808  -4386920.54708  14794815.33508  14794817.32808         0.00001
  -2155584.53808  -1679682.24408  13948313.14608  13948314.08308         0.00001
 93 04 17 15 00 00.0000000  0  7 19 14 22 29 25 15 18
  -1233179.87908   -960919.64807  15832371.81708  15832375.95607         0.00001
 -25101246.92009 -19559413.91408  11251616.88309  11251617.55608         0.00001
 -14898250.74708 -11609027.66508  12381837.94408  12381838.65008         0.00001
 -16943014.15108 -13202348.27508  12460857.51408  12460857.49308         0.00001
  -1837894.73308  -1432132.01508  14008767.76408  14008768.72408         0.00001
   7467593.22308   5818890.74408  14669433.22808  14669436.16908         0.00001
  -5961002.95708  -4644937.18508  14731805.00008  14731807.02408         0.00001
 93 04 17 15 02 00.0000000  0  7 19 14 22 29 15 18 25
  -1640018.83108  -1277937.05507  15754952.94008  15754957.04307         0.00001
 -25219009.18409 -19651176.77608  11229207.50409  11229208.17508         0.00001
 -15017997.06008 -11702336.49308  12359050.88308  12359051.68108         0.00001
 -17129825.75408 -13347915.79308  12425308.46308  12425308.50608         0.00001
   7814370.38908   6089106.21708  14735423.11908  14735426.16508         0.00001
  -6292136.11308  -4902962.97908  14668792.48208  14668794.34208         0.00001
  -1519277.25508  -1183858.92908  14069398.81808  14069399.82908         0.00001
 93 04 17 15 04 00.0000000  0  7 19 14 22 29 15 18 25
  -2044614.12308  -1593205.99507  15677960.87108  15677964.95907         0.00001
 -25328366.06009 -19736389.99208  11208397.61109  11208398.36008         0.00001
 -15128770.04208 -11788653.12408  12337971.56608  12337972.31908         0.00001
 -17315240.15708 -13492394.58308  12390025.24108  12390025.34208         0.00001
   8161476.75108   6359578.20008  14801475.68108  14801478.86508         0.00001
  -6622921.81708  -5160718.05908  14605846.11308  14605847.95508         0.00001
  -1199542.09308   -934714.93508  14130242.62308  14130243.55008         0.00001
 93 04 17 15 06 00.0000000  0  7 19 14 22 29 15 18 25
  -2446652.46708  -1906482.47007  15601455.29408  15601459.47407         0.00001
 -25429394.77609 -19815113.73708  11189172.57009  11189173.32008         0.00001
 -15230436.68108 -11867873.90608  12318625.02208  12318625.79208         0.00001
 -17498882.15608 -13635492.27908  12355079.39208  12355079.48308         0.00001
   8508780.64308   6630204.07108  14867565.81308  14867569.17008         0.00001
  -6953669.81008  -5418443.70408  14542906.77208  14542908.55808         0.00001
   -878630.77708   -684654.45808  14191310.26608  14191311.17608         0.00001
 93 04 17 15 10 00.0000000  0  7 29 22 19 18 14 25 15
        -0.86118        -0.89818  21284980.66318  21284980.68418         0.00011
        -0.12018        -0.16518  21284087.22718  21284087.97518         0.00011
        -0.39418        -0.20918  24448876.88318  24448880.92118         0.00011
        -0.07018         0.28618  23416028.97418  23416030.79118         0.00011
        -0.75719        -0.67718  20154428.92319  20154429.62818         0.00011
        -0.49618        -0.87318  23312793.22518  23312794.39118         0.00011
        -0.28618        -0.08818  23998600.97518  23998604.62118         0.00011
 93 04 17 15 12 00.0000000  0  7 29 22 19 18 25 14 15
   -179027.41308   -139502.14108  21250913.02508  21250913.05708         0.00001
    -73998.08408    -57660.92008  21270005.86708  21270006.62908         0.00001
   -394068.10408   -307065.87708  24373888.34808  24373892.22808         0.00001
   -330296.86908   -257373.78608  23353175.58308  23353177.33508         0.00001
    323534.59008    252104.08508  23374360.08108  23374361.35608         0.00001
    -75041.65509    -58474.17908  20140149.10609  20140149.81708         0.00001
    346738.29308    270185.19008  24064583.59308  24064587.35108         0.00001
 93 04 17 15 14 00.0000000  0  7 29 22 19 18 25 14 15
   -356152.28608   -277521.55008  21217207.29408  21217207.42908         0.00001
   -138702.19708   -108079.73408  21257693.10508  21257693.83308         0.00001
   -785811.64808   -612320.47308  24299341.95508  24299345.91508         0.00001
   -660593.10408   -514747.39808  23290322.25308  23290323.97708         0.00001
    647134.04608    504259.19908  23435939.24108  23435940.56008         0.00001
   -141475.85109   -110241.16008  20127507.15409  20127507.88408         0.00001
    692886.37108    539910.33208  24130453.91008  24130457.74608         0.00001
 93 04 17 15 16 00.0000000  0  7 29 22 19 18 25 14 15
   -531825.75008   -414409.99608  21183777.79408  21183777.91608         0.00001
   -194045.12608   -151204.13308  21247161.75108  21247162.49308         0.00001
  -1174776.59808   -915409.92108  24225324.31508  24225328.13408         0.00001
   -990601.71508   -771896.90508  23227523.68308  23227525.34208         0.00001
    971262.69808    756826.68008  23497619.05808  23497620.49108         0.00001
   -199094.76609   -155139.08708  20116542.68309  20116543.43508         0.00001
   1038286.31708    809052.49508  24196181.73608  24196185.71508         0.00001
 93 04 17 15 18 00.0000000  0  7 29 22 19 18 25 14 15
   -705685.56108   -549885.20708  21150693.43808  21150693.46208         0.00001
   -239967.89508   -186988.16108  21238423.02108  21238423.73408         0.00001
  -1560816.32408  -1216220.01007  24151863.33608  24151867.12607         0.00001
  -1320081.48408  -1028634.32308  23164825.63508  23164827.37708         0.00001
   1295841.72408   1009745.08808  23559384.59808  23559386.25408         0.00001
   -247599.13409   -192934.76908  20107312.65009  20107313.45508         0.00001
   1382786.75308   1077493.72507  24261738.45908  24261742.68707         0.00001
 93 04 17 15 20 00.0000000  0  7 29 22 19 18 25 14 15
   -877257.45708   -683577.62608  21118044.42708  21118044.48308         0.00001
   -276422.17108   -215394.13408  21231485.95608  21231486.74508         0.00001
  -1943964.54008  -1514776.98108  24078952.51708  24078956.38408         0.00001
  -1649339.10408  -1285198.62708  23102169.99408  23102171.64808         0.00001
   1620806.28508   1262963.90108  23621223.58908  23621225.37808         0.00001
   -287187.59109   -223782.99408  20099779.24609  20099780.09908         0.00001
   1726232.23208   1345112.88507  24327094.61508  24327098.87607         0.00001
 93 04 17 15 22 00.0000000  0  7 29 22 18 19 25 14 15
  -1047108.19008   -815928.87908  21085722.92308  21085723.02508         0.00001
   -303398.04908   -236414.34608  21226352.71808  21226353.43508         0.00001
  -1978371.67408  -1541587.57308  23039557.14308  23039558.72808         0.00001
  -2324135.47508  -1811013.82308  24006608.17708  24006612.00908         0.00001
   1946242.44508   1516550.20108  23683152.22808  23683154.08908         0.00001
   -317708.70409   -247565.76408  20093971.36609  20093972.21308         0.00001
   2068436.73808   1611765.05107  24392214.53808  24392218.91807         0.00001
 93 04 17 15 24 00.0000000  0  7 29 22 18 19 25 15 14
  -1214973.02508   -946732.68108  21053779.31708  21053779.36908         0.00001
   -320895.91508   -250049.09208  21223022.99908  21223023.76908         0.00001
  -2306838.38708  -1797535.62708  22977052.05008  22977053.67708         0.00001
  -2701430.75508  -2105009.75608  23934810.99908  23934814.78108         0.00001
   2271746.39508   1770189.33508  23745093.83808  23745095.66108         0.00001
   2409212.99308   1877304.29407  24457062.58508  24457067.31307         0.00001
   -338906.04209   -264083.26308  20089937.74009  20089938.59608         0.00001
 93 04 17 15 26 00.0000000  0  7 29 22 18 19 25 15 14
  -1380824.92608  -1075967.96508  21022218.74908  21022218.87208         0.00001
   -328921.46408   -256302.81408  21221495.81708  21221496.63208         0.00001
  -2634766.04908  -2053063.66208  22914649.41208  22914651.12108         0.00001
  -3075603.16308  -2396572.24208  23863608.07308  23863611.71808         0.00001
   2597174.73308   2023769.54708  23807021.07908  23807022.94008         0.00001
   2748383.95207   2141592.66207  24521605.07907  24521610.09807         0.00001
   -351390.20109   -273811.26208  20087562.10909  20087563.05308         0.00001
 93 04 17 15 28 00.0000000  0  7 22 18 19 25 15 14 29
   -327509.80708   -255202.86708  21221764.49308  21221765.31508         0.00001
  -2962204.49908  -2308210.49908  22852339.91508  22852341.63008         0.00001
  -3446559.14008  -2685628.42708  23793017.19408  23793020.74108         0.00001
   2922464.14508   2277241.49608  23868921.82608  23868923.77908         0.00001
   3085744.35607   2404470.22807  24585803.17407  24585808.36307         0.00001
   -354757.57709   -276435.27808  20086921.38309  20086922.35208         0.00001
  -1544353.46208  -1203392.84608  20991100.35808  20991100.49508         0.00001
 93 04 17 15 30 00.0000000  0  7 22 18 19 25 15 14 29
   -316702.38308   -246781.55208  21223821.11708  21223821.94808         0.00001
  -3289546.37108  -2563282.05808  22790048.80108  22790050.54608         0.00001
  -3814643.56008  -2972447.10008  23722972.73208  23722976.25608         0.00001
   3247731.94008   2530696.59808  23930818.59008  23930820.54108         0.00001
   3421097.29707   2665783.56807  24649619.26207  24649624.28207         0.00001
   -348830.88909   -271817.16408  20088049.22509  20088050.18508         0.00001
  -1705594.17608  -1329035.01108  20960417.31908  20960417.43108         0.00001
 93 04 17 15 32 00.0000000  0  7 22 18 19 25 15 14 29
   -296535.49208   -231067.15708  21227658.80808  21227659.64108         0.00001
  -3616396.33408  -2817970.30108  22727851.22608  22727853.00408         0.00001
  -4179502.26908  -3256752.29508  23653542.35908  23653545.69508         0.00001
   3572672.84408   2783896.98308  23992652.99008  23992655.18108         0.00001
   3754258.97608   2925389.53407  24713018.25508  24713023.43807         0.00001
   -333704.08708   -260030.13408  20090927.85508  20090928.84708         0.00001
  -1865059.21508  -1453293.53508  20930072.14108  20930072.30708         0.00001
 93 04 17 15 34 00.0000000  0  7 22 18 19 25 15 14 29
   -267059.37508   -208098.83608  21233268.00308  21233268.81908         0.00001
  -3942508.58208  -3072083.70508  22665794.17308  22665795.95208         0.00001
  -4541409.92908  -3538758.00408  23584673.45108  23584676.64508         0.00001
   3897181.99108   3036760.91808  24054405.28408  24054407.56708         0.00001
   4085039.19207   3183139.82007  24775964.09207  24775969.41607         0.00001
   -309667.95208   -241300.77908  20095501.84908  20095502.87008         0.00001
  -2022149.01808  -1575701.22608  20900178.99808  20900179.17208         0.00001
 93 04 17 15 36 00.0000000  0  7 22 18 19 25 15 14 29
   -228355.79408   -177940.28708  21240633.09308  21240633.96708         0.00001
  -4268087.53908  -3325781.57808  22603838.50708  22603840.23308         0.00001
  -4899907.78808  -3818106.74508  23516453.25408  23516456.54508         0.00001
   4221349.77508   3289358.83208  24116092.57208  24116094.98908         0.00001
   4413226.83407   3438869.94607  24838416.43807  24838422.02307         0.00001
   -276548.86008   -215493.80308  20101804.30508  20101805.36208         0.00001
  -2177030.10708  -1696387.84508  20870706.16008  20870706.32208         0.00001
 93 04 17 15 38 00.0000000  0  6 22 18 19 25 14 29
   -180424.31208   -140591.15708  21249754.22208  21249755.11008         0.00001
  -4593247.68208  -3579153.09508  22541962.66108  22541964.33808         0.00001
  -5255282.12408  -4095021.57208  23448827.53208  23448830.75608         0.00001
   4544960.03408   3541522.31008  24177673.87908  24177676.35308         0.00001
   -234212.50008   -182504.54508  20109860.70408  20109861.81208         0.00001
  -2329692.03708  -1815345.23908  20841655.60308  20841655.78108         0.00001
 93 04 17 15 40 00.0000000  0  7 22 18 19 25 15 29 14
   -123303.58508    -96081.55908  21260623.98708  21260624.83408         0.00001
  -4918067.08708  -3832259.10008  22480151.56408  22480153.25808         0.00001
  -5607697.88508  -4369630.97508  23381764.91208  23381768.05208         0.00001
   4867919.65208   3793178.76508  24239131.29908  24239133.86408         0.00001
        -0.86617        -0.42517  24961745.39117  24961751.24617         0.00011
  -2480079.27208  -1932530.13908  20813037.89508  20813038.12808         0.00001
   -182739.02509   -142395.45708  20119655.93009  20119657.00008         0.00001
 93 04 17 15 42 00.0000000  0  7 22 18 19 25 15 14 29
    -57079.16108    -44478.17608  21273226.13108  21273227.00508         0.00001
  -5242039.82908  -4084705.35308  22418501.54708  22418503.24608         0.00001
  -5956810.45208  -4641666.42208  23315330.84808  23315333.73308         0.00001
   5190191.63008   4044299.38708  24300458.03408  24300460.58008         0.00001
    319565.70607    249011.92807  25022557.27707  25022563.24707         0.00001
   -122177.23908    -95204.57108  20131180.54008  20131181.63208         0.00001
  -2627731.32908  -2047583.73108  20784940.65908  20784940.93508         0.00001
 93 04 17 15 44 00.0000000  0  6 22 18 19 25 29 14
     18138.91408     14133.22908  21287539.69208  21287540.60908         0.00001
  -5565084.19908  -4336428.20208  22357028.18708  22357029.88308         0.00001
  -6302659.18008  -4911158.64108  23249517.81808  23249520.63108         0.00001
   5511404.11908   4294594.44407  24361582.99508  24361585.62207         0.00001
  -2772723.11208  -2160564.38208  20757349.67108  20757349.93508         0.00001
    -53009.01908    -41307.36608  20144342.89508  20144344.00108         0.00001
 93 04 17 15 46 00.0000000  0  7 22 18 19 25 15 29 14
    102292.14008     79707.06808  21303553.55508  21303554.55808         0.00001
  -5887888.38508  -4587963.89808  22295600.60508  22295602.24508         0.00001
  -6645533.03808  -5178332.83708  23184270.84308  23184273.62908         0.00001
   5831852.93408   4544294.43107  24422562.60308  24422565.43907         0.00001
        -0.50217        -0.56817  25142298.60317  25142304.85417         0.00011
  -2915431.37408  -2271765.66308  20730193.26108  20730193.50808         0.00001
     25216.12408     19647.18308  20159228.69708  20159229.83508         0.00001
 93 04 17 15 48 00.0000000  0  7 22 18 19 25 29 14 15
    195318.37108    152194.93108  21321255.94808  21321256.98708         0.00001
  -6209746.49208  -4838762.38408  22234353.04708  22234354.65808         0.00001
  -6984816.38008  -5442709.28308  23119707.26008  23119710.05008         0.00001
   6151521.99908   4793386.84007  24483393.86408  24483396.75807         0.00001
  -3055599.48808  -2380987.61008  20703520.18308  20703520.42608         0.00001
    112692.93608     87810.83008  20175875.09008  20175876.22608         0.00001
    309393.45507    241085.04307  25201174.79207  25201181.34207         0.00001
 93 04 17 15 50 00.0000000  0  8 22 18 19 25 29 14 15 28
    297135.55708    231532.90208  21340631.12308  21340632.25908         0.00001
  -6530431.20908  -5088646.54208  22173328.67108  22173330.30708         0.00001
  -7320741.34108  -5704468.85008  23055782.74408  23055785.50608         0.00001
   6469970.71908   5041528.36907  24543993.01208  24543995.70507         0.00001
  -3192879.03408  -2487958.72308  20677396.74208  20677397.00508         0.00001
    208964.56608    162827.57408  20194195.13708  20194196.26008         0.00001
    615109.31007    479304.70507  25259350.93807  25259357.37607         0.00001
        -0.37517        -0.11517  25292310.63417  25292316.54717         0.00011
 93 04 17 15 52 00.0000000  0  8 22 18 19 29 14 25 15 28
    407630.31208    317632.63108  21361657.62608  21361658.78108         0.00001
  -6850247.51808  -5337854.02208  22112469.63308  22112471.22408         0.00001
  -7653502.19708  -5963762.89308  22992460.39008  22992463.08908         0.00001
  -3327467.67708  -2592833.02308  20651785.46008  20651785.70508         0.00001
    313921.54208    244612.11408  20214167.79308  20214169.02208         0.00001
   6787547.98707   5288990.86107  24604426.17307  24604429.02707         0.00001
    916977.76507    714526.44907  25316794.82607  25316801.55807         0.00001
   -310865.47807   -242232.40607  25233154.90507  25233160.81607         0.00001
